<?xml version="1.0" encoding="UTF-8" standalone="no" ?>
<gpx xmlns="http://www.topografix.com/GPX/1/1" xmlns:xsi="http://www.w3.org/2001/XMLSchema-instance" xsi:schemaLocation="http://www.topografix.com/GPX/1/1 http://www.topografix.com/GPX/1/1/gpx.xsd" version="1.1" creator="VisuGPX - https://www.visugpx.com">
  <metadata>
    <name>SGDLG 2 - Autour du Golf</name>
  </metadata>
  <trk>
    <name><![CDATA[SGDLG 2 - Autour du Golf_1]]></name>
    <trkseg>
      <trkpt lat="48.83381" lon="1.89945">
        <ele>111.42869856053</ele>
        <time>2021-12-21T13:23:50Z</time>
      </trkpt>
      <trkpt lat="48.83382" lon="1.89942">
        <ele>111.39572996929</ele>
        <time>2021-12-21T13:23:51Z</time>
      </trkpt>
      <trkpt lat="48.83382" lon="1.89938">
        <ele>111.33693354585</ele>
        <time>2021-12-21T13:23:52Z</time>
      </trkpt>
      <trkpt lat="48.83381" lon="1.89939">
        <ele>111.34130091</ele>
        <time>2021-12-21T13:23:53Z</time>
      </trkpt>
      <trkpt lat="48.83381" lon="1.89942">
        <ele>111.25822155982</ele>
        <time>2021-12-21T13:23:54Z</time>
      </trkpt>
      <trkpt lat="48.83381" lon="1.89943">
        <ele>111.24673246955</ele>
        <time>2021-12-21T13:23:55Z</time>
      </trkpt>
      <trkpt lat="48.83379" lon="1.89942">
        <ele>111.3065300517</ele>
        <time>2021-12-21T13:23:58Z</time>
      </trkpt>
      <trkpt lat="48.83379" lon="1.89942">
        <ele>111.31377288401</ele>
        <time>2021-12-21T13:23:59Z</time>
      </trkpt>
      <trkpt lat="48.83379" lon="1.89942">
        <ele>111.33914211951</ele>
        <time>2021-12-21T13:24:01Z</time>
      </trkpt>
      <trkpt lat="48.83381" lon="1.89941">
        <ele>111.34177037049</ele>
        <time>2021-12-21T13:24:08Z</time>
      </trkpt>
      <trkpt lat="48.83383" lon="1.89941">
        <ele>111.29112002254</ele>
        <time>2021-12-21T13:24:10Z</time>
      </trkpt>
      <trkpt lat="48.83385" lon="1.89938">
        <ele>111.22565820534</ele>
        <time>2021-12-21T13:24:12Z</time>
      </trkpt>
      <trkpt lat="48.83386" lon="1.89938">
        <ele>111.21236735955</ele>
        <time>2021-12-21T13:24:13Z</time>
      </trkpt>
      <trkpt lat="48.83388" lon="1.89939">
        <ele>111.07756659668</ele>
        <time>2021-12-21T13:24:16Z</time>
      </trkpt>
      <trkpt lat="48.8339" lon="1.89938">
        <ele>110.9278330449</ele>
        <time>2021-12-21T13:24:19Z</time>
      </trkpt>
      <trkpt lat="48.83391" lon="1.89936">
        <ele>110.12886624411</ele>
        <time>2021-12-21T13:24:22Z</time>
      </trkpt>
      <trkpt lat="48.83393" lon="1.89934">
        <ele>109.80198840983</ele>
        <time>2021-12-21T13:24:24Z</time>
      </trkpt>
      <trkpt lat="48.83394" lon="1.89931">
        <ele>109.62670533452</ele>
        <time>2021-12-21T13:24:26Z</time>
      </trkpt>
      <trkpt lat="48.83395" lon="1.89929">
        <ele>109.96909424849</ele>
        <time>2021-12-21T13:24:28Z</time>
      </trkpt>
      <trkpt lat="48.83396" lon="1.89925">
        <ele>109.59206577018</ele>
        <time>2021-12-21T13:24:30Z</time>
      </trkpt>
      <trkpt lat="48.83396" lon="1.89929">
        <ele>109.8431246914</ele>
        <time>2021-12-21T13:24:38Z</time>
      </trkpt>
      <trkpt lat="48.83395" lon="1.89925">
        <ele>109.89932231233</ele>
        <time>2021-12-21T13:24:44Z</time>
      </trkpt>
      <trkpt lat="48.83394" lon="1.89922">
        <ele>110.28909622785</ele>
        <time>2021-12-21T13:24:46Z</time>
      </trkpt>
      <trkpt lat="48.83395" lon="1.89919">
        <ele>110.30904228613</ele>
        <time>2021-12-21T13:24:48Z</time>
      </trkpt>
      <trkpt lat="48.83395" lon="1.89916">
        <ele>110.49401923735</ele>
        <time>2021-12-21T13:24:50Z</time>
      </trkpt>
      <trkpt lat="48.83395" lon="1.89913">
        <ele>110.57229783572</ele>
        <time>2021-12-21T13:24:52Z</time>
      </trkpt>
      <trkpt lat="48.83397" lon="1.8991">
        <ele>110.80176184978</ele>
        <time>2021-12-21T13:24:54Z</time>
      </trkpt>
      <trkpt lat="48.83398" lon="1.89906">
        <ele>110.89624403603</ele>
        <time>2021-12-21T13:24:56Z</time>
      </trkpt>
      <trkpt lat="48.83399" lon="1.89904">
        <ele>110.70016999822</ele>
        <time>2021-12-21T13:24:58Z</time>
      </trkpt>
      <trkpt lat="48.83399" lon="1.89901">
        <ele>111.04118180927</ele>
        <time>2021-12-21T13:25:00Z</time>
      </trkpt>
      <trkpt lat="48.83398" lon="1.89895">
        <ele>110.33913753834</ele>
        <time>2021-12-21T13:25:03Z</time>
      </trkpt>
      <trkpt lat="48.83398" lon="1.8989">
        <ele>110.1785758175</ele>
        <time>2021-12-21T13:25:05Z</time>
      </trkpt>
      <trkpt lat="48.83397" lon="1.89887">
        <ele>110.48303556256</ele>
        <time>2021-12-21T13:25:06Z</time>
      </trkpt>
      <trkpt lat="48.83398" lon="1.89884">
        <ele>110.57670210395</ele>
        <time>2021-12-21T13:25:07Z</time>
      </trkpt>
      <trkpt lat="48.83398" lon="1.89881">
        <ele>110.43592492118</ele>
        <time>2021-12-21T13:25:09Z</time>
      </trkpt>
      <trkpt lat="48.83398" lon="1.89877">
        <ele>111.0072782943</ele>
        <time>2021-12-21T13:25:12Z</time>
      </trkpt>
      <trkpt lat="48.83399" lon="1.89873">
        <ele>110.80317493528</ele>
        <time>2021-12-21T13:25:14Z</time>
      </trkpt>
      <trkpt lat="48.83401" lon="1.89871">
        <ele>110.53449699096</ele>
        <time>2021-12-21T13:25:15Z</time>
      </trkpt>
      <trkpt lat="48.83403" lon="1.89869">
        <ele>110.15079982672</ele>
        <time>2021-12-21T13:25:16Z</time>
      </trkpt>
      <trkpt lat="48.83404" lon="1.89867">
        <ele>109.96327862144</ele>
        <time>2021-12-21T13:25:17Z</time>
      </trkpt>
      <trkpt lat="48.83406" lon="1.89866">
        <ele>109.86060930323</ele>
        <time>2021-12-21T13:25:18Z</time>
      </trkpt>
      <trkpt lat="48.83408" lon="1.89866">
        <ele>110.11234022398</ele>
        <time>2021-12-21T13:25:19Z</time>
      </trkpt>
      <trkpt lat="48.8341" lon="1.89865">
        <ele>110.28462892864</ele>
        <time>2021-12-21T13:25:20Z</time>
      </trkpt>
      <trkpt lat="48.83412" lon="1.89864">
        <ele>110.54086224549</ele>
        <time>2021-12-21T13:25:22Z</time>
      </trkpt>
      <trkpt lat="48.83415" lon="1.89863">
        <ele>110.52103655878</ele>
        <time>2021-12-21T13:25:24Z</time>
      </trkpt>
      <trkpt lat="48.83417" lon="1.89861">
        <ele>110.47296191007</ele>
        <time>2021-12-21T13:25:26Z</time>
      </trkpt>
      <trkpt lat="48.8342" lon="1.89861">
        <ele>110.46707454603</ele>
        <time>2021-12-21T13:25:28Z</time>
      </trkpt>
      <trkpt lat="48.83422" lon="1.8986">
        <ele>110.23914595973</ele>
        <time>2021-12-21T13:25:30Z</time>
      </trkpt>
      <trkpt lat="48.83425" lon="1.89857">
        <ele>110.27833985537</ele>
        <time>2021-12-21T13:25:32Z</time>
      </trkpt>
      <trkpt lat="48.83427" lon="1.89857">
        <ele>109.94433277752</ele>
        <time>2021-12-21T13:25:34Z</time>
      </trkpt>
      <trkpt lat="48.83429" lon="1.89855">
        <ele>110.00323729403</ele>
        <time>2021-12-21T13:25:36Z</time>
      </trkpt>
      <trkpt lat="48.83432" lon="1.89854">
        <ele>110.14838273823</ele>
        <time>2021-12-21T13:25:38Z</time>
      </trkpt>
      <trkpt lat="48.83434" lon="1.89854">
        <ele>110.21944706328</ele>
        <time>2021-12-21T13:25:40Z</time>
      </trkpt>
      <trkpt lat="48.83437" lon="1.89851">
        <ele>110.48612183612</ele>
        <time>2021-12-21T13:25:42Z</time>
      </trkpt>
      <trkpt lat="48.83438" lon="1.8985">
        <ele>110.65661976486</ele>
        <time>2021-12-21T13:25:44Z</time>
      </trkpt>
      <trkpt lat="48.8344" lon="1.89849">
        <ele>110.60217766091</ele>
        <time>2021-12-21T13:25:46Z</time>
      </trkpt>
      <trkpt lat="48.83443" lon="1.89848">
        <ele>110.53894599993</ele>
        <time>2021-12-21T13:25:48Z</time>
      </trkpt>
      <trkpt lat="48.83445" lon="1.89848">
        <ele>110.16039046086</ele>
        <time>2021-12-21T13:25:50Z</time>
      </trkpt>
      <trkpt lat="48.83447" lon="1.89847">
        <ele>110.12765786145</ele>
        <time>2021-12-21T13:25:52Z</time>
      </trkpt>
      <trkpt lat="48.8345" lon="1.89845">
        <ele>109.96251799073</ele>
        <time>2021-12-21T13:25:54Z</time>
      </trkpt>
      <trkpt lat="48.83452" lon="1.89845">
        <ele>109.80304774269</ele>
        <time>2021-12-21T13:25:55Z</time>
      </trkpt>
      <trkpt lat="48.83454" lon="1.89843">
        <ele>109.8893580772</ele>
        <time>2021-12-21T13:25:57Z</time>
      </trkpt>
      <trkpt lat="48.83456" lon="1.89842">
        <ele>109.96945042443</ele>
        <time>2021-12-21T13:25:59Z</time>
      </trkpt>
      <trkpt lat="48.83459" lon="1.89841">
        <ele>110.20424706955</ele>
        <time>2021-12-21T13:26:02Z</time>
      </trkpt>
      <trkpt lat="48.83462" lon="1.89839">
        <ele>110.23423867859</ele>
        <time>2021-12-21T13:26:04Z</time>
      </trkpt>
      <trkpt lat="48.83463" lon="1.89836">
        <ele>110.29249655642</ele>
        <time>2021-12-21T13:26:05Z</time>
      </trkpt>
      <trkpt lat="48.83466" lon="1.89838">
        <ele>110.34642568044</ele>
        <time>2021-12-21T13:26:08Z</time>
      </trkpt>
      <trkpt lat="48.83467" lon="1.8984">
        <ele>110.18488316424</ele>
        <time>2021-12-21T13:26:10Z</time>
      </trkpt>
      <trkpt lat="48.8347" lon="1.89843">
        <ele>109.79689222015</ele>
        <time>2021-12-21T13:26:12Z</time>
      </trkpt>
      <trkpt lat="48.83472" lon="1.89845">
        <ele>109.40021849051</ele>
        <time>2021-12-21T13:26:14Z</time>
      </trkpt>
      <trkpt lat="48.83474" lon="1.89845">
        <ele>109.370428483</ele>
        <time>2021-12-21T13:26:16Z</time>
      </trkpt>
      <trkpt lat="48.83476" lon="1.89847">
        <ele>109.63415557519</ele>
        <time>2021-12-21T13:26:19Z</time>
      </trkpt>
      <trkpt lat="48.83479" lon="1.89847">
        <ele>109.33546712715</ele>
        <time>2021-12-21T13:26:21Z</time>
      </trkpt>
      <trkpt lat="48.83481" lon="1.89847">
        <ele>109.20462466124</ele>
        <time>2021-12-21T13:26:22Z</time>
      </trkpt>
      <trkpt lat="48.83483" lon="1.89847">
        <ele>108.97676282562</ele>
        <time>2021-12-21T13:26:23Z</time>
      </trkpt>
      <trkpt lat="48.83485" lon="1.89848">
        <ele>108.82413501851</ele>
        <time>2021-12-21T13:26:24Z</time>
      </trkpt>
      <trkpt lat="48.83488" lon="1.89847">
        <ele>108.29987299722</ele>
        <time>2021-12-21T13:26:26Z</time>
      </trkpt>
      <trkpt lat="48.8349" lon="1.89848">
        <ele>108.12507512607</ele>
        <time>2021-12-21T13:26:27Z</time>
      </trkpt>
      <trkpt lat="48.83492" lon="1.89849">
        <ele>107.98224660289</ele>
        <time>2021-12-21T13:26:29Z</time>
      </trkpt>
      <trkpt lat="48.83494" lon="1.8985">
        <ele>107.82934132591</ele>
        <time>2021-12-21T13:26:31Z</time>
      </trkpt>
      <trkpt lat="48.83496" lon="1.89851">
        <ele>107.85979489051</ele>
        <time>2021-12-21T13:26:33Z</time>
      </trkpt>
      <trkpt lat="48.83498" lon="1.89852">
        <ele>107.78934343532</ele>
        <time>2021-12-21T13:26:35Z</time>
      </trkpt>
      <trkpt lat="48.83498" lon="1.89847">
        <ele>108.40344507899</ele>
        <time>2021-12-21T13:26:42Z</time>
      </trkpt>
      <trkpt lat="48.83496" lon="1.89845">
        <ele>108.7973341234</ele>
        <time>2021-12-21T13:26:45Z</time>
      </trkpt>
      <trkpt lat="48.83493" lon="1.89844">
        <ele>108.94830037374</ele>
        <time>2021-12-21T13:26:47Z</time>
      </trkpt>
      <trkpt lat="48.83491" lon="1.89843">
        <ele>108.83507625759</ele>
        <time>2021-12-21T13:26:53Z</time>
      </trkpt>
      <trkpt lat="48.83493" lon="1.89845">
        <ele>108.74773291964</ele>
        <time>2021-12-21T13:26:53Z</time>
      </trkpt>
      <trkpt lat="48.83495" lon="1.89843">
        <ele>109.01854168344</ele>
        <time>2021-12-21T13:26:55Z</time>
      </trkpt>
      <trkpt lat="48.83497" lon="1.8984">
        <ele>109.21504935063</ele>
        <time>2021-12-21T13:26:57Z</time>
      </trkpt>
      <trkpt lat="48.83499" lon="1.89839">
        <ele>109.25911677442</ele>
        <time>2021-12-21T13:26:59Z</time>
      </trkpt>
      <trkpt lat="48.83501" lon="1.8984">
        <ele>109.05920771509</ele>
        <time>2021-12-21T13:27:01Z</time>
      </trkpt>
      <trkpt lat="48.83504" lon="1.89842">
        <ele>108.75750500429</ele>
        <time>2021-12-21T13:27:03Z</time>
      </trkpt>
      <trkpt lat="48.83505" lon="1.89845">
        <ele>108.52763199899</ele>
        <time>2021-12-21T13:27:04Z</time>
      </trkpt>
      <trkpt lat="48.83508" lon="1.89846">
        <ele>108.17135554925</ele>
        <time>2021-12-21T13:27:05Z</time>
      </trkpt>
      <trkpt lat="48.8351" lon="1.89848">
        <ele>107.75557977147</ele>
        <time>2021-12-21T13:27:06Z</time>
      </trkpt>
      <trkpt lat="48.83512" lon="1.89848">
        <ele>107.0317282388</ele>
        <time>2021-12-21T13:27:07Z</time>
      </trkpt>
      <trkpt lat="48.83515" lon="1.89848">
        <ele>107.15189024433</ele>
        <time>2021-12-21T13:27:09Z</time>
      </trkpt>
      <trkpt lat="48.83517" lon="1.89849">
        <ele>107.35885378905</ele>
        <time>2021-12-21T13:27:10Z</time>
      </trkpt>
      <trkpt lat="48.83519" lon="1.8985">
        <ele>107.38641387504</ele>
        <time>2021-12-21T13:27:11Z</time>
      </trkpt>
      <trkpt lat="48.83522" lon="1.89851">
        <ele>107.02541217115</ele>
        <time>2021-12-21T13:27:13Z</time>
      </trkpt>
      <trkpt lat="48.83525" lon="1.89852">
        <ele>106.69260453805</ele>
        <time>2021-12-21T13:27:15Z</time>
      </trkpt>
      <trkpt lat="48.83527" lon="1.89853">
        <ele>106.39801332355</ele>
        <time>2021-12-21T13:27:17Z</time>
      </trkpt>
      <trkpt lat="48.83529" lon="1.89855">
        <ele>106.31527817622</ele>
        <time>2021-12-21T13:27:19Z</time>
      </trkpt>
      <trkpt lat="48.83532" lon="1.89856">
        <ele>106.33687464707</ele>
        <time>2021-12-21T13:27:21Z</time>
      </trkpt>
      <trkpt lat="48.83534" lon="1.89856">
        <ele>105.81311749294</ele>
        <time>2021-12-21T13:27:23Z</time>
      </trkpt>
      <trkpt lat="48.83537" lon="1.89859">
        <ele>106.03892077506</ele>
        <time>2021-12-21T13:27:25Z</time>
      </trkpt>
      <trkpt lat="48.83539" lon="1.89861">
        <ele>106.10288968775</ele>
        <time>2021-12-21T13:27:26Z</time>
      </trkpt>
      <trkpt lat="48.83541" lon="1.89863">
        <ele>106.03362313565</ele>
        <time>2021-12-21T13:27:28Z</time>
      </trkpt>
      <trkpt lat="48.83543" lon="1.89865">
        <ele>105.90570643265</ele>
        <time>2021-12-21T13:27:30Z</time>
      </trkpt>
      <trkpt lat="48.83545" lon="1.89867">
        <ele>105.77013880573</ele>
        <time>2021-12-21T13:27:32Z</time>
      </trkpt>
      <trkpt lat="48.83547" lon="1.89868">
        <ele>105.78738473635</ele>
        <time>2021-12-21T13:27:34Z</time>
      </trkpt>
      <trkpt lat="48.8355" lon="1.89869">
        <ele>105.97131493501</ele>
        <time>2021-12-21T13:27:36Z</time>
      </trkpt>
      <trkpt lat="48.83552" lon="1.8987">
        <ele>105.75084745977</ele>
        <time>2021-12-21T13:27:38Z</time>
      </trkpt>
      <trkpt lat="48.83554" lon="1.89871">
        <ele>105.75740823615</ele>
        <time>2021-12-21T13:27:40Z</time>
      </trkpt>
      <trkpt lat="48.83557" lon="1.89872">
        <ele>105.72472033184</ele>
        <time>2021-12-21T13:27:42Z</time>
      </trkpt>
      <trkpt lat="48.83559" lon="1.89874">
        <ele>105.83629239164</ele>
        <time>2021-12-21T13:27:44Z</time>
      </trkpt>
      <trkpt lat="48.83561" lon="1.89875">
        <ele>105.68151850533</ele>
        <time>2021-12-21T13:27:46Z</time>
      </trkpt>
      <trkpt lat="48.83563" lon="1.89876">
        <ele>105.70820753556</ele>
        <time>2021-12-21T13:27:48Z</time>
      </trkpt>
      <trkpt lat="48.83566" lon="1.89877">
        <ele>105.33984468225</ele>
        <time>2021-12-21T13:27:50Z</time>
      </trkpt>
      <trkpt lat="48.83568" lon="1.8988">
        <ele>105.13746537082</ele>
        <time>2021-12-21T13:27:52Z</time>
      </trkpt>
      <trkpt lat="48.8357" lon="1.89881">
        <ele>104.83271742146</ele>
        <time>2021-12-21T13:27:54Z</time>
      </trkpt>
      <trkpt lat="48.83572" lon="1.89881">
        <ele>104.71561554633</ele>
        <time>2021-12-21T13:27:56Z</time>
      </trkpt>
      <trkpt lat="48.83574" lon="1.89883">
        <ele>105.01830592379</ele>
        <time>2021-12-21T13:27:58Z</time>
      </trkpt>
      <trkpt lat="48.83576" lon="1.89885">
        <ele>105.39694697317</ele>
        <time>2021-12-21T13:28:00Z</time>
      </trkpt>
      <trkpt lat="48.83579" lon="1.89886">
        <ele>105.46424757317</ele>
        <time>2021-12-21T13:28:02Z</time>
      </trkpt>
      <trkpt lat="48.83581" lon="1.89887">
        <ele>104.71532020159</ele>
        <time>2021-12-21T13:28:04Z</time>
      </trkpt>
      <trkpt lat="48.83583" lon="1.89888">
        <ele>104.12400304899</ele>
        <time>2021-12-21T13:28:06Z</time>
      </trkpt>
      <trkpt lat="48.83584" lon="1.89889">
        <ele>103.88726399746</ele>
        <time>2021-12-21T13:28:08Z</time>
      </trkpt>
      <trkpt lat="48.83587" lon="1.8989">
        <ele>103.54847328179</ele>
        <time>2021-12-21T13:28:10Z</time>
      </trkpt>
      <trkpt lat="48.8359" lon="1.89892">
        <ele>103.51397596486</ele>
        <time>2021-12-21T13:28:12Z</time>
      </trkpt>
      <trkpt lat="48.83592" lon="1.89893">
        <ele>103.32047003414</ele>
        <time>2021-12-21T13:28:14Z</time>
      </trkpt>
      <trkpt lat="48.83594" lon="1.89895">
        <ele>103.31895162072</ele>
        <time>2021-12-21T13:28:16Z</time>
      </trkpt>
      <trkpt lat="48.83597" lon="1.89896">
        <ele>103.38275213726</ele>
        <time>2021-12-21T13:28:18Z</time>
      </trkpt>
      <trkpt lat="48.83599" lon="1.89898">
        <ele>103.05140150432</ele>
        <time>2021-12-21T13:28:20Z</time>
      </trkpt>
      <trkpt lat="48.83601" lon="1.89899">
        <ele>103.1276596589</ele>
        <time>2021-12-21T13:28:22Z</time>
      </trkpt>
      <trkpt lat="48.83603" lon="1.899">
        <ele>103.11665501818</ele>
        <time>2021-12-21T13:28:24Z</time>
      </trkpt>
      <trkpt lat="48.83605" lon="1.89902">
        <ele>103.11612637714</ele>
        <time>2021-12-21T13:28:26Z</time>
      </trkpt>
      <trkpt lat="48.83609" lon="1.89904">
        <ele>103.43589785602</ele>
        <time>2021-12-21T13:28:28Z</time>
      </trkpt>
      <trkpt lat="48.83611" lon="1.89906">
        <ele>103.54318526573</ele>
        <time>2021-12-21T13:28:30Z</time>
      </trkpt>
      <trkpt lat="48.83613" lon="1.89908">
        <ele>104.0985485483</ele>
        <time>2021-12-21T13:28:32Z</time>
      </trkpt>
      <trkpt lat="48.83614" lon="1.8991">
        <ele>103.57287009992</ele>
        <time>2021-12-21T13:28:35Z</time>
      </trkpt>
      <trkpt lat="48.83617" lon="1.89911">
        <ele>103.57409323193</ele>
        <time>2021-12-21T13:28:38Z</time>
      </trkpt>
      <trkpt lat="48.8362" lon="1.89911">
        <ele>103.40056207776</ele>
        <time>2021-12-21T13:28:40Z</time>
      </trkpt>
      <trkpt lat="48.83621" lon="1.89914">
        <ele>103.16705050319</ele>
        <time>2021-12-21T13:28:43Z</time>
      </trkpt>
      <trkpt lat="48.83624" lon="1.89916">
        <ele>103.10832054075</ele>
        <time>2021-12-21T13:28:45Z</time>
      </trkpt>
      <trkpt lat="48.83626" lon="1.89917">
        <ele>102.80348144379</ele>
        <time>2021-12-21T13:28:47Z</time>
      </trkpt>
      <trkpt lat="48.83628" lon="1.89917">
        <ele>102.70022831485</ele>
        <time>2021-12-21T13:28:49Z</time>
      </trkpt>
      <trkpt lat="48.83631" lon="1.89918">
        <ele>102.76453428157</ele>
        <time>2021-12-21T13:28:51Z</time>
      </trkpt>
      <trkpt lat="48.83633" lon="1.8992">
        <ele>102.47366113309</ele>
        <time>2021-12-21T13:28:54Z</time>
      </trkpt>
      <trkpt lat="48.83635" lon="1.89921">
        <ele>102.7529492192</ele>
        <time>2021-12-21T13:28:56Z</time>
      </trkpt>
      <trkpt lat="48.83637" lon="1.89922">
        <ele>102.85622641817</ele>
        <time>2021-12-21T13:28:58Z</time>
      </trkpt>
      <trkpt lat="48.83639" lon="1.89923">
        <ele>102.92939761095</ele>
        <time>2021-12-21T13:29:00Z</time>
      </trkpt>
      <trkpt lat="48.83642" lon="1.89926">
        <ele>102.54971948545</ele>
        <time>2021-12-21T13:29:02Z</time>
      </trkpt>
      <trkpt lat="48.83644" lon="1.89927">
        <ele>102.16773951333</ele>
        <time>2021-12-21T13:29:04Z</time>
      </trkpt>
      <trkpt lat="48.83646" lon="1.89929">
        <ele>101.83523139544</ele>
        <time>2021-12-21T13:29:06Z</time>
      </trkpt>
      <trkpt lat="48.83648" lon="1.8993">
        <ele>101.75439594407</ele>
        <time>2021-12-21T13:29:08Z</time>
      </trkpt>
      <trkpt lat="48.8365" lon="1.89932">
        <ele>101.50553419907</ele>
        <time>2021-12-21T13:29:10Z</time>
      </trkpt>
      <trkpt lat="48.83653" lon="1.89933">
        <ele>101.48340791278</ele>
        <time>2021-12-21T13:29:12Z</time>
      </trkpt>
      <trkpt lat="48.83655" lon="1.89935">
        <ele>101.47846346442</ele>
        <time>2021-12-21T13:29:14Z</time>
      </trkpt>
      <trkpt lat="48.83657" lon="1.89937">
        <ele>101.35835566185</ele>
        <time>2021-12-21T13:29:16Z</time>
      </trkpt>
      <trkpt lat="48.83658" lon="1.89939">
        <ele>101.11683617998</ele>
        <time>2021-12-21T13:29:18Z</time>
      </trkpt>
      <trkpt lat="48.8366" lon="1.8994">
        <ele>101.12795779854</ele>
        <time>2021-12-21T13:29:20Z</time>
      </trkpt>
      <trkpt lat="48.83663" lon="1.89942">
        <ele>100.87902111094</ele>
        <time>2021-12-21T13:29:22Z</time>
      </trkpt>
      <trkpt lat="48.83665" lon="1.89943">
        <ele>100.74215831142</ele>
        <time>2021-12-21T13:29:24Z</time>
      </trkpt>
      <trkpt lat="48.83667" lon="1.89944">
        <ele>100.50856019929</ele>
        <time>2021-12-21T13:29:26Z</time>
      </trkpt>
      <trkpt lat="48.8367" lon="1.89946">
        <ele>100.19565721601</ele>
        <time>2021-12-21T13:29:28Z</time>
      </trkpt>
      <trkpt lat="48.83671" lon="1.89947">
        <ele>100.12975787185</ele>
        <time>2021-12-21T13:29:30Z</time>
      </trkpt>
      <trkpt lat="48.83673" lon="1.89949">
        <ele>100.41013617441</ele>
        <time>2021-12-21T13:29:32Z</time>
      </trkpt>
      <trkpt lat="48.83675" lon="1.8995">
        <ele>100.477363755</ele>
        <time>2021-12-21T13:29:34Z</time>
      </trkpt>
      <trkpt lat="48.83677" lon="1.89952">
        <ele>100.26578641497</ele>
        <time>2021-12-21T13:29:36Z</time>
      </trkpt>
      <trkpt lat="48.8368" lon="1.89954">
        <ele>99.777101227082</ele>
        <time>2021-12-21T13:29:38Z</time>
      </trkpt>
      <trkpt lat="48.83682" lon="1.89955">
        <ele>99.504389063455</ele>
        <time>2021-12-21T13:29:40Z</time>
      </trkpt>
      <trkpt lat="48.83684" lon="1.89957">
        <ele>99.219612776302</ele>
        <time>2021-12-21T13:29:43Z</time>
      </trkpt>
      <trkpt lat="48.83686" lon="1.89959">
        <ele>98.61087963637</ele>
        <time>2021-12-21T13:29:45Z</time>
      </trkpt>
      <trkpt lat="48.83689" lon="1.89959">
        <ele>98.693942307495</ele>
        <time>2021-12-21T13:29:47Z</time>
      </trkpt>
      <trkpt lat="48.83691" lon="1.89961">
        <ele>98.56033434812</ele>
        <time>2021-12-21T13:29:49Z</time>
      </trkpt>
      <trkpt lat="48.83693" lon="1.89964">
        <ele>98.422027059831</ele>
        <time>2021-12-21T13:29:52Z</time>
      </trkpt>
      <trkpt lat="48.83695" lon="1.89965">
        <ele>98.716584990732</ele>
        <time>2021-12-21T13:29:56Z</time>
      </trkpt>
      <trkpt lat="48.83698" lon="1.89965">
        <ele>97.80849913042</ele>
        <time>2021-12-21T13:29:59Z</time>
      </trkpt>
      <trkpt lat="48.837" lon="1.89967">
        <ele>97.980551281944</ele>
        <time>2021-12-21T13:30:02Z</time>
      </trkpt>
      <trkpt lat="48.83702" lon="1.89968">
        <ele>97.500139658339</ele>
        <time>2021-12-21T13:30:03Z</time>
      </trkpt>
      <trkpt lat="48.83704" lon="1.89971">
        <ele>97.55095111765</ele>
        <time>2021-12-21T13:30:05Z</time>
      </trkpt>
      <trkpt lat="48.83706" lon="1.89972">
        <ele>97.414350989275</ele>
        <time>2021-12-21T13:30:07Z</time>
      </trkpt>
      <trkpt lat="48.83708" lon="1.89974">
        <ele>97.475244686007</ele>
        <time>2021-12-21T13:30:09Z</time>
      </trkpt>
      <trkpt lat="48.83709" lon="1.89976">
        <ele>97.789381446317</ele>
        <time>2021-12-21T13:30:11Z</time>
      </trkpt>
      <trkpt lat="48.83711" lon="1.89977">
        <ele>98.091464455239</ele>
        <time>2021-12-21T13:30:13Z</time>
      </trkpt>
      <trkpt lat="48.83713" lon="1.89979">
        <ele>97.743541439064</ele>
        <time>2021-12-21T13:30:15Z</time>
      </trkpt>
      <trkpt lat="48.83716" lon="1.89981">
        <ele>97.505347490311</ele>
        <time>2021-12-21T13:30:17Z</time>
      </trkpt>
      <trkpt lat="48.83718" lon="1.89981">
        <ele>97.254734706134</ele>
        <time>2021-12-21T13:30:19Z</time>
      </trkpt>
      <trkpt lat="48.8372" lon="1.89983">
        <ele>96.954921937548</ele>
        <time>2021-12-21T13:30:21Z</time>
      </trkpt>
      <trkpt lat="48.83723" lon="1.89984">
        <ele>97.086407694966</ele>
        <time>2021-12-21T13:30:23Z</time>
      </trkpt>
      <trkpt lat="48.83725" lon="1.89985">
        <ele>97.105036030523</ele>
        <time>2021-12-21T13:30:24Z</time>
      </trkpt>
      <trkpt lat="48.83727" lon="1.89987">
        <ele>96.875886410475</ele>
        <time>2021-12-21T13:30:26Z</time>
      </trkpt>
      <trkpt lat="48.8373" lon="1.89988">
        <ele>96.65278901346</ele>
        <time>2021-12-21T13:30:28Z</time>
      </trkpt>
      <trkpt lat="48.83732" lon="1.8999">
        <ele>96.234293806367</ele>
        <time>2021-12-21T13:30:30Z</time>
      </trkpt>
      <trkpt lat="48.83734" lon="1.89991">
        <ele>95.706279186532</ele>
        <time>2021-12-21T13:30:32Z</time>
      </trkpt>
      <trkpt lat="48.83737" lon="1.89994">
        <ele>95.715863550082</ele>
        <time>2021-12-21T13:30:34Z</time>
      </trkpt>
      <trkpt lat="48.8374" lon="1.89995">
        <ele>95.553091550246</ele>
        <time>2021-12-21T13:30:36Z</time>
      </trkpt>
      <trkpt lat="48.83742" lon="1.89996">
        <ele>95.50969420746</ele>
        <time>2021-12-21T13:30:38Z</time>
      </trkpt>
      <trkpt lat="48.83745" lon="1.89997">
        <ele>95.341084228829</ele>
        <time>2021-12-21T13:30:40Z</time>
      </trkpt>
      <trkpt lat="48.83747" lon="1.89999">
        <ele>95.376004469581</ele>
        <time>2021-12-21T13:30:42Z</time>
      </trkpt>
      <trkpt lat="48.8375" lon="1.9">
        <ele>94.935095277615</ele>
        <time>2021-12-21T13:30:44Z</time>
      </trkpt>
      <trkpt lat="48.83752" lon="1.90002">
        <ele>94.437054523267</ele>
        <time>2021-12-21T13:30:46Z</time>
      </trkpt>
      <trkpt lat="48.83754" lon="1.90004">
        <ele>94.438472009264</ele>
        <time>2021-12-21T13:30:48Z</time>
      </trkpt>
      <trkpt lat="48.83757" lon="1.90004">
        <ele>94.79775863979</ele>
        <time>2021-12-21T13:30:50Z</time>
      </trkpt>
      <trkpt lat="48.83759" lon="1.90006">
        <ele>94.612843696959</ele>
        <time>2021-12-21T13:30:52Z</time>
      </trkpt>
      <trkpt lat="48.83761" lon="1.90007">
        <ele>94.877046650276</ele>
        <time>2021-12-21T13:30:54Z</time>
      </trkpt>
      <trkpt lat="48.83763" lon="1.90009">
        <ele>94.654189019464</ele>
        <time>2021-12-21T13:30:56Z</time>
      </trkpt>
      <trkpt lat="48.83765" lon="1.90012">
        <ele>94.624608193524</ele>
        <time>2021-12-21T13:30:58Z</time>
      </trkpt>
      <trkpt lat="48.83767" lon="1.90016">
        <ele>94.679949636571</ele>
        <time>2021-12-21T13:31:00Z</time>
      </trkpt>
      <trkpt lat="48.8377" lon="1.90018">
        <ele>94.821401610039</ele>
        <time>2021-12-21T13:31:03Z</time>
      </trkpt>
      <trkpt lat="48.83772" lon="1.90018">
        <ele>94.963937123306</ele>
        <time>2021-12-21T13:31:04Z</time>
      </trkpt>
      <trkpt lat="48.83774" lon="1.90019">
        <ele>95.003493050113</ele>
        <time>2021-12-21T13:31:06Z</time>
      </trkpt>
      <trkpt lat="48.83778" lon="1.90017">
        <ele>94.832308811136</ele>
        <time>2021-12-21T13:31:08Z</time>
      </trkpt>
      <trkpt lat="48.83781" lon="1.90018">
        <ele>94.244947710074</ele>
        <time>2021-12-21T13:31:10Z</time>
      </trkpt>
      <trkpt lat="48.83781" lon="1.90021">
        <ele>93.619853493758</ele>
        <time>2021-12-21T13:31:11Z</time>
      </trkpt>
      <trkpt lat="48.83782" lon="1.90026">
        <ele>93.058339159936</ele>
        <time>2021-12-21T13:31:13Z</time>
      </trkpt>
      <trkpt lat="48.83784" lon="1.90029">
        <ele>92.834625353105</ele>
        <time>2021-12-21T13:31:15Z</time>
      </trkpt>
      <trkpt lat="48.83786" lon="1.90029">
        <ele>92.366200516932</ele>
        <time>2021-12-21T13:31:17Z</time>
      </trkpt>
      <trkpt lat="48.83789" lon="1.90031">
        <ele>91.893593661487</ele>
        <time>2021-12-21T13:31:19Z</time>
      </trkpt>
      <trkpt lat="48.83792" lon="1.90032">
        <ele>91.836698834784</ele>
        <time>2021-12-21T13:31:21Z</time>
      </trkpt>
      <trkpt lat="48.83794" lon="1.90035">
        <ele>91.046868269332</ele>
        <time>2021-12-21T13:31:23Z</time>
      </trkpt>
      <trkpt lat="48.83796" lon="1.90038">
        <ele>90.715696563944</ele>
        <time>2021-12-21T13:31:25Z</time>
      </trkpt>
      <trkpt lat="48.83797" lon="1.9004">
        <ele>90.180778340437</ele>
        <time>2021-12-21T13:31:27Z</time>
      </trkpt>
      <trkpt lat="48.83798" lon="1.90043">
        <ele>89.857362451032</ele>
        <time>2021-12-21T13:31:29Z</time>
      </trkpt>
      <trkpt lat="48.838" lon="1.90046">
        <ele>89.605089712888</ele>
        <time>2021-12-21T13:31:31Z</time>
      </trkpt>
      <trkpt lat="48.83802" lon="1.90048">
        <ele>89.613022193313</ele>
        <time>2021-12-21T13:31:33Z</time>
      </trkpt>
      <trkpt lat="48.83803" lon="1.9005">
        <ele>89.503982049413</ele>
        <time>2021-12-21T13:31:35Z</time>
      </trkpt>
      <trkpt lat="48.83805" lon="1.90054">
        <ele>89.014447396621</ele>
        <time>2021-12-21T13:31:37Z</time>
      </trkpt>
      <trkpt lat="48.83805" lon="1.90056">
        <ele>88.425945223309</ele>
        <time>2021-12-21T13:31:39Z</time>
      </trkpt>
      <trkpt lat="48.83807" lon="1.9006">
        <ele>87.893798487261</ele>
        <time>2021-12-21T13:31:42Z</time>
      </trkpt>
      <trkpt lat="48.83809" lon="1.90062">
        <ele>87.567780867219</ele>
        <time>2021-12-21T13:31:44Z</time>
      </trkpt>
      <trkpt lat="48.83811" lon="1.90065">
        <ele>87.025137024</ele>
        <time>2021-12-21T13:31:46Z</time>
      </trkpt>
      <trkpt lat="48.83812" lon="1.90068">
        <ele>86.734260306694</ele>
        <time>2021-12-21T13:31:48Z</time>
      </trkpt>
      <trkpt lat="48.83813" lon="1.90071">
        <ele>86.167356588878</ele>
        <time>2021-12-21T13:31:50Z</time>
      </trkpt>
      <trkpt lat="48.83815" lon="1.90075">
        <ele>85.95473501645</ele>
        <time>2021-12-21T13:31:53Z</time>
      </trkpt>
      <trkpt lat="48.83816" lon="1.90078">
        <ele>85.86449019704</ele>
        <time>2021-12-21T13:31:55Z</time>
      </trkpt>
      <trkpt lat="48.83818" lon="1.9008">
        <ele>85.738785178401</ele>
        <time>2021-12-21T13:31:57Z</time>
      </trkpt>
      <trkpt lat="48.83819" lon="1.90083">
        <ele>85.889636808075</ele>
        <time>2021-12-21T13:31:59Z</time>
      </trkpt>
      <trkpt lat="48.8382" lon="1.90084">
        <ele>85.809616181068</ele>
        <time>2021-12-21T13:32:01Z</time>
      </trkpt>
      <trkpt lat="48.83821" lon="1.90087">
        <ele>85.422527576797</ele>
        <time>2021-12-21T13:32:03Z</time>
      </trkpt>
      <trkpt lat="48.83823" lon="1.9009">
        <ele>85.28317752853</ele>
        <time>2021-12-21T13:32:05Z</time>
      </trkpt>
      <trkpt lat="48.83825" lon="1.90092">
        <ele>85.07591735851</ele>
        <time>2021-12-21T13:32:07Z</time>
      </trkpt>
      <trkpt lat="48.83827" lon="1.90094">
        <ele>85.135663919151</ele>
        <time>2021-12-21T13:32:09Z</time>
      </trkpt>
      <trkpt lat="48.83829" lon="1.90096">
        <ele>85.066516722552</ele>
        <time>2021-12-21T13:32:11Z</time>
      </trkpt>
      <trkpt lat="48.83832" lon="1.90098">
        <ele>84.83437664248</ele>
        <time>2021-12-21T13:32:13Z</time>
      </trkpt>
      <trkpt lat="48.83834" lon="1.90101">
        <ele>84.261824934743</ele>
        <time>2021-12-21T13:32:15Z</time>
      </trkpt>
      <trkpt lat="48.83836" lon="1.90103">
        <ele>83.653361289762</ele>
        <time>2021-12-21T13:32:17Z</time>
      </trkpt>
      <trkpt lat="48.83838" lon="1.90105">
        <ele>83.088036764413</ele>
        <time>2021-12-21T13:32:19Z</time>
      </trkpt>
      <trkpt lat="48.83839" lon="1.90107">
        <ele>82.853029516526</ele>
        <time>2021-12-21T13:32:21Z</time>
      </trkpt>
      <trkpt lat="48.83841" lon="1.90109">
        <ele>82.151348770596</ele>
        <time>2021-12-21T13:32:23Z</time>
      </trkpt>
      <trkpt lat="48.83843" lon="1.9011">
        <ele>81.769038699567</ele>
        <time>2021-12-21T13:32:25Z</time>
      </trkpt>
      <trkpt lat="48.83845" lon="1.90111">
        <ele>81.499237876385</ele>
        <time>2021-12-21T13:32:27Z</time>
      </trkpt>
      <trkpt lat="48.83847" lon="1.90112">
        <ele>81.40038728714</ele>
        <time>2021-12-21T13:32:29Z</time>
      </trkpt>
      <trkpt lat="48.83849" lon="1.90113">
        <ele>81.11537632253</ele>
        <time>2021-12-21T13:32:31Z</time>
      </trkpt>
      <trkpt lat="48.83851" lon="1.90113">
        <ele>81.023586072028</ele>
        <time>2021-12-21T13:32:33Z</time>
      </trkpt>
      <trkpt lat="48.83854" lon="1.90113">
        <ele>80.714428736828</ele>
        <time>2021-12-21T13:32:35Z</time>
      </trkpt>
      <trkpt lat="48.83855" lon="1.90113">
        <ele>80.774094595574</ele>
        <time>2021-12-21T13:32:36Z</time>
      </trkpt>
      <trkpt lat="48.83859" lon="1.90113">
        <ele>80.547318125144</ele>
        <time>2021-12-21T13:32:38Z</time>
      </trkpt>
      <trkpt lat="48.83861" lon="1.90112">
        <ele>80.091282758862</ele>
        <time>2021-12-21T13:32:40Z</time>
      </trkpt>
      <trkpt lat="48.83863" lon="1.90111">
        <ele>79.274257857352</ele>
        <time>2021-12-21T13:32:42Z</time>
      </trkpt>
      <trkpt lat="48.83866" lon="1.90111">
        <ele>78.625935000367</ele>
        <time>2021-12-21T13:32:44Z</time>
      </trkpt>
      <trkpt lat="48.83869" lon="1.9011">
        <ele>77.979897518642</ele>
        <time>2021-12-21T13:32:46Z</time>
      </trkpt>
      <trkpt lat="48.83871" lon="1.90109">
        <ele>77.912629093975</ele>
        <time>2021-12-21T13:32:48Z</time>
      </trkpt>
      <trkpt lat="48.83873" lon="1.90108">
        <ele>77.663009312935</ele>
        <time>2021-12-21T13:32:50Z</time>
      </trkpt>
      <trkpt lat="48.83875" lon="1.90107">
        <ele>77.620385377668</ele>
        <time>2021-12-21T13:32:52Z</time>
      </trkpt>
      <trkpt lat="48.83877" lon="1.90106">
        <ele>77.34935553465</ele>
        <time>2021-12-21T13:32:55Z</time>
      </trkpt>
      <trkpt lat="48.83879" lon="1.90105">
        <ele>76.755290133879</ele>
        <time>2021-12-21T13:32:57Z</time>
      </trkpt>
      <trkpt lat="48.83882" lon="1.90105">
        <ele>76.510643100366</ele>
        <time>2021-12-21T13:32:59Z</time>
      </trkpt>
      <trkpt lat="48.83884" lon="1.90105">
        <ele>76.425042226911</ele>
        <time>2021-12-21T13:33:01Z</time>
      </trkpt>
      <trkpt lat="48.83886" lon="1.90105">
        <ele>76.210336269811</ele>
        <time>2021-12-21T13:33:03Z</time>
      </trkpt>
      <trkpt lat="48.83889" lon="1.90105">
        <ele>75.758426783606</ele>
        <time>2021-12-21T13:33:05Z</time>
      </trkpt>
      <trkpt lat="48.83891" lon="1.90104">
        <ele>75.831037078053</ele>
        <time>2021-12-21T13:33:07Z</time>
      </trkpt>
      <trkpt lat="48.83893" lon="1.90105">
        <ele>75.837664367631</ele>
        <time>2021-12-21T13:33:09Z</time>
      </trkpt>
      <trkpt lat="48.83896" lon="1.90105">
        <ele>75.458236851729</ele>
        <time>2021-12-21T13:33:11Z</time>
      </trkpt>
      <trkpt lat="48.83899" lon="1.90105">
        <ele>75.111199283972</ele>
        <time>2021-12-21T13:33:13Z</time>
      </trkpt>
      <trkpt lat="48.83901" lon="1.90106">
        <ele>74.542553342879</ele>
        <time>2021-12-21T13:33:15Z</time>
      </trkpt>
      <trkpt lat="48.83903" lon="1.90109">
        <ele>74.64405442588</ele>
        <time>2021-12-21T13:33:18Z</time>
      </trkpt>
      <trkpt lat="48.83905" lon="1.9011">
        <ele>74.352631096728</ele>
        <time>2021-12-21T13:33:20Z</time>
      </trkpt>
      <trkpt lat="48.83907" lon="1.90111">
        <ele>73.959689425305</ele>
        <time>2021-12-21T13:33:22Z</time>
      </trkpt>
      <trkpt lat="48.8391" lon="1.90113">
        <ele>73.844643520191</ele>
        <time>2021-12-21T13:33:25Z</time>
      </trkpt>
      <trkpt lat="48.83913" lon="1.90114">
        <ele>73.885107671842</ele>
        <time>2021-12-21T13:33:27Z</time>
      </trkpt>
      <trkpt lat="48.83916" lon="1.90116">
        <ele>73.88643323537</ele>
        <time>2021-12-21T13:33:29Z</time>
      </trkpt>
      <trkpt lat="48.83918" lon="1.90118">
        <ele>73.407836513594</ele>
        <time>2021-12-21T13:33:31Z</time>
      </trkpt>
      <trkpt lat="48.8392" lon="1.9012">
        <ele>72.779841657728</ele>
        <time>2021-12-21T13:33:33Z</time>
      </trkpt>
      <trkpt lat="48.83922" lon="1.90121">
        <ele>72.450808206573</ele>
        <time>2021-12-21T13:33:35Z</time>
      </trkpt>
      <trkpt lat="48.83924" lon="1.90124">
        <ele>72.18047308363</ele>
        <time>2021-12-21T13:33:37Z</time>
      </trkpt>
      <trkpt lat="48.83926" lon="1.90125">
        <ele>72.321732614189</ele>
        <time>2021-12-21T13:33:39Z</time>
      </trkpt>
      <trkpt lat="48.83929" lon="1.90126">
        <ele>72.425236927345</ele>
        <time>2021-12-21T13:33:41Z</time>
      </trkpt>
      <trkpt lat="48.83932" lon="1.90128">
        <ele>72.100999902003</ele>
        <time>2021-12-21T13:33:43Z</time>
      </trkpt>
      <trkpt lat="48.83934" lon="1.9013">
        <ele>71.943456986919</ele>
        <time>2021-12-21T13:33:45Z</time>
      </trkpt>
      <trkpt lat="48.83936" lon="1.90131">
        <ele>71.882781686261</ele>
        <time>2021-12-21T13:33:47Z</time>
      </trkpt>
      <trkpt lat="48.83938" lon="1.90134">
        <ele>71.672378354706</ele>
        <time>2021-12-21T13:33:49Z</time>
      </trkpt>
      <trkpt lat="48.83941" lon="1.90136">
        <ele>71.535683307797</ele>
        <time>2021-12-21T13:33:51Z</time>
      </trkpt>
      <trkpt lat="48.83943" lon="1.90137">
        <ele>71.188430296257</ele>
        <time>2021-12-21T13:33:53Z</time>
      </trkpt>
      <trkpt lat="48.83945" lon="1.90138">
        <ele>71.087670504116</ele>
        <time>2021-12-21T13:33:55Z</time>
      </trkpt>
      <trkpt lat="48.83947" lon="1.9014">
        <ele>71.083344501443</ele>
        <time>2021-12-21T13:33:57Z</time>
      </trkpt>
      <trkpt lat="48.83949" lon="1.90141">
        <ele>71.000430044718</ele>
        <time>2021-12-21T13:33:59Z</time>
      </trkpt>
      <trkpt lat="48.83951" lon="1.90143">
        <ele>70.857567570172</ele>
        <time>2021-12-21T13:34:01Z</time>
      </trkpt>
      <trkpt lat="48.83953" lon="1.90144">
        <ele>70.41979107447</ele>
        <time>2021-12-21T13:34:03Z</time>
      </trkpt>
      <trkpt lat="48.83956" lon="1.90145">
        <ele>70.321603110991</ele>
        <time>2021-12-21T13:34:05Z</time>
      </trkpt>
      <trkpt lat="48.83958" lon="1.90147">
        <ele>70.130919843912</ele>
        <time>2021-12-21T13:34:07Z</time>
      </trkpt>
      <trkpt lat="48.8396" lon="1.90148">
        <ele>69.971111521125</ele>
        <time>2021-12-21T13:34:09Z</time>
      </trkpt>
      <trkpt lat="48.83962" lon="1.90147">
        <ele>69.820143313147</ele>
        <time>2021-12-21T13:34:11Z</time>
      </trkpt>
      <trkpt lat="48.83964" lon="1.90148">
        <ele>69.857982582413</ele>
        <time>2021-12-21T13:34:13Z</time>
      </trkpt>
      <trkpt lat="48.83966" lon="1.90148">
        <ele>69.985978703946</ele>
        <time>2021-12-21T13:34:15Z</time>
      </trkpt>
      <trkpt lat="48.83969" lon="1.90148">
        <ele>70.02945341263</ele>
        <time>2021-12-21T13:34:17Z</time>
      </trkpt>
      <trkpt lat="48.83971" lon="1.90149">
        <ele>70.118675393052</ele>
        <time>2021-12-21T13:34:19Z</time>
      </trkpt>
      <trkpt lat="48.83973" lon="1.9015">
        <ele>70.814205012284</ele>
        <time>2021-12-21T13:34:22Z</time>
      </trkpt>
      <trkpt lat="48.83975" lon="1.90152">
        <ele>70.435381853953</ele>
        <time>2021-12-21T13:34:24Z</time>
      </trkpt>
      <trkpt lat="48.83977" lon="1.90153">
        <ele>69.99879981298</ele>
        <time>2021-12-21T13:34:26Z</time>
      </trkpt>
      <trkpt lat="48.8398" lon="1.90155">
        <ele>70.302894908935</ele>
        <time>2021-12-21T13:34:28Z</time>
      </trkpt>
      <trkpt lat="48.83982" lon="1.90157">
        <ele>70.299214495346</ele>
        <time>2021-12-21T13:34:31Z</time>
      </trkpt>
      <trkpt lat="48.83985" lon="1.90159">
        <ele>70.498732583597</ele>
        <time>2021-12-21T13:34:32Z</time>
      </trkpt>
      <trkpt lat="48.83987" lon="1.90161">
        <ele>70.808120315894</ele>
        <time>2021-12-21T13:34:34Z</time>
      </trkpt>
      <trkpt lat="48.83989" lon="1.90162">
        <ele>70.907788713463</ele>
        <time>2021-12-21T13:34:36Z</time>
      </trkpt>
      <trkpt lat="48.83991" lon="1.90161">
        <ele>71.073742280714</ele>
        <time>2021-12-21T13:34:38Z</time>
      </trkpt>
      <trkpt lat="48.83993" lon="1.90164">
        <ele>71.515608740039</ele>
        <time>2021-12-21T13:34:43Z</time>
      </trkpt>
      <trkpt lat="48.83994" lon="1.90162">
        <ele>71.77527936548</ele>
        <time>2021-12-21T13:34:54Z</time>
      </trkpt>
      <trkpt lat="48.83996" lon="1.90162">
        <ele>71.672360518947</ele>
        <time>2021-12-21T13:34:55Z</time>
      </trkpt>
      <trkpt lat="48.83998" lon="1.90162">
        <ele>71.676364779472</ele>
        <time>2021-12-21T13:34:55Z</time>
      </trkpt>
      <trkpt lat="48.84" lon="1.90161">
        <ele>71.696168412454</ele>
        <time>2021-12-21T13:34:55Z</time>
      </trkpt>
      <trkpt lat="48.84002" lon="1.90161">
        <ele>71.577266935259</ele>
        <time>2021-12-21T13:34:58Z</time>
      </trkpt>
      <trkpt lat="48.84005" lon="1.90163">
        <ele>71.31513506081</ele>
        <time>2021-12-21T13:35:00Z</time>
      </trkpt>
      <trkpt lat="48.84006" lon="1.90161">
        <ele>71.742452272214</ele>
        <time>2021-12-21T13:35:03Z</time>
      </trkpt>
      <trkpt lat="48.84008" lon="1.90161">
        <ele>72.222593379207</ele>
        <time>2021-12-21T13:35:06Z</time>
      </trkpt>
      <trkpt lat="48.84011" lon="1.90159">
        <ele>71.585158756003</ele>
        <time>2021-12-21T13:35:09Z</time>
      </trkpt>
      <trkpt lat="48.84013" lon="1.90158">
        <ele>71.716348998249</ele>
        <time>2021-12-21T13:35:11Z</time>
      </trkpt>
      <trkpt lat="48.84016" lon="1.90159">
        <ele>72.193698901683</ele>
        <time>2021-12-21T13:35:13Z</time>
      </trkpt>
      <trkpt lat="48.84017" lon="1.90158">
        <ele>72.154362889007</ele>
        <time>2021-12-21T13:35:15Z</time>
      </trkpt>
      <trkpt lat="48.8402" lon="1.90158">
        <ele>72.195719202049</ele>
        <time>2021-12-21T13:35:17Z</time>
      </trkpt>
      <trkpt lat="48.84023" lon="1.90157">
        <ele>72.5909522539</ele>
        <time>2021-12-21T13:35:19Z</time>
      </trkpt>
      <trkpt lat="48.84026" lon="1.90156">
        <ele>72.854818509892</ele>
        <time>2021-12-21T13:35:21Z</time>
      </trkpt>
      <trkpt lat="48.84028" lon="1.90156">
        <ele>73.278374354355</ele>
        <time>2021-12-21T13:35:23Z</time>
      </trkpt>
      <trkpt lat="48.84029" lon="1.90156">
        <ele>73.338447813876</ele>
        <time>2021-12-21T13:35:25Z</time>
      </trkpt>
      <trkpt lat="48.84032" lon="1.90157">
        <ele>73.774050504901</ele>
        <time>2021-12-21T13:35:27Z</time>
      </trkpt>
      <trkpt lat="48.84034" lon="1.90157">
        <ele>73.805906788446</ele>
        <time>2021-12-21T13:35:30Z</time>
      </trkpt>
      <trkpt lat="48.84037" lon="1.90158">
        <ele>73.922216664068</ele>
        <time>2021-12-21T13:35:32Z</time>
      </trkpt>
      <trkpt lat="48.84038" lon="1.90159">
        <ele>74.189894320443</ele>
        <time>2021-12-21T13:35:34Z</time>
      </trkpt>
      <trkpt lat="48.8404" lon="1.9016">
        <ele>74.20880750753</ele>
        <time>2021-12-21T13:35:36Z</time>
      </trkpt>
      <trkpt lat="48.84042" lon="1.90161">
        <ele>74.483003723435</ele>
        <time>2021-12-21T13:35:38Z</time>
      </trkpt>
      <trkpt lat="48.84044" lon="1.90164">
        <ele>74.947229491547</ele>
        <time>2021-12-21T13:35:40Z</time>
      </trkpt>
      <trkpt lat="48.84046" lon="1.90165">
        <ele>75.398886953481</ele>
        <time>2021-12-21T13:35:43Z</time>
      </trkpt>
      <trkpt lat="48.84047" lon="1.90168">
        <ele>76.082606023178</ele>
        <time>2021-12-21T13:35:46Z</time>
      </trkpt>
      <trkpt lat="48.8405" lon="1.90171">
        <ele>76.44742624741</ele>
        <time>2021-12-21T13:35:48Z</time>
      </trkpt>
      <trkpt lat="48.84052" lon="1.90173">
        <ele>76.754334973171</ele>
        <time>2021-12-21T13:35:50Z</time>
      </trkpt>
      <trkpt lat="48.84053" lon="1.90175">
        <ele>77.229361411184</ele>
        <time>2021-12-21T13:35:52Z</time>
      </trkpt>
      <trkpt lat="48.84056" lon="1.90177">
        <ele>77.928135344759</ele>
        <time>2021-12-21T13:35:55Z</time>
      </trkpt>
      <trkpt lat="48.84058" lon="1.90178">
        <ele>78.281150647439</ele>
        <time>2021-12-21T13:35:57Z</time>
      </trkpt>
      <trkpt lat="48.84061" lon="1.90181">
        <ele>78.847816885449</ele>
        <time>2021-12-21T13:35:59Z</time>
      </trkpt>
      <trkpt lat="48.84063" lon="1.90182">
        <ele>79.11734915711</ele>
        <time>2021-12-21T13:36:02Z</time>
      </trkpt>
      <trkpt lat="48.84065" lon="1.90184">
        <ele>78.756107572466</ele>
        <time>2021-12-21T13:36:05Z</time>
      </trkpt>
      <trkpt lat="48.84067" lon="1.90186">
        <ele>78.884251635522</ele>
        <time>2021-12-21T13:36:08Z</time>
      </trkpt>
      <trkpt lat="48.84069" lon="1.90188">
        <ele>79.448685595766</ele>
        <time>2021-12-21T13:36:10Z</time>
      </trkpt>
      <trkpt lat="48.84071" lon="1.90187">
        <ele>79.958435889333</ele>
        <time>2021-12-21T13:36:12Z</time>
      </trkpt>
      <trkpt lat="48.84073" lon="1.90189">
        <ele>80.386407653801</ele>
        <time>2021-12-21T13:36:15Z</time>
      </trkpt>
      <trkpt lat="48.84076" lon="1.90191">
        <ele>80.641096970066</ele>
        <time>2021-12-21T13:36:18Z</time>
      </trkpt>
      <trkpt lat="48.84078" lon="1.90191">
        <ele>81.109042617492</ele>
        <time>2021-12-21T13:36:20Z</time>
      </trkpt>
      <trkpt lat="48.8408" lon="1.90192">
        <ele>81.322692219168</ele>
        <time>2021-12-21T13:36:22Z</time>
      </trkpt>
      <trkpt lat="48.84082" lon="1.90193">
        <ele>81.807109878398</ele>
        <time>2021-12-21T13:36:24Z</time>
      </trkpt>
      <trkpt lat="48.84084" lon="1.90191">
        <ele>81.914252088405</ele>
        <time>2021-12-21T13:36:27Z</time>
      </trkpt>
      <trkpt lat="48.84086" lon="1.90192">
        <ele>82.053430863656</ele>
        <time>2021-12-21T13:36:29Z</time>
      </trkpt>
      <trkpt lat="48.84088" lon="1.90193">
        <ele>82.111296646297</ele>
        <time>2021-12-21T13:36:31Z</time>
      </trkpt>
      <trkpt lat="48.8409" lon="1.90193">
        <ele>82.651402890682</ele>
        <time>2021-12-21T13:36:33Z</time>
      </trkpt>
      <trkpt lat="48.84092" lon="1.90194">
        <ele>83.154862075113</ele>
        <time>2021-12-21T13:36:35Z</time>
      </trkpt>
      <trkpt lat="48.84094" lon="1.90193">
        <ele>83.282856743783</ele>
        <time>2021-12-21T13:36:37Z</time>
      </trkpt>
      <trkpt lat="48.84096" lon="1.90193">
        <ele>83.717227485962</ele>
        <time>2021-12-21T13:36:40Z</time>
      </trkpt>
      <trkpt lat="48.84098" lon="1.90191">
        <ele>84.16028800793</ele>
        <time>2021-12-21T13:36:42Z</time>
      </trkpt>
      <trkpt lat="48.841" lon="1.90191">
        <ele>84.305392783135</ele>
        <time>2021-12-21T13:36:44Z</time>
      </trkpt>
      <trkpt lat="48.84102" lon="1.90191">
        <ele>84.255134851672</ele>
        <time>2021-12-21T13:36:46Z</time>
      </trkpt>
      <trkpt lat="48.84105" lon="1.90191">
        <ele>84.62027030997</ele>
        <time>2021-12-21T13:36:48Z</time>
      </trkpt>
      <trkpt lat="48.84107" lon="1.9019">
        <ele>85.032842239365</ele>
        <time>2021-12-21T13:36:51Z</time>
      </trkpt>
      <trkpt lat="48.84109" lon="1.90191">
        <ele>85.472803193145</ele>
        <time>2021-12-21T13:36:53Z</time>
      </trkpt>
      <trkpt lat="48.84112" lon="1.90191">
        <ele>85.792126338929</ele>
        <time>2021-12-21T13:36:56Z</time>
      </trkpt>
      <trkpt lat="48.84114" lon="1.90193">
        <ele>86.336120665073</ele>
        <time>2021-12-21T13:36:58Z</time>
      </trkpt>
      <trkpt lat="48.84115" lon="1.90192">
        <ele>86.307148560882</ele>
        <time>2021-12-21T13:37:02Z</time>
      </trkpt>
      <trkpt lat="48.84118" lon="1.90192">
        <ele>86.788627786562</ele>
        <time>2021-12-21T13:37:07Z</time>
      </trkpt>
      <trkpt lat="48.8412" lon="1.90191">
        <ele>86.941565174609</ele>
        <time>2021-12-21T13:37:09Z</time>
      </trkpt>
      <trkpt lat="48.84122" lon="1.90191">
        <ele>86.845035968348</ele>
        <time>2021-12-21T13:37:11Z</time>
      </trkpt>
      <trkpt lat="48.84125" lon="1.90191">
        <ele>86.819223520346</ele>
        <time>2021-12-21T13:37:14Z</time>
      </trkpt>
      <trkpt lat="48.84127" lon="1.90191">
        <ele>87.207884825766</ele>
        <time>2021-12-21T13:37:16Z</time>
      </trkpt>
      <trkpt lat="48.8413" lon="1.90193">
        <ele>87.724720081314</ele>
        <time>2021-12-21T13:37:19Z</time>
      </trkpt>
      <trkpt lat="48.84132" lon="1.90192">
        <ele>88.539588826708</ele>
        <time>2021-12-21T13:37:22Z</time>
      </trkpt>
      <trkpt lat="48.84134" lon="1.90193">
        <ele>89.296328671277</ele>
        <time>2021-12-21T13:37:25Z</time>
      </trkpt>
      <trkpt lat="48.84136" lon="1.90194">
        <ele>89.274359002709</ele>
        <time>2021-12-21T13:37:28Z</time>
      </trkpt>
      <trkpt lat="48.84139" lon="1.90194">
        <ele>89.121586194262</ele>
        <time>2021-12-21T13:37:31Z</time>
      </trkpt>
      <trkpt lat="48.84141" lon="1.90196">
        <ele>89.388696176931</ele>
        <time>2021-12-21T13:37:33Z</time>
      </trkpt>
      <trkpt lat="48.84142" lon="1.90194">
        <ele>89.904878588393</ele>
        <time>2021-12-21T13:37:35Z</time>
      </trkpt>
      <trkpt lat="48.84144" lon="1.90195">
        <ele>90.074323589914</ele>
        <time>2021-12-21T13:37:37Z</time>
      </trkpt>
      <trkpt lat="48.84147" lon="1.90196">
        <ele>90.540235643275</ele>
        <time>2021-12-21T13:37:40Z</time>
      </trkpt>
      <trkpt lat="48.8415" lon="1.90196">
        <ele>91.095836539753</ele>
        <time>2021-12-21T13:37:43Z</time>
      </trkpt>
      <trkpt lat="48.84152" lon="1.90196">
        <ele>91.631811887026</ele>
        <time>2021-12-21T13:37:45Z</time>
      </trkpt>
      <trkpt lat="48.84153" lon="1.90199">
        <ele>92.117365109734</ele>
        <time>2021-12-21T13:37:47Z</time>
      </trkpt>
      <trkpt lat="48.84155" lon="1.90201">
        <ele>91.98287844751</ele>
        <time>2021-12-21T13:37:50Z</time>
      </trkpt>
      <trkpt lat="48.84157" lon="1.90202">
        <ele>92.424980436452</ele>
        <time>2021-12-21T13:37:52Z</time>
      </trkpt>
      <trkpt lat="48.84159" lon="1.90204">
        <ele>92.745643046685</ele>
        <time>2021-12-21T13:37:54Z</time>
      </trkpt>
      <trkpt lat="48.84161" lon="1.90206">
        <ele>92.929796488024</ele>
        <time>2021-12-21T13:37:56Z</time>
      </trkpt>
      <trkpt lat="48.84163" lon="1.90209">
        <ele>93.347089638002</ele>
        <time>2021-12-21T13:38:00Z</time>
      </trkpt>
      <trkpt lat="48.84165" lon="1.90211">
        <ele>93.910125126131</ele>
        <time>2021-12-21T13:38:03Z</time>
      </trkpt>
      <trkpt lat="48.84168" lon="1.90214">
        <ele>93.383030098863</ele>
        <time>2021-12-21T13:38:06Z</time>
      </trkpt>
      <trkpt lat="48.84169" lon="1.90216">
        <ele>93.572340998799</ele>
        <time>2021-12-21T13:38:09Z</time>
      </trkpt>
      <trkpt lat="48.84167" lon="1.90218">
        <ele>92.803314856254</ele>
        <time>2021-12-21T13:38:14Z</time>
      </trkpt>
      <trkpt lat="48.84166" lon="1.90223">
        <ele>94.098510660231</ele>
        <time>2021-12-21T13:38:16Z</time>
      </trkpt>
      <trkpt lat="48.84168" lon="1.90221">
        <ele>93.670891133137</ele>
        <time>2021-12-21T13:38:24Z</time>
      </trkpt>
      <trkpt lat="48.84169" lon="1.90218">
        <ele>93.734038286842</ele>
        <time>2021-12-21T13:38:25Z</time>
      </trkpt>
      <trkpt lat="48.84168" lon="1.90215">
        <ele>92.923911928199</ele>
        <time>2021-12-21T13:38:30Z</time>
      </trkpt>
      <trkpt lat="48.84171" lon="1.90213">
        <ele>93.530807072297</ele>
        <time>2021-12-21T13:38:36Z</time>
      </trkpt>
      <trkpt lat="48.84173" lon="1.90216">
        <ele>94.022234085947</ele>
        <time>2021-12-21T13:38:38Z</time>
      </trkpt>
      <trkpt lat="48.84174" lon="1.90217">
        <ele>94.098008809611</ele>
        <time>2021-12-21T13:38:39Z</time>
      </trkpt>
      <trkpt lat="48.84178" lon="1.90218">
        <ele>94.761812691577</ele>
        <time>2021-12-21T13:38:41Z</time>
      </trkpt>
      <trkpt lat="48.8418" lon="1.9022">
        <ele>95.068520502187</ele>
        <time>2021-12-21T13:38:43Z</time>
      </trkpt>
      <trkpt lat="48.84183" lon="1.90221">
        <ele>95.511033499613</ele>
        <time>2021-12-21T13:38:46Z</time>
      </trkpt>
      <trkpt lat="48.84186" lon="1.90223">
        <ele>95.885989038274</ele>
        <time>2021-12-21T13:38:48Z</time>
      </trkpt>
      <trkpt lat="48.84187" lon="1.90224">
        <ele>96.007591624744</ele>
        <time>2021-12-21T13:38:50Z</time>
      </trkpt>
      <trkpt lat="48.84189" lon="1.90226">
        <ele>96.4838773394</ele>
        <time>2021-12-21T13:38:52Z</time>
      </trkpt>
      <trkpt lat="48.84191" lon="1.90229">
        <ele>96.519837191328</ele>
        <time>2021-12-21T13:38:55Z</time>
      </trkpt>
      <trkpt lat="48.84194" lon="1.90231">
        <ele>96.586294427514</ele>
        <time>2021-12-21T13:38:58Z</time>
      </trkpt>
      <trkpt lat="48.84196" lon="1.90233">
        <ele>96.97732423991</ele>
        <time>2021-12-21T13:39:00Z</time>
      </trkpt>
      <trkpt lat="48.84197" lon="1.90234">
        <ele>97.21921864897</ele>
        <time>2021-12-21T13:39:02Z</time>
      </trkpt>
      <trkpt lat="48.84199" lon="1.90235">
        <ele>97.185076877475</ele>
        <time>2021-12-21T13:39:06Z</time>
      </trkpt>
      <trkpt lat="48.84201" lon="1.90236">
        <ele>97.429532537237</ele>
        <time>2021-12-21T13:39:08Z</time>
      </trkpt>
      <trkpt lat="48.84203" lon="1.90238">
        <ele>97.855561380275</ele>
        <time>2021-12-21T13:39:10Z</time>
      </trkpt>
      <trkpt lat="48.84205" lon="1.9024">
        <ele>98.123902630061</ele>
        <time>2021-12-21T13:39:12Z</time>
      </trkpt>
      <trkpt lat="48.84208" lon="1.90242">
        <ele>98.012753091753</ele>
        <time>2021-12-21T13:39:15Z</time>
      </trkpt>
      <trkpt lat="48.84209" lon="1.90244">
        <ele>98.170166126452</ele>
        <time>2021-12-21T13:39:17Z</time>
      </trkpt>
      <trkpt lat="48.84211" lon="1.90246">
        <ele>98.12380303815</ele>
        <time>2021-12-21T13:39:19Z</time>
      </trkpt>
      <trkpt lat="48.84213" lon="1.90247">
        <ele>98.697729709558</ele>
        <time>2021-12-21T13:39:21Z</time>
      </trkpt>
      <trkpt lat="48.84215" lon="1.90249">
        <ele>98.884085475467</ele>
        <time>2021-12-21T13:39:23Z</time>
      </trkpt>
      <trkpt lat="48.84217" lon="1.90251">
        <ele>98.799004299566</ele>
        <time>2021-12-21T13:39:25Z</time>
      </trkpt>
      <trkpt lat="48.84218" lon="1.90253">
        <ele>98.768744328991</ele>
        <time>2021-12-21T13:39:27Z</time>
      </trkpt>
      <trkpt lat="48.8422" lon="1.90255">
        <ele>99.206294946373</ele>
        <time>2021-12-21T13:39:29Z</time>
      </trkpt>
      <trkpt lat="48.84222" lon="1.90255">
        <ele>99.626148550771</ele>
        <time>2021-12-21T13:39:31Z</time>
      </trkpt>
      <trkpt lat="48.84224" lon="1.90257">
        <ele>99.569442234933</ele>
        <time>2021-12-21T13:39:34Z</time>
      </trkpt>
      <trkpt lat="48.84226" lon="1.90259">
        <ele>99.697442970239</ele>
        <time>2021-12-21T13:39:36Z</time>
      </trkpt>
      <trkpt lat="48.84228" lon="1.9026">
        <ele>100.16759247333</ele>
        <time>2021-12-21T13:39:38Z</time>
      </trkpt>
      <trkpt lat="48.8423" lon="1.90262">
        <ele>100.28695266601</ele>
        <time>2021-12-21T13:39:40Z</time>
      </trkpt>
      <trkpt lat="48.84231" lon="1.90264">
        <ele>100.35943866801</ele>
        <time>2021-12-21T13:39:42Z</time>
      </trkpt>
      <trkpt lat="48.84233" lon="1.90266">
        <ele>100.8884411836</ele>
        <time>2021-12-21T13:39:44Z</time>
      </trkpt>
      <trkpt lat="48.84235" lon="1.90269">
        <ele>101.50824849959</ele>
        <time>2021-12-21T13:39:46Z</time>
      </trkpt>
      <trkpt lat="48.84236" lon="1.90272">
        <ele>102.40699811187</ele>
        <time>2021-12-21T13:39:48Z</time>
      </trkpt>
      <trkpt lat="48.84238" lon="1.90276">
        <ele>102.96239715815</ele>
        <time>2021-12-21T13:39:50Z</time>
      </trkpt>
      <trkpt lat="48.84238" lon="1.90279">
        <ele>103.30536591541</ele>
        <time>2021-12-21T13:39:52Z</time>
      </trkpt>
      <trkpt lat="48.84237" lon="1.90283">
        <ele>103.27930266131</ele>
        <time>2021-12-21T13:39:54Z</time>
      </trkpt>
      <trkpt lat="48.84236" lon="1.90286">
        <ele>103.24154725112</ele>
        <time>2021-12-21T13:39:56Z</time>
      </trkpt>
      <trkpt lat="48.84236" lon="1.9029">
        <ele>103.18318350054</ele>
        <time>2021-12-21T13:39:58Z</time>
      </trkpt>
      <trkpt lat="48.84235" lon="1.90294">
        <ele>102.86373710167</ele>
        <time>2021-12-21T13:40:00Z</time>
      </trkpt>
      <trkpt lat="48.84234" lon="1.90298">
        <ele>102.91480283532</ele>
        <time>2021-12-21T13:40:02Z</time>
      </trkpt>
      <trkpt lat="48.84234" lon="1.90301">
        <ele>102.66490323376</ele>
        <time>2021-12-21T13:40:04Z</time>
      </trkpt>
      <trkpt lat="48.84234" lon="1.90304">
        <ele>102.23553344235</ele>
        <time>2021-12-21T13:40:06Z</time>
      </trkpt>
      <trkpt lat="48.84233" lon="1.90308">
        <ele>101.94581995159</ele>
        <time>2021-12-21T13:40:08Z</time>
      </trkpt>
      <trkpt lat="48.84234" lon="1.90313">
        <ele>101.70800395962</ele>
        <time>2021-12-21T13:40:12Z</time>
      </trkpt>
      <trkpt lat="48.84233" lon="1.90318">
        <ele>101.78414701298</ele>
        <time>2021-12-21T13:40:15Z</time>
      </trkpt>
      <trkpt lat="48.84233" lon="1.90322">
        <ele>102.00223482307</ele>
        <time>2021-12-21T13:40:17Z</time>
      </trkpt>
      <trkpt lat="48.84232" lon="1.90326">
        <ele>102.07248338126</ele>
        <time>2021-12-21T13:40:19Z</time>
      </trkpt>
      <trkpt lat="48.84232" lon="1.90331">
        <ele>101.97733720951</ele>
        <time>2021-12-21T13:40:21Z</time>
      </trkpt>
      <trkpt lat="48.84232" lon="1.90337">
        <ele>102.29720159248</ele>
        <time>2021-12-21T13:40:24Z</time>
      </trkpt>
      <trkpt lat="48.84232" lon="1.90341">
        <ele>102.16355227772</ele>
        <time>2021-12-21T13:40:27Z</time>
      </trkpt>
      <trkpt lat="48.84232" lon="1.90344">
        <ele>102.02976380289</ele>
        <time>2021-12-21T13:40:29Z</time>
      </trkpt>
      <trkpt lat="48.84232" lon="1.90348">
        <ele>102.20931276865</ele>
        <time>2021-12-21T13:40:32Z</time>
      </trkpt>
      <trkpt lat="48.84232" lon="1.90351">
        <ele>102.55007911846</ele>
        <time>2021-12-21T13:40:34Z</time>
      </trkpt>
      <trkpt lat="48.84232" lon="1.90355">
        <ele>102.5743658999</ele>
        <time>2021-12-21T13:40:36Z</time>
      </trkpt>
      <trkpt lat="48.84232" lon="1.90359">
        <ele>102.73586276826</ele>
        <time>2021-12-21T13:40:38Z</time>
      </trkpt>
      <trkpt lat="48.84232" lon="1.90362">
        <ele>102.38275216706</ele>
        <time>2021-12-21T13:40:40Z</time>
      </trkpt>
      <trkpt lat="48.84232" lon="1.90365">
        <ele>102.223402014</ele>
        <time>2021-12-21T13:40:42Z</time>
      </trkpt>
      <trkpt lat="48.84231" lon="1.90368">
        <ele>102.25765458774</ele>
        <time>2021-12-21T13:40:44Z</time>
      </trkpt>
      <trkpt lat="48.84231" lon="1.90372">
        <ele>102.5923202429</ele>
        <time>2021-12-21T13:40:46Z</time>
      </trkpt>
      <trkpt lat="48.84232" lon="1.90375">
        <ele>102.28186096717</ele>
        <time>2021-12-21T13:40:49Z</time>
      </trkpt>
      <trkpt lat="48.84232" lon="1.90379">
        <ele>102.54854478873</ele>
        <time>2021-12-21T13:40:51Z</time>
      </trkpt>
      <trkpt lat="48.84232" lon="1.90382">
        <ele>102.76582202688</ele>
        <time>2021-12-21T13:40:53Z</time>
      </trkpt>
      <trkpt lat="48.84231" lon="1.90385">
        <ele>102.79597770888</ele>
        <time>2021-12-21T13:40:55Z</time>
      </trkpt>
      <trkpt lat="48.84231" lon="1.90389">
        <ele>102.87223208323</ele>
        <time>2021-12-21T13:40:57Z</time>
      </trkpt>
      <trkpt lat="48.84231" lon="1.90392">
        <ele>102.76928136684</ele>
        <time>2021-12-21T13:40:59Z</time>
      </trkpt>
      <trkpt lat="48.84231" lon="1.90396">
        <ele>102.85162543133</ele>
        <time>2021-12-21T13:41:01Z</time>
      </trkpt>
      <trkpt lat="48.84231" lon="1.90399">
        <ele>102.9298150884</ele>
        <time>2021-12-21T13:41:03Z</time>
      </trkpt>
      <trkpt lat="48.84231" lon="1.90403">
        <ele>102.47678789031</ele>
        <time>2021-12-21T13:41:06Z</time>
      </trkpt>
      <trkpt lat="48.84229" lon="1.90403">
        <ele>102.30900448188</ele>
        <time>2021-12-21T13:41:15Z</time>
      </trkpt>
      <trkpt lat="48.84229" lon="1.90407">
        <ele>102.05554508138</ele>
        <time>2021-12-21T13:41:18Z</time>
      </trkpt>
      <trkpt lat="48.8423" lon="1.9041">
        <ele>102.4819571143</ele>
        <time>2021-12-21T13:41:20Z</time>
      </trkpt>
      <trkpt lat="48.84229" lon="1.90413">
        <ele>102.78737811279</ele>
        <time>2021-12-21T13:41:22Z</time>
      </trkpt>
      <trkpt lat="48.8423" lon="1.90416">
        <ele>103.03074613586</ele>
        <time>2021-12-21T13:41:24Z</time>
      </trkpt>
      <trkpt lat="48.84229" lon="1.90418">
        <ele>103.27009480819</ele>
        <time>2021-12-21T13:41:26Z</time>
      </trkpt>
      <trkpt lat="48.84229" lon="1.90423">
        <ele>103.35666488111</ele>
        <time>2021-12-21T13:41:29Z</time>
      </trkpt>
      <trkpt lat="48.84229" lon="1.90427">
        <ele>103.40946021117</ele>
        <time>2021-12-21T13:41:31Z</time>
      </trkpt>
      <trkpt lat="48.84228" lon="1.90429">
        <ele>104.03886043746</ele>
        <time>2021-12-21T13:41:32Z</time>
      </trkpt>
      <trkpt lat="48.84228" lon="1.90432">
        <ele>104.25390332472</ele>
        <time>2021-12-21T13:41:34Z</time>
      </trkpt>
      <trkpt lat="48.84228" lon="1.90436">
        <ele>104.16889170744</ele>
        <time>2021-12-21T13:41:36Z</time>
      </trkpt>
      <trkpt lat="48.84228" lon="1.9044">
        <ele>104.16257947311</ele>
        <time>2021-12-21T13:41:38Z</time>
      </trkpt>
      <trkpt lat="48.8423" lon="1.90444">
        <ele>104.13445054553</ele>
        <time>2021-12-21T13:41:40Z</time>
      </trkpt>
      <trkpt lat="48.84229" lon="1.90447">
        <ele>104.41425815318</ele>
        <time>2021-12-21T13:41:42Z</time>
      </trkpt>
      <trkpt lat="48.84229" lon="1.90451">
        <ele>104.33001340088</ele>
        <time>2021-12-21T13:41:44Z</time>
      </trkpt>
      <trkpt lat="48.84229" lon="1.90454">
        <ele>104.09846607223</ele>
        <time>2021-12-21T13:41:46Z</time>
      </trkpt>
      <trkpt lat="48.84229" lon="1.90458">
        <ele>104.1772508435</ele>
        <time>2021-12-21T13:41:48Z</time>
      </trkpt>
      <trkpt lat="48.8423" lon="1.90462">
        <ele>104.2425776124</ele>
        <time>2021-12-21T13:41:50Z</time>
      </trkpt>
      <trkpt lat="48.8423" lon="1.90466">
        <ele>104.08702199627</ele>
        <time>2021-12-21T13:41:52Z</time>
      </trkpt>
      <trkpt lat="48.84231" lon="1.90469">
        <ele>104.1861622287</ele>
        <time>2021-12-21T13:41:54Z</time>
      </trkpt>
      <trkpt lat="48.8423" lon="1.90473">
        <ele>104.23804897815</ele>
        <time>2021-12-21T13:41:56Z</time>
      </trkpt>
      <trkpt lat="48.84231" lon="1.90475">
        <ele>104.24902836327</ele>
        <time>2021-12-21T13:41:58Z</time>
      </trkpt>
      <trkpt lat="48.8423" lon="1.90479">
        <ele>104.24524591211</ele>
        <time>2021-12-21T13:42:00Z</time>
      </trkpt>
      <trkpt lat="48.8423" lon="1.90482">
        <ele>104.41141246259</ele>
        <time>2021-12-21T13:42:02Z</time>
      </trkpt>
      <trkpt lat="48.8423" lon="1.90484">
        <ele>104.53872719686</ele>
        <time>2021-12-21T13:42:04Z</time>
      </trkpt>
      <trkpt lat="48.84229" lon="1.90487">
        <ele>104.72237433586</ele>
        <time>2021-12-21T13:42:06Z</time>
      </trkpt>
      <trkpt lat="48.8423" lon="1.90491">
        <ele>104.6829964947</ele>
        <time>2021-12-21T13:42:09Z</time>
      </trkpt>
      <trkpt lat="48.8423" lon="1.90494">
        <ele>104.87832163461</ele>
        <time>2021-12-21T13:42:11Z</time>
      </trkpt>
      <trkpt lat="48.84229" lon="1.90497">
        <ele>105.28714378737</ele>
        <time>2021-12-21T13:42:14Z</time>
      </trkpt>
      <trkpt lat="48.84228" lon="1.90499">
        <ele>105.15533522423</ele>
        <time>2021-12-21T13:42:16Z</time>
      </trkpt>
      <trkpt lat="48.84227" lon="1.90501">
        <ele>104.94692209549</ele>
        <time>2021-12-21T13:42:18Z</time>
      </trkpt>
      <trkpt lat="48.84226" lon="1.90504">
        <ele>104.81186975818</ele>
        <time>2021-12-21T13:42:20Z</time>
      </trkpt>
      <trkpt lat="48.84225" lon="1.90507">
        <ele>104.78109841235</ele>
        <time>2021-12-21T13:42:22Z</time>
      </trkpt>
      <trkpt lat="48.84224" lon="1.9051">
        <ele>105.01777907647</ele>
        <time>2021-12-21T13:42:24Z</time>
      </trkpt>
      <trkpt lat="48.84224" lon="1.90513">
        <ele>104.94262818899</ele>
        <time>2021-12-21T13:42:26Z</time>
      </trkpt>
      <trkpt lat="48.84224" lon="1.90517">
        <ele>104.8290795302</ele>
        <time>2021-12-21T13:42:28Z</time>
      </trkpt>
      <trkpt lat="48.84221" lon="1.90519">
        <ele>105.26449838746</ele>
        <time>2021-12-21T13:42:30Z</time>
      </trkpt>
      <trkpt lat="48.84221" lon="1.90522">
        <ele>105.51861180738</ele>
        <time>2021-12-21T13:42:32Z</time>
      </trkpt>
      <trkpt lat="48.84219" lon="1.90525">
        <ele>105.57931055687</ele>
        <time>2021-12-21T13:42:34Z</time>
      </trkpt>
      <trkpt lat="48.84218" lon="1.90527">
        <ele>105.45114361402</ele>
        <time>2021-12-21T13:42:36Z</time>
      </trkpt>
      <trkpt lat="48.84217" lon="1.9053">
        <ele>105.35857203603</ele>
        <time>2021-12-21T13:42:38Z</time>
      </trkpt>
      <trkpt lat="48.84216" lon="1.90533">
        <ele>105.17433938663</ele>
        <time>2021-12-21T13:42:40Z</time>
      </trkpt>
      <trkpt lat="48.84215" lon="1.90535">
        <ele>105.14039410185</ele>
        <time>2021-12-21T13:42:42Z</time>
      </trkpt>
      <trkpt lat="48.84215" lon="1.90538">
        <ele>105.25881693978</ele>
        <time>2021-12-21T13:42:44Z</time>
      </trkpt>
      <trkpt lat="48.84214" lon="1.90542">
        <ele>105.54471328948</ele>
        <time>2021-12-21T13:42:46Z</time>
      </trkpt>
      <trkpt lat="48.84214" lon="1.90546">
        <ele>105.65329724178</ele>
        <time>2021-12-21T13:42:48Z</time>
      </trkpt>
      <trkpt lat="48.84214" lon="1.9055">
        <ele>106.15131592192</ele>
        <time>2021-12-21T13:42:50Z</time>
      </trkpt>
      <trkpt lat="48.84213" lon="1.90553">
        <ele>105.98926454037</ele>
        <time>2021-12-21T13:42:52Z</time>
      </trkpt>
      <trkpt lat="48.84212" lon="1.90557">
        <ele>106.12549850345</ele>
        <time>2021-12-21T13:42:54Z</time>
      </trkpt>
      <trkpt lat="48.84212" lon="1.90561">
        <ele>105.92182188854</ele>
        <time>2021-12-21T13:42:56Z</time>
      </trkpt>
      <trkpt lat="48.84211" lon="1.90566">
        <ele>106.14499346726</ele>
        <time>2021-12-21T13:42:58Z</time>
      </trkpt>
      <trkpt lat="48.84212" lon="1.90569">
        <ele>106.3614878431</ele>
        <time>2021-12-21T13:43:00Z</time>
      </trkpt>
      <trkpt lat="48.84211" lon="1.90571">
        <ele>106.82075284049</ele>
        <time>2021-12-21T13:43:02Z</time>
      </trkpt>
      <trkpt lat="48.84211" lon="1.90575">
        <ele>107.06368327234</ele>
        <time>2021-12-21T13:43:04Z</time>
      </trkpt>
      <trkpt lat="48.8421" lon="1.90578">
        <ele>107.23917620908</ele>
        <time>2021-12-21T13:43:07Z</time>
      </trkpt>
      <trkpt lat="48.8421" lon="1.90582">
        <ele>107.39521728829</ele>
        <time>2021-12-21T13:43:09Z</time>
      </trkpt>
      <trkpt lat="48.8421" lon="1.90585">
        <ele>107.45153173432</ele>
        <time>2021-12-21T13:43:11Z</time>
      </trkpt>
      <trkpt lat="48.8421" lon="1.90589">
        <ele>107.83315964602</ele>
        <time>2021-12-21T13:43:13Z</time>
      </trkpt>
      <trkpt lat="48.84211" lon="1.90592">
        <ele>107.88738779724</ele>
        <time>2021-12-21T13:43:15Z</time>
      </trkpt>
      <trkpt lat="48.84211" lon="1.90596">
        <ele>108.45452446397</ele>
        <time>2021-12-21T13:43:18Z</time>
      </trkpt>
      <trkpt lat="48.8421" lon="1.90599">
        <ele>108.57586219348</ele>
        <time>2021-12-21T13:43:20Z</time>
      </trkpt>
      <trkpt lat="48.84211" lon="1.90602">
        <ele>108.83502433822</ele>
        <time>2021-12-21T13:43:22Z</time>
      </trkpt>
      <trkpt lat="48.84212" lon="1.90606">
        <ele>108.73160093091</ele>
        <time>2021-12-21T13:43:25Z</time>
      </trkpt>
      <trkpt lat="48.84212" lon="1.90609">
        <ele>109.11183178797</ele>
        <time>2021-12-21T13:43:27Z</time>
      </trkpt>
      <trkpt lat="48.84213" lon="1.90613">
        <ele>109.70309290849</ele>
        <time>2021-12-21T13:43:29Z</time>
      </trkpt>
      <trkpt lat="48.84213" lon="1.90616">
        <ele>109.73066446371</ele>
        <time>2021-12-21T13:43:31Z</time>
      </trkpt>
      <trkpt lat="48.84213" lon="1.9062">
        <ele>109.94648796041</ele>
        <time>2021-12-21T13:43:33Z</time>
      </trkpt>
      <trkpt lat="48.84212" lon="1.90623">
        <ele>109.73513523117</ele>
        <time>2021-12-21T13:43:35Z</time>
      </trkpt>
      <trkpt lat="48.84212" lon="1.90628">
        <ele>109.84838451631</ele>
        <time>2021-12-21T13:43:37Z</time>
      </trkpt>
      <trkpt lat="48.84212" lon="1.90631">
        <ele>109.88511099759</ele>
        <time>2021-12-21T13:43:39Z</time>
      </trkpt>
      <trkpt lat="48.84212" lon="1.90635">
        <ele>110.08331454638</ele>
        <time>2021-12-21T13:43:41Z</time>
      </trkpt>
      <trkpt lat="48.84212" lon="1.90639">
        <ele>110.37887721229</ele>
        <time>2021-12-21T13:43:44Z</time>
      </trkpt>
      <trkpt lat="48.84212" lon="1.90643">
        <ele>110.471378861</ele>
        <time>2021-12-21T13:43:54Z</time>
      </trkpt>
      <trkpt lat="48.84212" lon="1.90646">
        <ele>110.76687912177</ele>
        <time>2021-12-21T13:43:57Z</time>
      </trkpt>
      <trkpt lat="48.8421" lon="1.90649">
        <ele>110.551782378</ele>
        <time>2021-12-21T13:43:59Z</time>
      </trkpt>
      <trkpt lat="48.8421" lon="1.90653">
        <ele>110.72697551269</ele>
        <time>2021-12-21T13:44:02Z</time>
      </trkpt>
      <trkpt lat="48.84208" lon="1.90656">
        <ele>110.57998836972</ele>
        <time>2021-12-21T13:44:04Z</time>
      </trkpt>
      <trkpt lat="48.84207" lon="1.9066">
        <ele>110.90073443763</ele>
        <time>2021-12-21T13:44:06Z</time>
      </trkpt>
      <trkpt lat="48.84206" lon="1.90664">
        <ele>111.05101240426</ele>
        <time>2021-12-21T13:44:08Z</time>
      </trkpt>
      <trkpt lat="48.84205" lon="1.90668">
        <ele>110.74729218427</ele>
        <time>2021-12-21T13:44:10Z</time>
      </trkpt>
      <trkpt lat="48.84203" lon="1.9067">
        <ele>110.99219396804</ele>
        <time>2021-12-21T13:44:12Z</time>
      </trkpt>
      <trkpt lat="48.84201" lon="1.90674">
        <ele>111.27421610244</ele>
        <time>2021-12-21T13:44:15Z</time>
      </trkpt>
      <trkpt lat="48.842" lon="1.90676">
        <ele>111.33403687365</ele>
        <time>2021-12-21T13:44:17Z</time>
      </trkpt>
      <trkpt lat="48.84198" lon="1.9068">
        <ele>111.436320181</ele>
        <time>2021-12-21T13:44:19Z</time>
      </trkpt>
      <trkpt lat="48.84197" lon="1.90684">
        <ele>111.29998122435</ele>
        <time>2021-12-21T13:44:21Z</time>
      </trkpt>
      <trkpt lat="48.84195" lon="1.90688">
        <ele>111.23387987725</ele>
        <time>2021-12-21T13:44:23Z</time>
      </trkpt>
      <trkpt lat="48.84194" lon="1.90691">
        <ele>111.65914651472</ele>
        <time>2021-12-21T13:44:25Z</time>
      </trkpt>
      <trkpt lat="48.84192" lon="1.90694">
        <ele>111.78018280584</ele>
        <time>2021-12-21T13:44:27Z</time>
      </trkpt>
      <trkpt lat="48.84191" lon="1.90697">
        <ele>111.84873725194</ele>
        <time>2021-12-21T13:44:29Z</time>
      </trkpt>
      <trkpt lat="48.8419" lon="1.90699">
        <ele>111.70644744299</ele>
        <time>2021-12-21T13:44:31Z</time>
      </trkpt>
      <trkpt lat="48.84189" lon="1.90702">
        <ele>111.25474501587</ele>
        <time>2021-12-21T13:44:35Z</time>
      </trkpt>
      <trkpt lat="48.84188" lon="1.90705">
        <ele>111.13461504318</ele>
        <time>2021-12-21T13:44:37Z</time>
      </trkpt>
      <trkpt lat="48.84186" lon="1.90708">
        <ele>111.5411732439</ele>
        <time>2021-12-21T13:44:39Z</time>
      </trkpt>
      <trkpt lat="48.84185" lon="1.90711">
        <ele>111.62411324866</ele>
        <time>2021-12-21T13:44:42Z</time>
      </trkpt>
      <trkpt lat="48.84184" lon="1.90713">
        <ele>111.65893486328</ele>
        <time>2021-12-21T13:44:44Z</time>
      </trkpt>
      <trkpt lat="48.84182" lon="1.90716">
        <ele>111.33416068275</ele>
        <time>2021-12-21T13:44:46Z</time>
      </trkpt>
      <trkpt lat="48.84182" lon="1.90718">
        <ele>111.38031012937</ele>
        <time>2021-12-21T13:44:48Z</time>
      </trkpt>
      <trkpt lat="48.8418" lon="1.90721">
        <ele>111.66765837558</ele>
        <time>2021-12-21T13:44:50Z</time>
      </trkpt>
      <trkpt lat="48.84177" lon="1.90723">
        <ele>111.94797795545</ele>
        <time>2021-12-21T13:44:52Z</time>
      </trkpt>
      <trkpt lat="48.84176" lon="1.90726">
        <ele>111.89284058381</ele>
        <time>2021-12-21T13:44:54Z</time>
      </trkpt>
      <trkpt lat="48.84174" lon="1.90729">
        <ele>112.06694918498</ele>
        <time>2021-12-21T13:44:56Z</time>
      </trkpt>
      <trkpt lat="48.84172" lon="1.90732">
        <ele>112.10838398989</ele>
        <time>2021-12-21T13:44:58Z</time>
      </trkpt>
      <trkpt lat="48.8417" lon="1.90735">
        <ele>112.22098967899</ele>
        <time>2021-12-21T13:45:00Z</time>
      </trkpt>
      <trkpt lat="48.84169" lon="1.90738">
        <ele>112.23067227099</ele>
        <time>2021-12-21T13:45:02Z</time>
      </trkpt>
      <trkpt lat="48.84167" lon="1.9074">
        <ele>112.03815032169</ele>
        <time>2021-12-21T13:45:04Z</time>
      </trkpt>
      <trkpt lat="48.84165" lon="1.90744">
        <ele>112.28419579193</ele>
        <time>2021-12-21T13:45:06Z</time>
      </trkpt>
      <trkpt lat="48.84164" lon="1.90745">
        <ele>112.52645761427</ele>
        <time>2021-12-21T13:45:08Z</time>
      </trkpt>
      <trkpt lat="48.84163" lon="1.90748">
        <ele>112.45295973495</ele>
        <time>2021-12-21T13:45:10Z</time>
      </trkpt>
      <trkpt lat="48.84161" lon="1.90751">
        <ele>112.31347616483</ele>
        <time>2021-12-21T13:45:12Z</time>
      </trkpt>
      <trkpt lat="48.8416" lon="1.90754">
        <ele>111.9199282527</ele>
        <time>2021-12-21T13:45:14Z</time>
      </trkpt>
      <trkpt lat="48.84158" lon="1.90757">
        <ele>112.07209674362</ele>
        <time>2021-12-21T13:45:16Z</time>
      </trkpt>
      <trkpt lat="48.84156" lon="1.9076">
        <ele>111.54893662501</ele>
        <time>2021-12-21T13:45:19Z</time>
      </trkpt>
      <trkpt lat="48.84154" lon="1.90762">
        <ele>111.59161434509</ele>
        <time>2021-12-21T13:45:21Z</time>
      </trkpt>
      <trkpt lat="48.84152" lon="1.90765">
        <ele>111.37744397856</ele>
        <time>2021-12-21T13:45:23Z</time>
      </trkpt>
      <trkpt lat="48.84151" lon="1.90768">
        <ele>111.24923938047</ele>
        <time>2021-12-21T13:45:25Z</time>
      </trkpt>
      <trkpt lat="48.8415" lon="1.90771">
        <ele>111.0411196826</ele>
        <time>2021-12-21T13:45:27Z</time>
      </trkpt>
      <trkpt lat="48.84149" lon="1.90774">
        <ele>111.1444683345</ele>
        <time>2021-12-21T13:45:29Z</time>
      </trkpt>
      <trkpt lat="48.84147" lon="1.90777">
        <ele>110.86438918021</ele>
        <time>2021-12-21T13:45:31Z</time>
      </trkpt>
      <trkpt lat="48.84146" lon="1.9078">
        <ele>110.98881766759</ele>
        <time>2021-12-21T13:45:33Z</time>
      </trkpt>
      <trkpt lat="48.84144" lon="1.90783">
        <ele>110.64949775208</ele>
        <time>2021-12-21T13:45:35Z</time>
      </trkpt>
      <trkpt lat="48.84143" lon="1.90786">
        <ele>110.78110607248</ele>
        <time>2021-12-21T13:45:37Z</time>
      </trkpt>
      <trkpt lat="48.84142" lon="1.90789">
        <ele>110.71942061558</ele>
        <time>2021-12-21T13:45:38Z</time>
      </trkpt>
      <trkpt lat="48.8414" lon="1.90791">
        <ele>110.84472949151</ele>
        <time>2021-12-21T13:45:40Z</time>
      </trkpt>
      <trkpt lat="48.84138" lon="1.90794">
        <ele>110.91480384581</ele>
        <time>2021-12-21T13:45:42Z</time>
      </trkpt>
      <trkpt lat="48.84136" lon="1.90796">
        <ele>111.0419383049</ele>
        <time>2021-12-21T13:45:44Z</time>
      </trkpt>
      <trkpt lat="48.84134" lon="1.90799">
        <ele>110.7324827332</ele>
        <time>2021-12-21T13:45:46Z</time>
      </trkpt>
      <trkpt lat="48.84133" lon="1.90803">
        <ele>110.31971908733</ele>
        <time>2021-12-21T13:45:48Z</time>
      </trkpt>
      <trkpt lat="48.84132" lon="1.90805">
        <ele>110.07344917674</ele>
        <time>2021-12-21T13:45:50Z</time>
      </trkpt>
      <trkpt lat="48.84131" lon="1.90807">
        <ele>110.12706124317</ele>
        <time>2021-12-21T13:45:52Z</time>
      </trkpt>
      <trkpt lat="48.84129" lon="1.9081">
        <ele>110.26305158902</ele>
        <time>2021-12-21T13:45:54Z</time>
      </trkpt>
      <trkpt lat="48.84128" lon="1.90812">
        <ele>110.8277887553</ele>
        <time>2021-12-21T13:45:56Z</time>
      </trkpt>
      <trkpt lat="48.84127" lon="1.90816">
        <ele>111.16987459827</ele>
        <time>2021-12-21T13:45:59Z</time>
      </trkpt>
      <trkpt lat="48.84126" lon="1.90819">
        <ele>111.41328726243</ele>
        <time>2021-12-21T13:46:01Z</time>
      </trkpt>
      <trkpt lat="48.84125" lon="1.90822">
        <ele>111.5244497247</ele>
        <time>2021-12-21T13:46:03Z</time>
      </trkpt>
      <trkpt lat="48.84125" lon="1.90825">
        <ele>112.03418862633</ele>
        <time>2021-12-21T13:46:04Z</time>
      </trkpt>
      <trkpt lat="48.84124" lon="1.90828">
        <ele>111.90210828371</ele>
        <time>2021-12-21T13:46:06Z</time>
      </trkpt>
      <trkpt lat="48.84123" lon="1.90832">
        <ele>112.26237513218</ele>
        <time>2021-12-21T13:46:08Z</time>
      </trkpt>
      <trkpt lat="48.84121" lon="1.90835">
        <ele>112.23463879246</ele>
        <time>2021-12-21T13:46:10Z</time>
      </trkpt>
      <trkpt lat="48.84119" lon="1.90837">
        <ele>112.14698617253</ele>
        <time>2021-12-21T13:46:12Z</time>
      </trkpt>
      <trkpt lat="48.84118" lon="1.90839">
        <ele>112.37688416708</ele>
        <time>2021-12-21T13:46:13Z</time>
      </trkpt>
      <trkpt lat="48.84116" lon="1.90841">
        <ele>112.15956756752</ele>
        <time>2021-12-21T13:46:15Z</time>
      </trkpt>
      <trkpt lat="48.84115" lon="1.90845">
        <ele>112.01268824469</ele>
        <time>2021-12-21T13:46:17Z</time>
      </trkpt>
      <trkpt lat="48.84113" lon="1.90848">
        <ele>111.65120305307</ele>
        <time>2021-12-21T13:46:19Z</time>
      </trkpt>
      <trkpt lat="48.84111" lon="1.9085">
        <ele>111.50971596129</ele>
        <time>2021-12-21T13:46:21Z</time>
      </trkpt>
      <trkpt lat="48.84109" lon="1.90853">
        <ele>111.38049361762</ele>
        <time>2021-12-21T13:46:23Z</time>
      </trkpt>
      <trkpt lat="48.84108" lon="1.90856">
        <ele>111.73646396399</ele>
        <time>2021-12-21T13:46:25Z</time>
      </trkpt>
      <trkpt lat="48.84107" lon="1.90859">
        <ele>111.87124473788</ele>
        <time>2021-12-21T13:46:27Z</time>
      </trkpt>
      <trkpt lat="48.84105" lon="1.90862">
        <ele>111.80568567291</ele>
        <time>2021-12-21T13:46:30Z</time>
      </trkpt>
      <trkpt lat="48.84104" lon="1.90865">
        <ele>111.47520866245</ele>
        <time>2021-12-21T13:46:33Z</time>
      </trkpt>
      <trkpt lat="48.84103" lon="1.90868">
        <ele>111.44978333637</ele>
        <time>2021-12-21T13:46:35Z</time>
      </trkpt>
      <trkpt lat="48.84103" lon="1.90873">
        <ele>111.77114858851</ele>
        <time>2021-12-21T13:46:37Z</time>
      </trkpt>
      <trkpt lat="48.84102" lon="1.90877">
        <ele>112.18569906708</ele>
        <time>2021-12-21T13:46:39Z</time>
      </trkpt>
      <trkpt lat="48.84101" lon="1.90881">
        <ele>112.24303355254</ele>
        <time>2021-12-21T13:46:42Z</time>
      </trkpt>
      <trkpt lat="48.84101" lon="1.90885">
        <ele>112.12825658917</ele>
        <time>2021-12-21T13:46:46Z</time>
      </trkpt>
      <trkpt lat="48.84101" lon="1.90888">
        <ele>112.30353983957</ele>
        <time>2021-12-21T13:46:48Z</time>
      </trkpt>
      <trkpt lat="48.841" lon="1.90892">
        <ele>112.31336217839</ele>
        <time>2021-12-21T13:46:50Z</time>
      </trkpt>
      <trkpt lat="48.84098" lon="1.90896">
        <ele>112.54995493963</ele>
        <time>2021-12-21T13:46:52Z</time>
      </trkpt>
      <trkpt lat="48.84096" lon="1.909">
        <ele>112.60407974198</ele>
        <time>2021-12-21T13:46:54Z</time>
      </trkpt>
      <trkpt lat="48.84096" lon="1.90903">
        <ele>112.87351427972</ele>
        <time>2021-12-21T13:46:56Z</time>
      </trkpt>
      <trkpt lat="48.84095" lon="1.90906">
        <ele>112.96086767782</ele>
        <time>2021-12-21T13:46:58Z</time>
      </trkpt>
      <trkpt lat="48.84094" lon="1.9091">
        <ele>113.01816952508</ele>
        <time>2021-12-21T13:47:01Z</time>
      </trkpt>
      <trkpt lat="48.84093" lon="1.90914">
        <ele>113.1615671562</ele>
        <time>2021-12-21T13:47:03Z</time>
      </trkpt>
      <trkpt lat="48.84093" lon="1.90917">
        <ele>113.19346288126</ele>
        <time>2021-12-21T13:47:05Z</time>
      </trkpt>
      <trkpt lat="48.84093" lon="1.90921">
        <ele>113.25924760196</ele>
        <time>2021-12-21T13:47:07Z</time>
      </trkpt>
      <trkpt lat="48.84093" lon="1.90925">
        <ele>113.26308453176</ele>
        <time>2021-12-21T13:47:09Z</time>
      </trkpt>
      <trkpt lat="48.84093" lon="1.90928">
        <ele>113.31222128775</ele>
        <time>2021-12-21T13:47:11Z</time>
      </trkpt>
      <trkpt lat="48.84091" lon="1.90932">
        <ele>113.4537875941</ele>
        <time>2021-12-21T13:47:14Z</time>
      </trkpt>
      <trkpt lat="48.84092" lon="1.90937">
        <ele>114.07122407295</ele>
        <time>2021-12-21T13:47:17Z</time>
      </trkpt>
      <trkpt lat="48.8409" lon="1.90939">
        <ele>113.80750176683</ele>
        <time>2021-12-21T13:47:19Z</time>
      </trkpt>
      <trkpt lat="48.84089" lon="1.90941">
        <ele>113.79718193505</ele>
        <time>2021-12-21T13:47:21Z</time>
      </trkpt>
      <trkpt lat="48.84088" lon="1.90945">
        <ele>113.77247626428</ele>
        <time>2021-12-21T13:47:23Z</time>
      </trkpt>
      <trkpt lat="48.84088" lon="1.90948">
        <ele>113.77026412915</ele>
        <time>2021-12-21T13:47:25Z</time>
      </trkpt>
      <trkpt lat="48.84087" lon="1.90952">
        <ele>113.97634394653</ele>
        <time>2021-12-21T13:47:27Z</time>
      </trkpt>
      <trkpt lat="48.84086" lon="1.90956">
        <ele>113.90272427164</ele>
        <time>2021-12-21T13:47:29Z</time>
      </trkpt>
      <trkpt lat="48.84084" lon="1.90958">
        <ele>113.74921105895</ele>
        <time>2021-12-21T13:47:31Z</time>
      </trkpt>
      <trkpt lat="48.84083" lon="1.90962">
        <ele>113.5995941218</ele>
        <time>2021-12-21T13:47:33Z</time>
      </trkpt>
      <trkpt lat="48.84082" lon="1.90966">
        <ele>113.54892727919</ele>
        <time>2021-12-21T13:47:35Z</time>
      </trkpt>
      <trkpt lat="48.84082" lon="1.90968">
        <ele>113.41543301474</ele>
        <time>2021-12-21T13:47:37Z</time>
      </trkpt>
      <trkpt lat="48.8408" lon="1.90972">
        <ele>113.03734456189</ele>
        <time>2021-12-21T13:47:39Z</time>
      </trkpt>
      <trkpt lat="48.84078" lon="1.90975">
        <ele>113.32634771615</ele>
        <time>2021-12-21T13:47:42Z</time>
      </trkpt>
      <trkpt lat="48.84078" lon="1.90978">
        <ele>113.50931028649</ele>
        <time>2021-12-21T13:47:44Z</time>
      </trkpt>
      <trkpt lat="48.84077" lon="1.90981">
        <ele>113.57253507804</ele>
        <time>2021-12-21T13:47:46Z</time>
      </trkpt>
      <trkpt lat="48.84076" lon="1.90985">
        <ele>113.63822825812</ele>
        <time>2021-12-21T13:47:48Z</time>
      </trkpt>
      <trkpt lat="48.84075" lon="1.90988">
        <ele>113.6833392363</ele>
        <time>2021-12-21T13:47:50Z</time>
      </trkpt>
      <trkpt lat="48.84075" lon="1.90993">
        <ele>114.09629825596</ele>
        <time>2021-12-21T13:47:52Z</time>
      </trkpt>
      <trkpt lat="48.84075" lon="1.90996">
        <ele>114.10652115662</ele>
        <time>2021-12-21T13:47:54Z</time>
      </trkpt>
      <trkpt lat="48.84075" lon="1.91001">
        <ele>114.03179511614</ele>
        <time>2021-12-21T13:47:56Z</time>
      </trkpt>
      <trkpt lat="48.84074" lon="1.91004">
        <ele>113.9198979307</ele>
        <time>2021-12-21T13:47:58Z</time>
      </trkpt>
      <trkpt lat="48.84075" lon="1.91006">
        <ele>113.90875299368</ele>
        <time>2021-12-21T13:47:59Z</time>
      </trkpt>
      <trkpt lat="48.84074" lon="1.9101">
        <ele>114.02390228771</ele>
        <time>2021-12-21T13:48:01Z</time>
      </trkpt>
      <trkpt lat="48.84073" lon="1.91013">
        <ele>113.95912753046</ele>
        <time>2021-12-21T13:48:03Z</time>
      </trkpt>
      <trkpt lat="48.84072" lon="1.91017">
        <ele>114.04244543985</ele>
        <time>2021-12-21T13:48:05Z</time>
      </trkpt>
      <trkpt lat="48.84071" lon="1.9102">
        <ele>114.57450267859</ele>
        <time>2021-12-21T13:48:08Z</time>
      </trkpt>
      <trkpt lat="48.8407" lon="1.91025">
        <ele>114.4427824961</ele>
        <time>2021-12-21T13:48:12Z</time>
      </trkpt>
      <trkpt lat="48.8407" lon="1.91029">
        <ele>114.67838273384</ele>
        <time>2021-12-21T13:48:15Z</time>
      </trkpt>
      <trkpt lat="48.8407" lon="1.91033">
        <ele>114.62904055137</ele>
        <time>2021-12-21T13:48:17Z</time>
      </trkpt>
      <trkpt lat="48.84069" lon="1.91037">
        <ele>114.63125212677</ele>
        <time>2021-12-21T13:48:19Z</time>
      </trkpt>
      <trkpt lat="48.84068" lon="1.91042">
        <ele>114.37824132945</ele>
        <time>2021-12-21T13:48:21Z</time>
      </trkpt>
      <trkpt lat="48.84067" lon="1.91046">
        <ele>114.18067418411</ele>
        <time>2021-12-21T13:48:23Z</time>
      </trkpt>
      <trkpt lat="48.84067" lon="1.9105">
        <ele>114.21287661791</ele>
        <time>2021-12-21T13:48:25Z</time>
      </trkpt>
      <trkpt lat="48.84066" lon="1.91053">
        <ele>114.37328895554</ele>
        <time>2021-12-21T13:48:26Z</time>
      </trkpt>
      <trkpt lat="48.84065" lon="1.91056">
        <ele>114.42249328922</ele>
        <time>2021-12-21T13:48:28Z</time>
      </trkpt>
      <trkpt lat="48.84064" lon="1.9106">
        <ele>114.44485263154</ele>
        <time>2021-12-21T13:48:30Z</time>
      </trkpt>
      <trkpt lat="48.84063" lon="1.91064">
        <ele>114.70520704612</ele>
        <time>2021-12-21T13:48:32Z</time>
      </trkpt>
      <trkpt lat="48.84063" lon="1.91067">
        <ele>114.57476670109</ele>
        <time>2021-12-21T13:48:34Z</time>
      </trkpt>
      <trkpt lat="48.84062" lon="1.91071">
        <ele>114.52845250349</ele>
        <time>2021-12-21T13:48:36Z</time>
      </trkpt>
      <trkpt lat="48.84062" lon="1.91074">
        <ele>114.24441018421</ele>
        <time>2021-12-21T13:48:38Z</time>
      </trkpt>
      <trkpt lat="48.84061" lon="1.91077">
        <ele>113.82791593485</ele>
        <time>2021-12-21T13:48:40Z</time>
      </trkpt>
      <trkpt lat="48.84061" lon="1.91079">
        <ele>113.65189548675</ele>
        <time>2021-12-21T13:48:42Z</time>
      </trkpt>
      <trkpt lat="48.8406" lon="1.91082">
        <ele>113.73291265965</ele>
        <time>2021-12-21T13:48:44Z</time>
      </trkpt>
      <trkpt lat="48.84059" lon="1.91085">
        <ele>113.82936014049</ele>
        <time>2021-12-21T13:48:46Z</time>
      </trkpt>
      <trkpt lat="48.84058" lon="1.9109">
        <ele>114.27490734868</ele>
        <time>2021-12-21T13:48:48Z</time>
      </trkpt>
      <trkpt lat="48.84057" lon="1.91093">
        <ele>114.26092865318</ele>
        <time>2021-12-21T13:48:50Z</time>
      </trkpt>
      <trkpt lat="48.84056" lon="1.91097">
        <ele>114.50149195921</ele>
        <time>2021-12-21T13:48:52Z</time>
      </trkpt>
      <trkpt lat="48.84055" lon="1.911">
        <ele>114.55946853571</ele>
        <time>2021-12-21T13:48:54Z</time>
      </trkpt>
      <trkpt lat="48.84055" lon="1.91104">
        <ele>114.59338188451</ele>
        <time>2021-12-21T13:48:56Z</time>
      </trkpt>
      <trkpt lat="48.84053" lon="1.91108">
        <ele>114.70963852573</ele>
        <time>2021-12-21T13:48:58Z</time>
      </trkpt>
      <trkpt lat="48.84053" lon="1.91111">
        <ele>114.83080120385</ele>
        <time>2021-12-21T13:49:00Z</time>
      </trkpt>
      <trkpt lat="48.84052" lon="1.91115">
        <ele>114.75853167567</ele>
        <time>2021-12-21T13:49:02Z</time>
      </trkpt>
      <trkpt lat="48.84051" lon="1.91118">
        <ele>114.76954981033</ele>
        <time>2021-12-21T13:49:04Z</time>
      </trkpt>
      <trkpt lat="48.84051" lon="1.91123">
        <ele>115.05395420175</ele>
        <time>2021-12-21T13:49:06Z</time>
      </trkpt>
      <trkpt lat="48.8405" lon="1.91125">
        <ele>115.23781166133</ele>
        <time>2021-12-21T13:49:07Z</time>
      </trkpt>
      <trkpt lat="48.84049" lon="1.91129">
        <ele>115.37617042661</ele>
        <time>2021-12-21T13:49:09Z</time>
      </trkpt>
      <trkpt lat="48.84048" lon="1.91133">
        <ele>115.22841327544</ele>
        <time>2021-12-21T13:49:12Z</time>
      </trkpt>
      <trkpt lat="48.84048" lon="1.91137">
        <ele>115.18883789331</ele>
        <time>2021-12-21T13:49:14Z</time>
      </trkpt>
      <trkpt lat="48.84047" lon="1.9114">
        <ele>115.14849316608</ele>
        <time>2021-12-21T13:49:16Z</time>
      </trkpt>
      <trkpt lat="48.84046" lon="1.91143">
        <ele>114.91377912834</ele>
        <time>2021-12-21T13:49:18Z</time>
      </trkpt>
      <trkpt lat="48.84046" lon="1.91147">
        <ele>115.11479939613</ele>
        <time>2021-12-21T13:49:20Z</time>
      </trkpt>
      <trkpt lat="48.84045" lon="1.91151">
        <ele>115.01894037891</ele>
        <time>2021-12-21T13:49:22Z</time>
      </trkpt>
      <trkpt lat="48.84044" lon="1.91155">
        <ele>115.08966812864</ele>
        <time>2021-12-21T13:49:24Z</time>
      </trkpt>
      <trkpt lat="48.84044" lon="1.9116">
        <ele>114.97410856094</ele>
        <time>2021-12-21T13:49:26Z</time>
      </trkpt>
      <trkpt lat="48.84043" lon="1.91164">
        <ele>114.72253682837</ele>
        <time>2021-12-21T13:49:28Z</time>
      </trkpt>
      <trkpt lat="48.84042" lon="1.91167">
        <ele>114.34052008204</ele>
        <time>2021-12-21T13:49:30Z</time>
      </trkpt>
      <trkpt lat="48.84042" lon="1.91172">
        <ele>114.39237539936</ele>
        <time>2021-12-21T13:49:32Z</time>
      </trkpt>
      <trkpt lat="48.84042" lon="1.91176">
        <ele>114.54406257533</ele>
        <time>2021-12-21T13:49:34Z</time>
      </trkpt>
      <trkpt lat="48.84041" lon="1.91179">
        <ele>114.60590489954</ele>
        <time>2021-12-21T13:49:36Z</time>
      </trkpt>
      <trkpt lat="48.84041" lon="1.91184">
        <ele>114.55251339171</ele>
        <time>2021-12-21T13:49:38Z</time>
      </trkpt>
      <trkpt lat="48.84041" lon="1.91187">
        <ele>114.54886198416</ele>
        <time>2021-12-21T13:49:40Z</time>
      </trkpt>
      <trkpt lat="48.8404" lon="1.9119">
        <ele>114.44546314329</ele>
        <time>2021-12-21T13:49:42Z</time>
      </trkpt>
      <trkpt lat="48.8404" lon="1.91192">
        <ele>114.32255954668</ele>
        <time>2021-12-21T13:49:44Z</time>
      </trkpt>
      <trkpt lat="48.84039" lon="1.91197">
        <ele>114.35002305917</ele>
        <time>2021-12-21T13:49:46Z</time>
      </trkpt>
      <trkpt lat="48.84039" lon="1.91201">
        <ele>114.44823089801</ele>
        <time>2021-12-21T13:49:48Z</time>
      </trkpt>
      <trkpt lat="48.84039" lon="1.91206">
        <ele>114.54188741464</ele>
        <time>2021-12-21T13:49:50Z</time>
      </trkpt>
      <trkpt lat="48.84038" lon="1.9121">
        <ele>114.44195459317</ele>
        <time>2021-12-21T13:49:52Z</time>
      </trkpt>
      <trkpt lat="48.84038" lon="1.91215">
        <ele>114.51467051543</ele>
        <time>2021-12-21T13:49:54Z</time>
      </trkpt>
      <trkpt lat="48.84037" lon="1.91219">
        <ele>114.67712963745</ele>
        <time>2021-12-21T13:49:56Z</time>
      </trkpt>
      <trkpt lat="48.84036" lon="1.91223">
        <ele>114.6022156775</ele>
        <time>2021-12-21T13:49:58Z</time>
      </trkpt>
      <trkpt lat="48.84036" lon="1.91227">
        <ele>114.47437065002</ele>
        <time>2021-12-21T13:50:00Z</time>
      </trkpt>
      <trkpt lat="48.84036" lon="1.9123">
        <ele>114.31010919996</ele>
        <time>2021-12-21T13:50:02Z</time>
      </trkpt>
      <trkpt lat="48.84037" lon="1.91234">
        <ele>114.19295046479</ele>
        <time>2021-12-21T13:50:04Z</time>
      </trkpt>
      <trkpt lat="48.84036" lon="1.91238">
        <ele>114.12184628937</ele>
        <time>2021-12-21T13:50:06Z</time>
      </trkpt>
      <trkpt lat="48.84035" lon="1.91241">
        <ele>114.27758576907</ele>
        <time>2021-12-21T13:50:08Z</time>
      </trkpt>
      <trkpt lat="48.84034" lon="1.91245">
        <ele>113.92681119125</ele>
        <time>2021-12-21T13:50:10Z</time>
      </trkpt>
      <trkpt lat="48.84034" lon="1.91248">
        <ele>114.14084338397</ele>
        <time>2021-12-21T13:50:12Z</time>
      </trkpt>
      <trkpt lat="48.84034" lon="1.91252">
        <ele>114.14795004111</ele>
        <time>2021-12-21T13:50:14Z</time>
      </trkpt>
      <trkpt lat="48.84033" lon="1.91256">
        <ele>114.11322420835</ele>
        <time>2021-12-21T13:50:16Z</time>
      </trkpt>
      <trkpt lat="48.84032" lon="1.9126">
        <ele>113.87483445741</ele>
        <time>2021-12-21T13:50:18Z</time>
      </trkpt>
      <trkpt lat="48.84032" lon="1.91263">
        <ele>113.82745438349</ele>
        <time>2021-12-21T13:50:20Z</time>
      </trkpt>
      <trkpt lat="48.84031" lon="1.91268">
        <ele>113.67241600156</ele>
        <time>2021-12-21T13:50:22Z</time>
      </trkpt>
      <trkpt lat="48.8403" lon="1.91272">
        <ele>113.35000852682</ele>
        <time>2021-12-21T13:50:24Z</time>
      </trkpt>
      <trkpt lat="48.8403" lon="1.91276">
        <ele>113.17481338046</ele>
        <time>2021-12-21T13:50:26Z</time>
      </trkpt>
      <trkpt lat="48.84031" lon="1.9128">
        <ele>112.85317073949</ele>
        <time>2021-12-21T13:50:29Z</time>
      </trkpt>
      <trkpt lat="48.84031" lon="1.91283">
        <ele>112.7531295754</ele>
        <time>2021-12-21T13:50:31Z</time>
      </trkpt>
      <trkpt lat="48.8403" lon="1.91287">
        <ele>112.87870314624</ele>
        <time>2021-12-21T13:50:33Z</time>
      </trkpt>
      <trkpt lat="48.8403" lon="1.91291">
        <ele>112.55222963076</ele>
        <time>2021-12-21T13:50:35Z</time>
      </trkpt>
      <trkpt lat="48.8403" lon="1.91294">
        <ele>112.29369027633</ele>
        <time>2021-12-21T13:50:37Z</time>
      </trkpt>
      <trkpt lat="48.84029" lon="1.91298">
        <ele>112.25604845211</ele>
        <time>2021-12-21T13:50:39Z</time>
      </trkpt>
      <trkpt lat="48.84028" lon="1.91303">
        <ele>112.44076256361</ele>
        <time>2021-12-21T13:50:41Z</time>
      </trkpt>
      <trkpt lat="48.84028" lon="1.91307">
        <ele>112.30353701767</ele>
        <time>2021-12-21T13:50:43Z</time>
      </trkpt>
      <trkpt lat="48.84028" lon="1.91311">
        <ele>112.00055250619</ele>
        <time>2021-12-21T13:50:45Z</time>
      </trkpt>
      <trkpt lat="48.84028" lon="1.91315">
        <ele>111.78399367165</ele>
        <time>2021-12-21T13:50:47Z</time>
      </trkpt>
      <trkpt lat="48.84027" lon="1.91319">
        <ele>111.72898652684</ele>
        <time>2021-12-21T13:50:49Z</time>
      </trkpt>
      <trkpt lat="48.84027" lon="1.91323">
        <ele>111.53158297762</ele>
        <time>2021-12-21T13:50:51Z</time>
      </trkpt>
      <trkpt lat="48.84027" lon="1.91327">
        <ele>111.26568078529</ele>
        <time>2021-12-21T13:50:53Z</time>
      </trkpt>
      <trkpt lat="48.84027" lon="1.91331">
        <ele>110.94594522659</ele>
        <time>2021-12-21T13:50:55Z</time>
      </trkpt>
      <trkpt lat="48.84027" lon="1.91334">
        <ele>110.81572291628</ele>
        <time>2021-12-21T13:50:57Z</time>
      </trkpt>
      <trkpt lat="48.84028" lon="1.91339">
        <ele>110.61844966281</ele>
        <time>2021-12-21T13:50:59Z</time>
      </trkpt>
      <trkpt lat="48.84027" lon="1.91343">
        <ele>110.46738915704</ele>
        <time>2021-12-21T13:51:01Z</time>
      </trkpt>
      <trkpt lat="48.84027" lon="1.91347">
        <ele>110.25046374742</ele>
        <time>2021-12-21T13:51:03Z</time>
      </trkpt>
      <trkpt lat="48.84028" lon="1.9135">
        <ele>110.4460364338</ele>
        <time>2021-12-21T13:51:04Z</time>
      </trkpt>
      <trkpt lat="48.84029" lon="1.91354">
        <ele>110.13446415588</ele>
        <time>2021-12-21T13:51:06Z</time>
      </trkpt>
      <trkpt lat="48.84029" lon="1.91358">
        <ele>110.07919647917</ele>
        <time>2021-12-21T13:51:08Z</time>
      </trkpt>
      <trkpt lat="48.8403" lon="1.91361">
        <ele>110.00573377684</ele>
        <time>2021-12-21T13:51:10Z</time>
      </trkpt>
      <trkpt lat="48.8403" lon="1.91365">
        <ele>109.84060285706</ele>
        <time>2021-12-21T13:51:12Z</time>
      </trkpt>
      <trkpt lat="48.84031" lon="1.91368">
        <ele>109.80084119458</ele>
        <time>2021-12-21T13:51:14Z</time>
      </trkpt>
      <trkpt lat="48.84032" lon="1.91372">
        <ele>110.06595318019</ele>
        <time>2021-12-21T13:51:17Z</time>
      </trkpt>
      <trkpt lat="48.84034" lon="1.91375">
        <ele>110.16542675812</ele>
        <time>2021-12-21T13:51:19Z</time>
      </trkpt>
      <trkpt lat="48.84035" lon="1.91378">
        <ele>109.48219185974</ele>
        <time>2021-12-21T13:51:21Z</time>
      </trkpt>
      <trkpt lat="48.84038" lon="1.91381">
        <ele>109.54726627748</ele>
        <time>2021-12-21T13:51:24Z</time>
      </trkpt>
      <trkpt lat="48.84039" lon="1.91383">
        <ele>109.96389488038</ele>
        <time>2021-12-21T13:51:26Z</time>
      </trkpt>
      <trkpt lat="48.84042" lon="1.91385">
        <ele>110.08569277823</ele>
        <time>2021-12-21T13:51:28Z</time>
      </trkpt>
      <trkpt lat="48.84044" lon="1.91386">
        <ele>110.24381700531</ele>
        <time>2021-12-21T13:51:30Z</time>
      </trkpt>
      <trkpt lat="48.84046" lon="1.91386">
        <ele>110.40076591354</ele>
        <time>2021-12-21T13:51:32Z</time>
      </trkpt>
      <trkpt lat="48.84049" lon="1.91387">
        <ele>110.20154018048</ele>
        <time>2021-12-21T13:51:34Z</time>
      </trkpt>
      <trkpt lat="48.84051" lon="1.91388">
        <ele>110.36419277638</ele>
        <time>2021-12-21T13:51:36Z</time>
      </trkpt>
      <trkpt lat="48.84053" lon="1.9139">
        <ele>110.45062488131</ele>
        <time>2021-12-21T13:51:38Z</time>
      </trkpt>
      <trkpt lat="48.84056" lon="1.91392">
        <ele>110.10709152278</ele>
        <time>2021-12-21T13:51:40Z</time>
      </trkpt>
      <trkpt lat="48.84058" lon="1.91394">
        <ele>110.27661681455</ele>
        <time>2021-12-21T13:51:42Z</time>
      </trkpt>
      <trkpt lat="48.8406" lon="1.91396">
        <ele>110.53715386335</ele>
        <time>2021-12-21T13:51:44Z</time>
      </trkpt>
      <trkpt lat="48.84062" lon="1.91397">
        <ele>110.76383694354</ele>
        <time>2021-12-21T13:51:46Z</time>
      </trkpt>
      <trkpt lat="48.84064" lon="1.91398">
        <ele>110.71249269042</ele>
        <time>2021-12-21T13:51:49Z</time>
      </trkpt>
      <trkpt lat="48.84065" lon="1.914">
        <ele>110.77029617596</ele>
        <time>2021-12-21T13:51:51Z</time>
      </trkpt>
      <trkpt lat="48.84068" lon="1.91401">
        <ele>110.59828746878</ele>
        <time>2021-12-21T13:51:53Z</time>
      </trkpt>
      <trkpt lat="48.8407" lon="1.91403">
        <ele>110.97407949343</ele>
        <time>2021-12-21T13:51:55Z</time>
      </trkpt>
      <trkpt lat="48.84071" lon="1.91405">
        <ele>110.88261281326</ele>
        <time>2021-12-21T13:51:57Z</time>
      </trkpt>
      <trkpt lat="48.84074" lon="1.91407">
        <ele>110.56632903963</ele>
        <time>2021-12-21T13:51:59Z</time>
      </trkpt>
      <trkpt lat="48.84076" lon="1.91408">
        <ele>110.77933308017</ele>
        <time>2021-12-21T13:52:01Z</time>
      </trkpt>
      <trkpt lat="48.84079" lon="1.91409">
        <ele>110.96947516035</ele>
        <time>2021-12-21T13:52:03Z</time>
      </trkpt>
      <trkpt lat="48.84081" lon="1.91411">
        <ele>111.26045825146</ele>
        <time>2021-12-21T13:52:05Z</time>
      </trkpt>
      <trkpt lat="48.84084" lon="1.91413">
        <ele>111.6998547418</ele>
        <time>2021-12-21T13:52:07Z</time>
      </trkpt>
      <trkpt lat="48.84085" lon="1.91415">
        <ele>111.84124358185</ele>
        <time>2021-12-21T13:52:09Z</time>
      </trkpt>
      <trkpt lat="48.84088" lon="1.91417">
        <ele>111.86345771607</ele>
        <time>2021-12-21T13:52:12Z</time>
      </trkpt>
      <trkpt lat="48.8409" lon="1.91419">
        <ele>112.22721452639</ele>
        <time>2021-12-21T13:52:14Z</time>
      </trkpt>
      <trkpt lat="48.84093" lon="1.9142">
        <ele>112.07410349045</ele>
        <time>2021-12-21T13:52:16Z</time>
      </trkpt>
      <trkpt lat="48.84095" lon="1.91422">
        <ele>111.8392822342</ele>
        <time>2021-12-21T13:52:18Z</time>
      </trkpt>
      <trkpt lat="48.84097" lon="1.91423">
        <ele>111.89077728335</ele>
        <time>2021-12-21T13:52:20Z</time>
      </trkpt>
      <trkpt lat="48.84099" lon="1.91424">
        <ele>112.08206848055</ele>
        <time>2021-12-21T13:52:22Z</time>
      </trkpt>
      <trkpt lat="48.841" lon="1.91427">
        <ele>112.14149021916</ele>
        <time>2021-12-21T13:52:24Z</time>
      </trkpt>
      <trkpt lat="48.84102" lon="1.91428">
        <ele>112.15899682511</ele>
        <time>2021-12-21T13:52:26Z</time>
      </trkpt>
      <trkpt lat="48.84104" lon="1.9143">
        <ele>112.03758171294</ele>
        <time>2021-12-21T13:52:28Z</time>
      </trkpt>
      <trkpt lat="48.84106" lon="1.91431">
        <ele>112.09202333819</ele>
        <time>2021-12-21T13:52:30Z</time>
      </trkpt>
      <trkpt lat="48.84109" lon="1.91431">
        <ele>111.93243889883</ele>
        <time>2021-12-21T13:52:32Z</time>
      </trkpt>
      <trkpt lat="48.84112" lon="1.91431">
        <ele>111.87977390457</ele>
        <time>2021-12-21T13:52:34Z</time>
      </trkpt>
      <trkpt lat="48.84114" lon="1.91433">
        <ele>111.99437475856</ele>
        <time>2021-12-21T13:52:36Z</time>
      </trkpt>
      <trkpt lat="48.84116" lon="1.91434">
        <ele>111.94642339088</ele>
        <time>2021-12-21T13:52:37Z</time>
      </trkpt>
      <trkpt lat="48.84119" lon="1.91435">
        <ele>111.8732563518</ele>
        <time>2021-12-21T13:52:39Z</time>
      </trkpt>
      <trkpt lat="48.84121" lon="1.91436">
        <ele>111.62410978321</ele>
        <time>2021-12-21T13:52:41Z</time>
      </trkpt>
      <trkpt lat="48.84123" lon="1.91437">
        <ele>111.56650445331</ele>
        <time>2021-12-21T13:52:43Z</time>
      </trkpt>
      <trkpt lat="48.84125" lon="1.91438">
        <ele>111.78192441072</ele>
        <time>2021-12-21T13:52:45Z</time>
      </trkpt>
      <trkpt lat="48.84127" lon="1.9144">
        <ele>111.51304638386</ele>
        <time>2021-12-21T13:52:47Z</time>
      </trkpt>
      <trkpt lat="48.8413" lon="1.91442">
        <ele>111.58370342571</ele>
        <time>2021-12-21T13:52:50Z</time>
      </trkpt>
      <trkpt lat="48.84133" lon="1.91443">
        <ele>111.53956745286</ele>
        <time>2021-12-21T13:52:52Z</time>
      </trkpt>
      <trkpt lat="48.84134" lon="1.91444">
        <ele>111.61093521211</ele>
        <time>2021-12-21T13:52:54Z</time>
      </trkpt>
      <trkpt lat="48.84136" lon="1.91445">
        <ele>111.81516580749</ele>
        <time>2021-12-21T13:52:56Z</time>
      </trkpt>
      <trkpt lat="48.84138" lon="1.91447">
        <ele>112.01848359779</ele>
        <time>2021-12-21T13:52:58Z</time>
      </trkpt>
      <trkpt lat="48.84141" lon="1.91449">
        <ele>112.07783427835</ele>
        <time>2021-12-21T13:53:00Z</time>
      </trkpt>
      <trkpt lat="48.84144" lon="1.91451">
        <ele>112.16403093468</ele>
        <time>2021-12-21T13:53:02Z</time>
      </trkpt>
      <trkpt lat="48.84145" lon="1.91453">
        <ele>112.08487062715</ele>
        <time>2021-12-21T13:53:04Z</time>
      </trkpt>
      <trkpt lat="48.84148" lon="1.91455">
        <ele>111.97960354947</ele>
        <time>2021-12-21T13:53:06Z</time>
      </trkpt>
      <trkpt lat="48.8415" lon="1.91457">
        <ele>111.73385587055</ele>
        <time>2021-12-21T13:53:08Z</time>
      </trkpt>
      <trkpt lat="48.84152" lon="1.91458">
        <ele>111.60332647618</ele>
        <time>2021-12-21T13:53:10Z</time>
      </trkpt>
      <trkpt lat="48.84154" lon="1.9146">
        <ele>111.55084888637</ele>
        <time>2021-12-21T13:53:12Z</time>
      </trkpt>
      <trkpt lat="48.84157" lon="1.91461">
        <ele>111.42143738642</ele>
        <time>2021-12-21T13:53:14Z</time>
      </trkpt>
      <trkpt lat="48.84159" lon="1.91463">
        <ele>111.45212542545</ele>
        <time>2021-12-21T13:53:16Z</time>
      </trkpt>
      <trkpt lat="48.84161" lon="1.91463">
        <ele>111.5670377044</ele>
        <time>2021-12-21T13:53:18Z</time>
      </trkpt>
      <trkpt lat="48.84163" lon="1.91466">
        <ele>111.65015260968</ele>
        <time>2021-12-21T13:53:20Z</time>
      </trkpt>
      <trkpt lat="48.84164" lon="1.91468">
        <ele>111.98773767054</ele>
        <time>2021-12-21T13:53:22Z</time>
      </trkpt>
      <trkpt lat="48.84167" lon="1.91471">
        <ele>112.06264163461</ele>
        <time>2021-12-21T13:53:24Z</time>
      </trkpt>
      <trkpt lat="48.84168" lon="1.91473">
        <ele>112.18762924988</ele>
        <time>2021-12-21T13:53:26Z</time>
      </trkpt>
      <trkpt lat="48.8417" lon="1.91475">
        <ele>112.37847782858</ele>
        <time>2021-12-21T13:53:28Z</time>
      </trkpt>
      <trkpt lat="48.84172" lon="1.91478">
        <ele>112.51630899496</ele>
        <time>2021-12-21T13:53:30Z</time>
      </trkpt>
      <trkpt lat="48.84174" lon="1.9148">
        <ele>112.34458186477</ele>
        <time>2021-12-21T13:53:32Z</time>
      </trkpt>
      <trkpt lat="48.84176" lon="1.91482">
        <ele>112.22944597062</ele>
        <time>2021-12-21T13:53:34Z</time>
      </trkpt>
      <trkpt lat="48.84178" lon="1.91484">
        <ele>112.08351635467</ele>
        <time>2021-12-21T13:53:36Z</time>
      </trkpt>
      <trkpt lat="48.8418" lon="1.91487">
        <ele>112.01159727946</ele>
        <time>2021-12-21T13:53:38Z</time>
      </trkpt>
      <trkpt lat="48.84182" lon="1.91489">
        <ele>112.21451376937</ele>
        <time>2021-12-21T13:53:40Z</time>
      </trkpt>
      <trkpt lat="48.84183" lon="1.91492">
        <ele>112.51435156353</ele>
        <time>2021-12-21T13:53:42Z</time>
      </trkpt>
      <trkpt lat="48.84184" lon="1.91494">
        <ele>112.52445072029</ele>
        <time>2021-12-21T13:53:44Z</time>
      </trkpt>
      <trkpt lat="48.84186" lon="1.91497">
        <ele>112.47514223773</ele>
        <time>2021-12-21T13:53:46Z</time>
      </trkpt>
      <trkpt lat="48.84187" lon="1.91499">
        <ele>112.39687014092</ele>
        <time>2021-12-21T13:53:48Z</time>
      </trkpt>
      <trkpt lat="48.84188" lon="1.91502">
        <ele>112.59503634833</ele>
        <time>2021-12-21T13:53:50Z</time>
      </trkpt>
      <trkpt lat="48.8419" lon="1.91504">
        <ele>112.43168540299</ele>
        <time>2021-12-21T13:53:52Z</time>
      </trkpt>
      <trkpt lat="48.84192" lon="1.91508">
        <ele>112.37669860478</ele>
        <time>2021-12-21T13:53:55Z</time>
      </trkpt>
      <trkpt lat="48.84193" lon="1.9151">
        <ele>112.37018168718</ele>
        <time>2021-12-21T13:53:57Z</time>
      </trkpt>
      <trkpt lat="48.84194" lon="1.91514">
        <ele>112.36550011393</ele>
        <time>2021-12-21T13:53:59Z</time>
      </trkpt>
      <trkpt lat="48.84196" lon="1.91517">
        <ele>112.25606104732</ele>
        <time>2021-12-21T13:54:01Z</time>
      </trkpt>
      <trkpt lat="48.84198" lon="1.91518">
        <ele>112.25647480506</ele>
        <time>2021-12-21T13:54:03Z</time>
      </trkpt>
      <trkpt lat="48.84199" lon="1.91521">
        <ele>112.01439709309</ele>
        <time>2021-12-21T13:54:05Z</time>
      </trkpt>
      <trkpt lat="48.842" lon="1.91524">
        <ele>112.05285018776</ele>
        <time>2021-12-21T13:54:07Z</time>
      </trkpt>
      <trkpt lat="48.84201" lon="1.91527">
        <ele>112.05065044295</ele>
        <time>2021-12-21T13:54:09Z</time>
      </trkpt>
      <trkpt lat="48.84203" lon="1.91531">
        <ele>112.20247456804</ele>
        <time>2021-12-21T13:54:11Z</time>
      </trkpt>
      <trkpt lat="48.84205" lon="1.91534">
        <ele>112.25924367271</ele>
        <time>2021-12-21T13:54:13Z</time>
      </trkpt>
      <trkpt lat="48.84206" lon="1.91537">
        <ele>112.36034478061</ele>
        <time>2021-12-21T13:54:15Z</time>
      </trkpt>
      <trkpt lat="48.84207" lon="1.91541">
        <ele>112.36272767745</ele>
        <time>2021-12-21T13:54:17Z</time>
      </trkpt>
      <trkpt lat="48.84208" lon="1.91545">
        <ele>112.12003165111</ele>
        <time>2021-12-21T13:54:20Z</time>
      </trkpt>
      <trkpt lat="48.84209" lon="1.91548">
        <ele>112.2222014945</ele>
        <time>2021-12-21T13:54:22Z</time>
      </trkpt>
      <trkpt lat="48.8421" lon="1.91552">
        <ele>112.17062376812</ele>
        <time>2021-12-21T13:54:24Z</time>
      </trkpt>
      <trkpt lat="48.84211" lon="1.91555">
        <ele>112.35633544717</ele>
        <time>2021-12-21T13:54:26Z</time>
      </trkpt>
      <trkpt lat="48.84212" lon="1.91558">
        <ele>112.61297731195</ele>
        <time>2021-12-21T13:54:28Z</time>
      </trkpt>
      <trkpt lat="48.84213" lon="1.91561">
        <ele>112.80611980241</ele>
        <time>2021-12-21T13:54:30Z</time>
      </trkpt>
      <trkpt lat="48.84214" lon="1.91565">
        <ele>112.84454610106</ele>
        <time>2021-12-21T13:54:32Z</time>
      </trkpt>
      <trkpt lat="48.84215" lon="1.91568">
        <ele>112.8286846308</ele>
        <time>2021-12-21T13:54:34Z</time>
      </trkpt>
      <trkpt lat="48.84215" lon="1.91572">
        <ele>112.57502901182</ele>
        <time>2021-12-21T13:54:36Z</time>
      </trkpt>
      <trkpt lat="48.84216" lon="1.91576">
        <ele>112.44959192816</ele>
        <time>2021-12-21T13:54:39Z</time>
      </trkpt>
      <trkpt lat="48.84217" lon="1.91579">
        <ele>112.57361952681</ele>
        <time>2021-12-21T13:54:41Z</time>
      </trkpt>
      <trkpt lat="48.84218" lon="1.91583">
        <ele>112.70100855827</ele>
        <time>2021-12-21T13:54:43Z</time>
      </trkpt>
      <trkpt lat="48.84219" lon="1.91586">
        <ele>112.73512005713</ele>
        <time>2021-12-21T13:54:45Z</time>
      </trkpt>
      <trkpt lat="48.8422" lon="1.91591">
        <ele>112.87139979005</ele>
        <time>2021-12-21T13:54:47Z</time>
      </trkpt>
      <trkpt lat="48.8422" lon="1.91595">
        <ele>112.71760218404</ele>
        <time>2021-12-21T13:54:49Z</time>
      </trkpt>
      <trkpt lat="48.84222" lon="1.91599">
        <ele>112.67980756611</ele>
        <time>2021-12-21T13:54:51Z</time>
      </trkpt>
      <trkpt lat="48.84222" lon="1.91602">
        <ele>112.19210944138</ele>
        <time>2021-12-21T13:54:53Z</time>
      </trkpt>
      <trkpt lat="48.84224" lon="1.91606">
        <ele>111.79874954093</ele>
        <time>2021-12-21T13:54:56Z</time>
      </trkpt>
      <trkpt lat="48.84225" lon="1.91608">
        <ele>111.96321106609</ele>
        <time>2021-12-21T13:54:58Z</time>
      </trkpt>
      <trkpt lat="48.84226" lon="1.91612">
        <ele>111.55529957823</ele>
        <time>2021-12-21T13:55:00Z</time>
      </trkpt>
      <trkpt lat="48.84227" lon="1.91615">
        <ele>111.54527663067</ele>
        <time>2021-12-21T13:55:02Z</time>
      </trkpt>
      <trkpt lat="48.84228" lon="1.91619">
        <ele>111.46818036865</ele>
        <time>2021-12-21T13:55:04Z</time>
      </trkpt>
      <trkpt lat="48.84229" lon="1.91622">
        <ele>111.53087373171</ele>
        <time>2021-12-21T13:55:06Z</time>
      </trkpt>
      <trkpt lat="48.84229" lon="1.91625">
        <ele>111.83935937751</ele>
        <time>2021-12-21T13:55:08Z</time>
      </trkpt>
      <trkpt lat="48.84229" lon="1.91628">
        <ele>111.93276986014</ele>
        <time>2021-12-21T13:55:09Z</time>
      </trkpt>
      <trkpt lat="48.84229" lon="1.91632">
        <ele>111.83162693214</ele>
        <time>2021-12-21T13:55:11Z</time>
      </trkpt>
      <trkpt lat="48.84231" lon="1.91635">
        <ele>111.68816771917</ele>
        <time>2021-12-21T13:55:14Z</time>
      </trkpt>
      <trkpt lat="48.84232" lon="1.91639">
        <ele>111.90312246606</ele>
        <time>2021-12-21T13:55:16Z</time>
      </trkpt>
      <trkpt lat="48.84233" lon="1.91644">
        <ele>112.21429084241</ele>
        <time>2021-12-21T13:55:18Z</time>
      </trkpt>
      <trkpt lat="48.84233" lon="1.91647">
        <ele>112.26633615978</ele>
        <time>2021-12-21T13:55:20Z</time>
      </trkpt>
      <trkpt lat="48.84234" lon="1.91651">
        <ele>112.05622802209</ele>
        <time>2021-12-21T13:55:22Z</time>
      </trkpt>
      <trkpt lat="48.84235" lon="1.91653">
        <ele>111.88222230412</ele>
        <time>2021-12-21T13:55:25Z</time>
      </trkpt>
      <trkpt lat="48.84236" lon="1.91657">
        <ele>111.7572564017</ele>
        <time>2021-12-21T13:55:27Z</time>
      </trkpt>
      <trkpt lat="48.84237" lon="1.9166">
        <ele>111.86425221711</ele>
        <time>2021-12-21T13:55:29Z</time>
      </trkpt>
      <trkpt lat="48.84238" lon="1.91664">
        <ele>111.99363516923</ele>
        <time>2021-12-21T13:55:31Z</time>
      </trkpt>
      <trkpt lat="48.84239" lon="1.91668">
        <ele>112.05730704591</ele>
        <time>2021-12-21T13:55:33Z</time>
      </trkpt>
      <trkpt lat="48.8424" lon="1.91672">
        <ele>111.90033492353</ele>
        <time>2021-12-21T13:55:35Z</time>
      </trkpt>
      <trkpt lat="48.84241" lon="1.91675">
        <ele>111.63883001916</ele>
        <time>2021-12-21T13:55:37Z</time>
      </trkpt>
      <trkpt lat="48.84242" lon="1.91679">
        <ele>111.84680660442</ele>
        <time>2021-12-21T13:55:39Z</time>
      </trkpt>
      <trkpt lat="48.84242" lon="1.91684">
        <ele>112.01882487256</ele>
        <time>2021-12-21T13:55:41Z</time>
      </trkpt>
      <trkpt lat="48.84241" lon="1.91688">
        <ele>112.03100897465</ele>
        <time>2021-12-21T13:55:43Z</time>
      </trkpt>
      <trkpt lat="48.84242" lon="1.91693">
        <ele>112.28555153124</ele>
        <time>2021-12-21T13:55:45Z</time>
      </trkpt>
      <trkpt lat="48.84241" lon="1.91697">
        <ele>112.0783266155</ele>
        <time>2021-12-21T13:55:47Z</time>
      </trkpt>
      <trkpt lat="48.84241" lon="1.917">
        <ele>111.85497342795</ele>
        <time>2021-12-21T13:55:49Z</time>
      </trkpt>
      <trkpt lat="48.84241" lon="1.91704">
        <ele>111.95890327916</ele>
        <time>2021-12-21T13:55:51Z</time>
      </trkpt>
      <trkpt lat="48.8424" lon="1.91708">
        <ele>111.71960244793</ele>
        <time>2021-12-21T13:55:53Z</time>
      </trkpt>
      <trkpt lat="48.8424" lon="1.91713">
        <ele>112.11890861765</ele>
        <time>2021-12-21T13:55:56Z</time>
      </trkpt>
      <trkpt lat="48.8424" lon="1.91716">
        <ele>112.10153978877</ele>
        <time>2021-12-21T13:55:58Z</time>
      </trkpt>
      <trkpt lat="48.84239" lon="1.9172">
        <ele>111.82975351531</ele>
        <time>2021-12-21T13:56:01Z</time>
      </trkpt>
      <trkpt lat="48.8424" lon="1.91724">
        <ele>111.80515411496</ele>
        <time>2021-12-21T13:56:03Z</time>
      </trkpt>
      <trkpt lat="48.8424" lon="1.91727">
        <ele>111.81768944766</ele>
        <time>2021-12-21T13:56:05Z</time>
      </trkpt>
      <trkpt lat="48.8424" lon="1.91732">
        <ele>111.56740456261</ele>
        <time>2021-12-21T13:56:07Z</time>
      </trkpt>
      <trkpt lat="48.8424" lon="1.91736">
        <ele>111.75758928154</ele>
        <time>2021-12-21T13:56:09Z</time>
      </trkpt>
      <trkpt lat="48.8424" lon="1.91739">
        <ele>112.05384290311</ele>
        <time>2021-12-21T13:56:11Z</time>
      </trkpt>
      <trkpt lat="48.84241" lon="1.91744">
        <ele>112.47572312411</ele>
        <time>2021-12-21T13:56:14Z</time>
      </trkpt>
      <trkpt lat="48.84241" lon="1.91747">
        <ele>113.08768615965</ele>
        <time>2021-12-21T13:56:16Z</time>
      </trkpt>
      <trkpt lat="48.84241" lon="1.91751">
        <ele>113.16847886797</ele>
        <time>2021-12-21T13:56:18Z</time>
      </trkpt>
      <trkpt lat="48.84241" lon="1.91755">
        <ele>113.33651528973</ele>
        <time>2021-12-21T13:56:21Z</time>
      </trkpt>
      <trkpt lat="48.84241" lon="1.91758">
        <ele>113.23799734563</ele>
        <time>2021-12-21T13:56:23Z</time>
      </trkpt>
      <trkpt lat="48.84241" lon="1.91762">
        <ele>113.4149256926</ele>
        <time>2021-12-21T13:56:25Z</time>
      </trkpt>
      <trkpt lat="48.84241" lon="1.91765">
        <ele>113.27177326661</ele>
        <time>2021-12-21T13:56:27Z</time>
      </trkpt>
      <trkpt lat="48.84242" lon="1.91769">
        <ele>113.25733576156</ele>
        <time>2021-12-21T13:56:29Z</time>
      </trkpt>
      <trkpt lat="48.84242" lon="1.91772">
        <ele>113.11435321625</ele>
        <time>2021-12-21T13:56:31Z</time>
      </trkpt>
      <trkpt lat="48.84242" lon="1.91775">
        <ele>113.387059425</ele>
        <time>2021-12-21T13:56:33Z</time>
      </trkpt>
      <trkpt lat="48.84242" lon="1.91778">
        <ele>113.21215374209</ele>
        <time>2021-12-21T13:56:35Z</time>
      </trkpt>
      <trkpt lat="48.84243" lon="1.91782">
        <ele>113.38087282609</ele>
        <time>2021-12-21T13:56:37Z</time>
      </trkpt>
      <trkpt lat="48.84243" lon="1.91786">
        <ele>113.61173844151</ele>
        <time>2021-12-21T13:56:40Z</time>
      </trkpt>
      <trkpt lat="48.84243" lon="1.91789">
        <ele>113.8859310085</ele>
        <time>2021-12-21T13:56:42Z</time>
      </trkpt>
      <trkpt lat="48.84244" lon="1.91793">
        <ele>113.94227633066</ele>
        <time>2021-12-21T13:56:45Z</time>
      </trkpt>
      <trkpt lat="48.84245" lon="1.91796">
        <ele>114.26213155966</ele>
        <time>2021-12-21T13:56:47Z</time>
      </trkpt>
      <trkpt lat="48.84246" lon="1.918">
        <ele>114.79406362958</ele>
        <time>2021-12-21T13:56:50Z</time>
      </trkpt>
      <trkpt lat="48.84247" lon="1.91804">
        <ele>115.12387649901</ele>
        <time>2021-12-21T13:56:53Z</time>
      </trkpt>
      <trkpt lat="48.84247" lon="1.91807">
        <ele>115.37629467528</ele>
        <time>2021-12-21T13:56:56Z</time>
      </trkpt>
      <trkpt lat="48.84249" lon="1.91809">
        <ele>115.42133805156</ele>
        <time>2021-12-21T13:56:58Z</time>
      </trkpt>
      <trkpt lat="48.8425" lon="1.91812">
        <ele>115.30233095493</ele>
        <time>2021-12-21T13:57:01Z</time>
      </trkpt>
      <trkpt lat="48.84251" lon="1.91814">
        <ele>115.32323083282</ele>
        <time>2021-12-21T13:57:03Z</time>
      </trkpt>
      <trkpt lat="48.84252" lon="1.91816">
        <ele>115.25900897104</ele>
        <time>2021-12-21T13:57:05Z</time>
      </trkpt>
      <trkpt lat="48.84253" lon="1.91819">
        <ele>115.52210971061</ele>
        <time>2021-12-21T13:57:10Z</time>
      </trkpt>
      <trkpt lat="48.84254" lon="1.91823">
        <ele>115.48637309577</ele>
        <time>2021-12-21T13:57:12Z</time>
      </trkpt>
      <trkpt lat="48.84254" lon="1.91826">
        <ele>115.60054140911</ele>
        <time>2021-12-21T13:57:17Z</time>
      </trkpt>
      <trkpt lat="48.84255" lon="1.91829">
        <ele>115.57205594331</ele>
        <time>2021-12-21T13:57:29Z</time>
      </trkpt>
      <trkpt lat="48.84256" lon="1.91831">
        <ele>115.20165050123</ele>
        <time>2021-12-21T13:57:31Z</time>
      </trkpt>
      <trkpt lat="48.84256" lon="1.91835">
        <ele>115.60130733438</ele>
        <time>2021-12-21T13:57:33Z</time>
      </trkpt>
      <trkpt lat="48.84258" lon="1.91838">
        <ele>115.58374755923</ele>
        <time>2021-12-21T13:57:36Z</time>
      </trkpt>
      <trkpt lat="48.8426" lon="1.9184">
        <ele>115.89280973841</ele>
        <time>2021-12-21T13:57:38Z</time>
      </trkpt>
      <trkpt lat="48.84261" lon="1.91844">
        <ele>115.71372655313</ele>
        <time>2021-12-21T13:57:40Z</time>
      </trkpt>
      <trkpt lat="48.84261" lon="1.91848">
        <ele>115.8482446745</ele>
        <time>2021-12-21T13:57:46Z</time>
      </trkpt>
      <trkpt lat="48.84261" lon="1.91851">
        <ele>115.79721664917</ele>
        <time>2021-12-21T13:57:48Z</time>
      </trkpt>
      <trkpt lat="48.84261" lon="1.91854">
        <ele>115.8787172474</ele>
        <time>2021-12-21T13:58:04Z</time>
      </trkpt>
      <trkpt lat="48.84261" lon="1.91858">
        <ele>116.07141939364</ele>
        <time>2021-12-21T13:58:10Z</time>
      </trkpt>
      <trkpt lat="48.84259" lon="1.91861">
        <ele>116.32820267323</ele>
        <time>2021-12-21T13:58:15Z</time>
      </trkpt>
      <trkpt lat="48.84258" lon="1.91864">
        <ele>116.86570883635</ele>
        <time>2021-12-21T13:58:15Z</time>
      </trkpt>
      <trkpt lat="48.84257" lon="1.91866">
        <ele>116.60301175248</ele>
        <time>2021-12-21T13:58:16Z</time>
      </trkpt>
      <trkpt lat="48.84255" lon="1.91869">
        <ele>117.00503175985</ele>
        <time>2021-12-21T13:58:16Z</time>
      </trkpt>
      <trkpt lat="48.84254" lon="1.91872">
        <ele>116.96270890161</ele>
        <time>2021-12-21T13:58:17Z</time>
      </trkpt>
      <trkpt lat="48.84252" lon="1.91876">
        <ele>117.02816034388</ele>
        <time>2021-12-21T13:58:18Z</time>
      </trkpt>
      <trkpt lat="48.84251" lon="1.91878">
        <ele>116.70422731247</ele>
        <time>2021-12-21T13:58:19Z</time>
      </trkpt>
      <trkpt lat="48.84249" lon="1.91881">
        <ele>117.08340820018</ele>
        <time>2021-12-21T13:58:21Z</time>
      </trkpt>
      <trkpt lat="48.84247" lon="1.91884">
        <ele>117.17598930281</ele>
        <time>2021-12-21T13:58:23Z</time>
      </trkpt>
      <trkpt lat="48.84245" lon="1.91888">
        <ele>117.04897571169</ele>
        <time>2021-12-21T13:58:25Z</time>
      </trkpt>
      <trkpt lat="48.84244" lon="1.9189">
        <ele>116.95027551148</ele>
        <time>2021-12-21T13:58:27Z</time>
      </trkpt>
      <trkpt lat="48.84243" lon="1.91893">
        <ele>117.03846293408</ele>
        <time>2021-12-21T13:58:29Z</time>
      </trkpt>
      <trkpt lat="48.84242" lon="1.91895">
        <ele>117.01683103852</ele>
        <time>2021-12-21T13:58:31Z</time>
      </trkpt>
      <trkpt lat="48.8424" lon="1.91899">
        <ele>117.16169634368</ele>
        <time>2021-12-21T13:58:33Z</time>
      </trkpt>
      <trkpt lat="48.84239" lon="1.91902">
        <ele>117.4000356663</ele>
        <time>2021-12-21T13:58:35Z</time>
      </trkpt>
      <trkpt lat="48.84237" lon="1.91905">
        <ele>117.49826685898</ele>
        <time>2021-12-21T13:58:37Z</time>
      </trkpt>
      <trkpt lat="48.84235" lon="1.91907">
        <ele>117.5300820563</ele>
        <time>2021-12-21T13:58:39Z</time>
      </trkpt>
      <trkpt lat="48.84234" lon="1.9191">
        <ele>117.60295823961</ele>
        <time>2021-12-21T13:58:42Z</time>
      </trkpt>
      <trkpt lat="48.84232" lon="1.91912">
        <ele>117.66192858014</ele>
        <time>2021-12-21T13:58:44Z</time>
      </trkpt>
      <trkpt lat="48.84231" lon="1.91916">
        <ele>117.83043464366</ele>
        <time>2021-12-21T13:58:46Z</time>
      </trkpt>
      <trkpt lat="48.8423" lon="1.91919">
        <ele>118.09080188069</ele>
        <time>2021-12-21T13:58:48Z</time>
      </trkpt>
      <trkpt lat="48.84228" lon="1.91922">
        <ele>118.25897276774</ele>
        <time>2021-12-21T13:58:50Z</time>
      </trkpt>
      <trkpt lat="48.84227" lon="1.91924">
        <ele>118.34018504713</ele>
        <time>2021-12-21T13:58:52Z</time>
      </trkpt>
      <trkpt lat="48.84225" lon="1.91927">
        <ele>118.44007455464</ele>
        <time>2021-12-21T13:58:54Z</time>
      </trkpt>
      <trkpt lat="48.84224" lon="1.9193">
        <ele>118.32334124111</ele>
        <time>2021-12-21T13:58:56Z</time>
      </trkpt>
      <trkpt lat="48.84222" lon="1.91932">
        <ele>118.20078651421</ele>
        <time>2021-12-21T13:58:58Z</time>
      </trkpt>
      <trkpt lat="48.84221" lon="1.91934">
        <ele>117.91709547117</ele>
        <time>2021-12-21T13:59:01Z</time>
      </trkpt>
      <trkpt lat="48.8422" lon="1.91937">
        <ele>117.74275102839</ele>
        <time>2021-12-21T13:59:03Z</time>
      </trkpt>
      <trkpt lat="48.84218" lon="1.9194">
        <ele>117.82773044147</ele>
        <time>2021-12-21T13:59:05Z</time>
      </trkpt>
      <trkpt lat="48.84216" lon="1.91943">
        <ele>117.84889290296</ele>
        <time>2021-12-21T13:59:07Z</time>
      </trkpt>
      <trkpt lat="48.84215" lon="1.91945">
        <ele>117.81673627906</ele>
        <time>2021-12-21T13:59:09Z</time>
      </trkpt>
      <trkpt lat="48.84213" lon="1.91947">
        <ele>117.7259738883</ele>
        <time>2021-12-21T13:59:11Z</time>
      </trkpt>
      <trkpt lat="48.84212" lon="1.9195">
        <ele>117.52794832923</ele>
        <time>2021-12-21T13:59:13Z</time>
      </trkpt>
      <trkpt lat="48.8421" lon="1.91952">
        <ele>117.12684280053</ele>
        <time>2021-12-21T13:59:15Z</time>
      </trkpt>
      <trkpt lat="48.84209" lon="1.91955">
        <ele>117.16360923741</ele>
        <time>2021-12-21T13:59:17Z</time>
      </trkpt>
      <trkpt lat="48.84207" lon="1.91957">
        <ele>116.71045034565</ele>
        <time>2021-12-21T13:59:19Z</time>
      </trkpt>
      <trkpt lat="48.84206" lon="1.91961">
        <ele>116.90260826331</ele>
        <time>2021-12-21T13:59:21Z</time>
      </trkpt>
      <trkpt lat="48.84204" lon="1.91962">
        <ele>116.80192822963</ele>
        <time>2021-12-21T13:59:23Z</time>
      </trkpt>
      <trkpt lat="48.84202" lon="1.91964">
        <ele>116.57038573083</ele>
        <time>2021-12-21T13:59:25Z</time>
      </trkpt>
      <trkpt lat="48.84201" lon="1.91967">
        <ele>116.41404555552</ele>
        <time>2021-12-21T13:59:27Z</time>
      </trkpt>
      <trkpt lat="48.84199" lon="1.9197">
        <ele>116.65174894966</ele>
        <time>2021-12-21T13:59:29Z</time>
      </trkpt>
      <trkpt lat="48.84198" lon="1.91972">
        <ele>116.85263719968</ele>
        <time>2021-12-21T13:59:31Z</time>
      </trkpt>
      <trkpt lat="48.84197" lon="1.91976">
        <ele>117.08541439939</ele>
        <time>2021-12-21T13:59:33Z</time>
      </trkpt>
      <trkpt lat="48.84195" lon="1.91978">
        <ele>116.86620763224</ele>
        <time>2021-12-21T13:59:35Z</time>
      </trkpt>
      <trkpt lat="48.84194" lon="1.91981">
        <ele>116.82891273312</ele>
        <time>2021-12-21T13:59:37Z</time>
      </trkpt>
      <trkpt lat="48.84192" lon="1.91984">
        <ele>116.77931434009</ele>
        <time>2021-12-21T13:59:39Z</time>
      </trkpt>
      <trkpt lat="48.84191" lon="1.91987">
        <ele>116.95693315752</ele>
        <time>2021-12-21T13:59:41Z</time>
      </trkpt>
      <trkpt lat="48.8419" lon="1.91989">
        <ele>116.89402073529</ele>
        <time>2021-12-21T13:59:43Z</time>
      </trkpt>
      <trkpt lat="48.84189" lon="1.91992">
        <ele>116.95754801296</ele>
        <time>2021-12-21T13:59:45Z</time>
      </trkpt>
      <trkpt lat="48.84187" lon="1.91994">
        <ele>116.99961935636</ele>
        <time>2021-12-21T13:59:47Z</time>
      </trkpt>
      <trkpt lat="48.84186" lon="1.91997">
        <ele>116.67528938223</ele>
        <time>2021-12-21T13:59:49Z</time>
      </trkpt>
      <trkpt lat="48.84185" lon="1.92">
        <ele>116.48836969398</ele>
        <time>2021-12-21T13:59:51Z</time>
      </trkpt>
      <trkpt lat="48.84183" lon="1.92003">
        <ele>116.48517538235</ele>
        <time>2021-12-21T13:59:53Z</time>
      </trkpt>
      <trkpt lat="48.84181" lon="1.92006">
        <ele>116.43944429234</ele>
        <time>2021-12-21T13:59:55Z</time>
      </trkpt>
      <trkpt lat="48.8418" lon="1.92008">
        <ele>116.5056204563</ele>
        <time>2021-12-21T13:59:57Z</time>
      </trkpt>
      <trkpt lat="48.84178" lon="1.92011">
        <ele>116.39086817764</ele>
        <time>2021-12-21T13:59:59Z</time>
      </trkpt>
      <trkpt lat="48.84177" lon="1.92013">
        <ele>116.26914206427</ele>
        <time>2021-12-21T14:00:01Z</time>
      </trkpt>
      <trkpt lat="48.84176" lon="1.92016">
        <ele>116.02503492963</ele>
        <time>2021-12-21T14:00:03Z</time>
      </trkpt>
      <trkpt lat="48.84174" lon="1.92019">
        <ele>116.01464931481</ele>
        <time>2021-12-21T14:00:05Z</time>
      </trkpt>
      <trkpt lat="48.84172" lon="1.92022">
        <ele>116.13322980702</ele>
        <time>2021-12-21T14:00:07Z</time>
      </trkpt>
      <trkpt lat="48.8417" lon="1.92024">
        <ele>116.09175331518</ele>
        <time>2021-12-21T14:00:09Z</time>
      </trkpt>
      <trkpt lat="48.84168" lon="1.92026">
        <ele>116.20797633752</ele>
        <time>2021-12-21T14:00:11Z</time>
      </trkpt>
      <trkpt lat="48.84168" lon="1.92029">
        <ele>116.39959706739</ele>
        <time>2021-12-21T14:00:13Z</time>
      </trkpt>
      <trkpt lat="48.84166" lon="1.92032">
        <ele>116.09247283824</ele>
        <time>2021-12-21T14:00:15Z</time>
      </trkpt>
      <trkpt lat="48.84164" lon="1.92035">
        <ele>115.87682426721</ele>
        <time>2021-12-21T14:00:17Z</time>
      </trkpt>
      <trkpt lat="48.84163" lon="1.92037">
        <ele>115.84311884455</ele>
        <time>2021-12-21T14:00:19Z</time>
      </trkpt>
      <trkpt lat="48.84162" lon="1.9204">
        <ele>116.08835789934</ele>
        <time>2021-12-21T14:00:21Z</time>
      </trkpt>
      <trkpt lat="48.8416" lon="1.92042">
        <ele>116.18365812209</ele>
        <time>2021-12-21T14:00:23Z</time>
      </trkpt>
      <trkpt lat="48.84158" lon="1.92045">
        <ele>116.46779169794</ele>
        <time>2021-12-21T14:00:25Z</time>
      </trkpt>
      <trkpt lat="48.84157" lon="1.92049">
        <ele>116.59938583244</ele>
        <time>2021-12-21T14:00:27Z</time>
      </trkpt>
      <trkpt lat="48.84155" lon="1.92052">
        <ele>116.10706451163</ele>
        <time>2021-12-21T14:00:30Z</time>
      </trkpt>
      <trkpt lat="48.84153" lon="1.92055">
        <ele>116.34589201771</ele>
        <time>2021-12-21T14:00:32Z</time>
      </trkpt>
      <trkpt lat="48.84152" lon="1.92059">
        <ele>116.37927920464</ele>
        <time>2021-12-21T14:00:34Z</time>
      </trkpt>
      <trkpt lat="48.8415" lon="1.92061">
        <ele>116.28953666426</ele>
        <time>2021-12-21T14:00:36Z</time>
      </trkpt>
      <trkpt lat="48.8415" lon="1.92058">
        <ele>116.03220824059</ele>
        <time>2021-12-21T14:00:37Z</time>
      </trkpt>
      <trkpt lat="48.84151" lon="1.92054">
        <ele>115.77708294801</ele>
        <time>2021-12-21T14:00:41Z</time>
      </trkpt>
      <trkpt lat="48.84153" lon="1.92052">
        <ele>115.57859098725</ele>
        <time>2021-12-21T14:00:43Z</time>
      </trkpt>
      <trkpt lat="48.84153" lon="1.92049">
        <ele>115.63229970913</ele>
        <time>2021-12-21T14:00:49Z</time>
      </trkpt>
      <trkpt lat="48.84152" lon="1.92051">
        <ele>115.59345926717</ele>
        <time>2021-12-21T14:00:51Z</time>
      </trkpt>
      <trkpt lat="48.84151" lon="1.92054">
        <ele>115.74747262802</ele>
        <time>2021-12-21T14:00:53Z</time>
      </trkpt>
      <trkpt lat="48.8415" lon="1.92057">
        <ele>115.97210775968</ele>
        <time>2021-12-21T14:00:55Z</time>
      </trkpt>
      <trkpt lat="48.84147" lon="1.9206">
        <ele>116.28648636211</ele>
        <time>2021-12-21T14:00:58Z</time>
      </trkpt>
      <trkpt lat="48.84145" lon="1.92063">
        <ele>116.35136298928</ele>
        <time>2021-12-21T14:01:00Z</time>
      </trkpt>
      <trkpt lat="48.84144" lon="1.92066">
        <ele>116.33679120243</ele>
        <time>2021-12-21T14:01:02Z</time>
      </trkpt>
      <trkpt lat="48.84142" lon="1.92068">
        <ele>116.19450801611</ele>
        <time>2021-12-21T14:01:04Z</time>
      </trkpt>
      <trkpt lat="48.84141" lon="1.92071">
        <ele>116.05939522292</ele>
        <time>2021-12-21T14:01:06Z</time>
      </trkpt>
      <trkpt lat="48.84141" lon="1.92075">
        <ele>116.20816372428</ele>
        <time>2021-12-21T14:01:08Z</time>
      </trkpt>
      <trkpt lat="48.8414" lon="1.92078">
        <ele>116.18849036004</ele>
        <time>2021-12-21T14:01:10Z</time>
      </trkpt>
      <trkpt lat="48.84139" lon="1.92082">
        <ele>115.98552224785</ele>
        <time>2021-12-21T14:01:13Z</time>
      </trkpt>
      <trkpt lat="48.84137" lon="1.92084">
        <ele>115.9652720727</ele>
        <time>2021-12-21T14:01:15Z</time>
      </trkpt>
      <trkpt lat="48.84136" lon="1.92087">
        <ele>115.92947975174</ele>
        <time>2021-12-21T14:01:17Z</time>
      </trkpt>
      <trkpt lat="48.84135" lon="1.92091">
        <ele>116.2837097384</ele>
        <time>2021-12-21T14:01:19Z</time>
      </trkpt>
      <trkpt lat="48.84134" lon="1.92093">
        <ele>116.33580724243</ele>
        <time>2021-12-21T14:01:21Z</time>
      </trkpt>
      <trkpt lat="48.84132" lon="1.92092">
        <ele>116.5539297564</ele>
        <time>2021-12-21T14:01:27Z</time>
      </trkpt>
      <trkpt lat="48.84132" lon="1.92089">
        <ele>116.1997694429</ele>
        <time>2021-12-21T14:01:33Z</time>
      </trkpt>
      <trkpt lat="48.84131" lon="1.92092">
        <ele>115.86181621905</ele>
        <time>2021-12-21T14:01:36Z</time>
      </trkpt>
      <trkpt lat="48.84131" lon="1.92095">
        <ele>115.89170709439</ele>
        <time>2021-12-21T14:01:38Z</time>
      </trkpt>
      <trkpt lat="48.84131" lon="1.92098">
        <ele>116.11078137159</ele>
        <time>2021-12-21T14:01:40Z</time>
      </trkpt>
      <trkpt lat="48.8413" lon="1.92101">
        <ele>116.34572922066</ele>
        <time>2021-12-21T14:01:42Z</time>
      </trkpt>
      <trkpt lat="48.8413" lon="1.92104">
        <ele>116.55609265529</ele>
        <time>2021-12-21T14:01:44Z</time>
      </trkpt>
      <trkpt lat="48.84129" lon="1.92109">
        <ele>116.71742955502</ele>
        <time>2021-12-21T14:01:46Z</time>
      </trkpt>
      <trkpt lat="48.84128" lon="1.92112">
        <ele>116.30780441314</ele>
        <time>2021-12-21T14:01:50Z</time>
      </trkpt>
      <trkpt lat="48.84127" lon="1.92115">
        <ele>116.13520963117</ele>
        <time>2021-12-21T14:01:52Z</time>
      </trkpt>
      <trkpt lat="48.84127" lon="1.92119">
        <ele>116.55840927269</ele>
        <time>2021-12-21T14:01:55Z</time>
      </trkpt>
      <trkpt lat="48.84126" lon="1.92121">
        <ele>116.37551397644</ele>
        <time>2021-12-21T14:01:57Z</time>
      </trkpt>
      <trkpt lat="48.84126" lon="1.92124">
        <ele>116.55215954129</ele>
        <time>2021-12-21T14:01:59Z</time>
      </trkpt>
      <trkpt lat="48.84126" lon="1.92127">
        <ele>116.47340340912</ele>
        <time>2021-12-21T14:02:02Z</time>
      </trkpt>
      <trkpt lat="48.84125" lon="1.92131">
        <ele>116.34212257713</ele>
        <time>2021-12-21T14:02:05Z</time>
      </trkpt>
      <trkpt lat="48.84124" lon="1.92134">
        <ele>116.62777270656</ele>
        <time>2021-12-21T14:02:08Z</time>
      </trkpt>
      <trkpt lat="48.84123" lon="1.92133">
        <ele>116.66071906127</ele>
        <time>2021-12-21T14:02:14Z</time>
      </trkpt>
      <trkpt lat="48.84122" lon="1.9213">
        <ele>116.68051893916</ele>
        <time>2021-12-21T14:02:33Z</time>
      </trkpt>
      <trkpt lat="48.84124" lon="1.92131">
        <ele>116.60501240287</ele>
        <time>2021-12-21T14:03:24Z</time>
      </trkpt>
      <trkpt lat="48.84123" lon="1.92134">
        <ele>116.53839503042</ele>
        <time>2021-12-21T14:03:50Z</time>
      </trkpt>
      <trkpt lat="48.84123" lon="1.92137">
        <ele>116.59980398323</ele>
        <time>2021-12-21T14:03:52Z</time>
      </trkpt>
      <trkpt lat="48.84122" lon="1.92141">
        <ele>117.29313127045</ele>
        <time>2021-12-21T14:03:54Z</time>
      </trkpt>
      <trkpt lat="48.84122" lon="1.92143">
        <ele>117.39760877471</ele>
        <time>2021-12-21T14:03:56Z</time>
      </trkpt>
      <trkpt lat="48.84121" lon="1.92148">
        <ele>117.51174898446</ele>
        <time>2021-12-21T14:04:01Z</time>
      </trkpt>
      <trkpt lat="48.8412" lon="1.9215">
        <ele>117.66849596426</ele>
        <time>2021-12-21T14:04:03Z</time>
      </trkpt>
      <trkpt lat="48.84119" lon="1.92155">
        <ele>117.89588494785</ele>
        <time>2021-12-21T14:04:05Z</time>
      </trkpt>
      <trkpt lat="48.84119" lon="1.92158">
        <ele>118.20212128107</ele>
        <time>2021-12-21T14:04:07Z</time>
      </trkpt>
      <trkpt lat="48.84117" lon="1.9216">
        <ele>117.96798573062</ele>
        <time>2021-12-21T14:04:09Z</time>
      </trkpt>
      <trkpt lat="48.84117" lon="1.92163">
        <ele>118.21554102097</ele>
        <time>2021-12-21T14:04:11Z</time>
      </trkpt>
      <trkpt lat="48.84116" lon="1.92166">
        <ele>117.86620310787</ele>
        <time>2021-12-21T14:04:14Z</time>
      </trkpt>
      <trkpt lat="48.84115" lon="1.92169">
        <ele>117.61602885183</ele>
        <time>2021-12-21T14:04:17Z</time>
      </trkpt>
      <trkpt lat="48.84115" lon="1.92173">
        <ele>117.76178303547</ele>
        <time>2021-12-21T14:04:19Z</time>
      </trkpt>
      <trkpt lat="48.84114" lon="1.92176">
        <ele>117.98578948062</ele>
        <time>2021-12-21T14:04:21Z</time>
      </trkpt>
      <trkpt lat="48.84114" lon="1.9218">
        <ele>118.33808165509</ele>
        <time>2021-12-21T14:04:23Z</time>
      </trkpt>
      <trkpt lat="48.84113" lon="1.92183">
        <ele>118.5207037786</ele>
        <time>2021-12-21T14:04:25Z</time>
      </trkpt>
      <trkpt lat="48.84112" lon="1.92186">
        <ele>118.75041650329</ele>
        <time>2021-12-21T14:04:27Z</time>
      </trkpt>
      <trkpt lat="48.84112" lon="1.9219">
        <ele>119.36857683677</ele>
        <time>2021-12-21T14:04:30Z</time>
      </trkpt>
      <trkpt lat="48.84111" lon="1.92193">
        <ele>119.66095244884</ele>
        <time>2021-12-21T14:04:32Z</time>
      </trkpt>
      <trkpt lat="48.84111" lon="1.92196">
        <ele>120.12436818425</ele>
        <time>2021-12-21T14:04:33Z</time>
      </trkpt>
      <trkpt lat="48.8411" lon="1.922">
        <ele>120.31962784287</ele>
        <time>2021-12-21T14:04:35Z</time>
      </trkpt>
      <trkpt lat="48.84109" lon="1.92203">
        <ele>120.42141475435</ele>
        <time>2021-12-21T14:04:37Z</time>
      </trkpt>
      <trkpt lat="48.84109" lon="1.92207">
        <ele>120.79420428723</ele>
        <time>2021-12-21T14:04:39Z</time>
      </trkpt>
      <trkpt lat="48.84108" lon="1.9221">
        <ele>121.07592796162</ele>
        <time>2021-12-21T14:04:41Z</time>
      </trkpt>
      <trkpt lat="48.84107" lon="1.92213">
        <ele>121.49914541095</ele>
        <time>2021-12-21T14:04:43Z</time>
      </trkpt>
      <trkpt lat="48.84106" lon="1.92216">
        <ele>121.80798198469</ele>
        <time>2021-12-21T14:04:46Z</time>
      </trkpt>
      <trkpt lat="48.84106" lon="1.92219">
        <ele>121.96438341215</ele>
        <time>2021-12-21T14:04:49Z</time>
      </trkpt>
      <trkpt lat="48.84105" lon="1.92223">
        <ele>122.13883371558</ele>
        <time>2021-12-21T14:04:51Z</time>
      </trkpt>
      <trkpt lat="48.84104" lon="1.92225">
        <ele>122.25410409551</ele>
        <time>2021-12-21T14:04:53Z</time>
      </trkpt>
      <trkpt lat="48.84104" lon="1.92229">
        <ele>122.61983542331</ele>
        <time>2021-12-21T14:04:55Z</time>
      </trkpt>
      <trkpt lat="48.84103" lon="1.92232">
        <ele>122.69766139332</ele>
        <time>2021-12-21T14:04:57Z</time>
      </trkpt>
      <trkpt lat="48.84103" lon="1.92236">
        <ele>123.01298544928</ele>
        <time>2021-12-21T14:04:59Z</time>
      </trkpt>
      <trkpt lat="48.84103" lon="1.92238">
        <ele>123.34295739885</ele>
        <time>2021-12-21T14:05:01Z</time>
      </trkpt>
      <trkpt lat="48.84101" lon="1.92241">
        <ele>123.3153724689</ele>
        <time>2021-12-21T14:05:06Z</time>
      </trkpt>
      <trkpt lat="48.84101" lon="1.92243">
        <ele>123.62781599164</ele>
        <time>2021-12-21T14:05:08Z</time>
      </trkpt>
      <trkpt lat="48.841" lon="1.92247">
        <ele>123.70515595842</ele>
        <time>2021-12-21T14:05:10Z</time>
      </trkpt>
      <trkpt lat="48.841" lon="1.92251">
        <ele>123.87475736998</ele>
        <time>2021-12-21T14:05:12Z</time>
      </trkpt>
      <trkpt lat="48.84099" lon="1.92254">
        <ele>123.98119871877</ele>
        <time>2021-12-21T14:05:14Z</time>
      </trkpt>
      <trkpt lat="48.84099" lon="1.92257">
        <ele>124.42614204437</ele>
        <time>2021-12-21T14:05:16Z</time>
      </trkpt>
      <trkpt lat="48.84098" lon="1.92259">
        <ele>124.61921064928</ele>
        <time>2021-12-21T14:05:18Z</time>
      </trkpt>
      <trkpt lat="48.84097" lon="1.92262">
        <ele>124.86965822894</ele>
        <time>2021-12-21T14:05:20Z</time>
      </trkpt>
      <trkpt lat="48.84097" lon="1.92265">
        <ele>124.63973109704</ele>
        <time>2021-12-21T14:05:22Z</time>
      </trkpt>
      <trkpt lat="48.84096" lon="1.92268">
        <ele>124.97335727699</ele>
        <time>2021-12-21T14:05:24Z</time>
      </trkpt>
      <trkpt lat="48.84095" lon="1.92271">
        <ele>125.02667045034</ele>
        <time>2021-12-21T14:05:26Z</time>
      </trkpt>
      <trkpt lat="48.84095" lon="1.92274">
        <ele>125.08431994915</ele>
        <time>2021-12-21T14:05:28Z</time>
      </trkpt>
      <trkpt lat="48.84093" lon="1.92278">
        <ele>125.1967442967</ele>
        <time>2021-12-21T14:05:31Z</time>
      </trkpt>
      <trkpt lat="48.84092" lon="1.92282">
        <ele>125.20998658426</ele>
        <time>2021-12-21T14:05:33Z</time>
      </trkpt>
      <trkpt lat="48.84092" lon="1.92285">
        <ele>125.34425245691</ele>
        <time>2021-12-21T14:05:35Z</time>
      </trkpt>
      <trkpt lat="48.84091" lon="1.92288">
        <ele>125.33904534392</ele>
        <time>2021-12-21T14:05:37Z</time>
      </trkpt>
      <trkpt lat="48.84089" lon="1.92291">
        <ele>125.02329722047</ele>
        <time>2021-12-21T14:05:40Z</time>
      </trkpt>
      <trkpt lat="48.84089" lon="1.92294">
        <ele>125.28791213501</ele>
        <time>2021-12-21T14:05:42Z</time>
      </trkpt>
      <trkpt lat="48.84088" lon="1.92297">
        <ele>125.03773234412</ele>
        <time>2021-12-21T14:05:44Z</time>
      </trkpt>
      <trkpt lat="48.84087" lon="1.92301">
        <ele>125.2397992406</ele>
        <time>2021-12-21T14:05:46Z</time>
      </trkpt>
      <trkpt lat="48.84087" lon="1.92304">
        <ele>125.54049455654</ele>
        <time>2021-12-21T14:05:48Z</time>
      </trkpt>
      <trkpt lat="48.84086" lon="1.92306">
        <ele>125.41335432883</ele>
        <time>2021-12-21T14:05:50Z</time>
      </trkpt>
      <trkpt lat="48.84086" lon="1.92309">
        <ele>125.3396505788</ele>
        <time>2021-12-21T14:05:52Z</time>
      </trkpt>
      <trkpt lat="48.84084" lon="1.92314">
        <ele>124.86783585139</ele>
        <time>2021-12-21T14:05:55Z</time>
      </trkpt>
      <trkpt lat="48.84083" lon="1.92316">
        <ele>124.92903969064</ele>
        <time>2021-12-21T14:05:57Z</time>
      </trkpt>
      <trkpt lat="48.84082" lon="1.9232">
        <ele>124.69864004292</ele>
        <time>2021-12-21T14:05:59Z</time>
      </trkpt>
      <trkpt lat="48.84081" lon="1.92323">
        <ele>124.66586457659</ele>
        <time>2021-12-21T14:06:01Z</time>
      </trkpt>
      <trkpt lat="48.8408" lon="1.92327">
        <ele>124.90779044293</ele>
        <time>2021-12-21T14:06:03Z</time>
      </trkpt>
      <trkpt lat="48.8408" lon="1.9233">
        <ele>125.03772792779</ele>
        <time>2021-12-21T14:06:05Z</time>
      </trkpt>
      <trkpt lat="48.84079" lon="1.92333">
        <ele>124.74571667984</ele>
        <time>2021-12-21T14:06:07Z</time>
      </trkpt>
      <trkpt lat="48.84078" lon="1.92336">
        <ele>124.86993793678</ele>
        <time>2021-12-21T14:06:09Z</time>
      </trkpt>
      <trkpt lat="48.84077" lon="1.92339">
        <ele>124.84171358589</ele>
        <time>2021-12-21T14:06:11Z</time>
      </trkpt>
      <trkpt lat="48.84076" lon="1.92343">
        <ele>124.92833446432</ele>
        <time>2021-12-21T14:06:14Z</time>
      </trkpt>
      <trkpt lat="48.84075" lon="1.92346">
        <ele>124.72367521934</ele>
        <time>2021-12-21T14:06:16Z</time>
      </trkpt>
      <trkpt lat="48.84074" lon="1.92349">
        <ele>124.85431688372</ele>
        <time>2021-12-21T14:06:18Z</time>
      </trkpt>
      <trkpt lat="48.84074" lon="1.92352">
        <ele>124.81208882015</ele>
        <time>2021-12-21T14:06:21Z</time>
      </trkpt>
      <trkpt lat="48.84073" lon="1.92356">
        <ele>124.97557183355</ele>
        <time>2021-12-21T14:06:23Z</time>
      </trkpt>
      <trkpt lat="48.84072" lon="1.92359">
        <ele>125.08846552391</ele>
        <time>2021-12-21T14:06:25Z</time>
      </trkpt>
      <trkpt lat="48.84072" lon="1.92363">
        <ele>124.95541606378</ele>
        <time>2021-12-21T14:06:27Z</time>
      </trkpt>
      <trkpt lat="48.84071" lon="1.92366">
        <ele>125.08288394753</ele>
        <time>2021-12-21T14:06:29Z</time>
      </trkpt>
      <trkpt lat="48.8407" lon="1.92369">
        <ele>124.99591560382</ele>
        <time>2021-12-21T14:06:31Z</time>
      </trkpt>
      <trkpt lat="48.84069" lon="1.92372">
        <ele>125.0404908834</ele>
        <time>2021-12-21T14:06:33Z</time>
      </trkpt>
      <trkpt lat="48.84069" lon="1.92375">
        <ele>125.02855843864</ele>
        <time>2021-12-21T14:06:35Z</time>
      </trkpt>
      <trkpt lat="48.84068" lon="1.92379">
        <ele>125.12145269569</ele>
        <time>2021-12-21T14:06:37Z</time>
      </trkpt>
      <trkpt lat="48.84067" lon="1.92382">
        <ele>125.12704159971</ele>
        <time>2021-12-21T14:06:39Z</time>
      </trkpt>
      <trkpt lat="48.84066" lon="1.92385">
        <ele>125.0112075638</ele>
        <time>2021-12-21T14:06:41Z</time>
      </trkpt>
      <trkpt lat="48.84065" lon="1.92388">
        <ele>125.24274192005</ele>
        <time>2021-12-21T14:06:43Z</time>
      </trkpt>
      <trkpt lat="48.84063" lon="1.9239">
        <ele>125.21742972266</ele>
        <time>2021-12-21T14:06:46Z</time>
      </trkpt>
      <trkpt lat="48.84062" lon="1.92394">
        <ele>125.3039484378</ele>
        <time>2021-12-21T14:06:48Z</time>
      </trkpt>
      <trkpt lat="48.84059" lon="1.92396">
        <ele>125.2659980366</ele>
        <time>2021-12-21T14:06:50Z</time>
      </trkpt>
      <trkpt lat="48.84057" lon="1.92399">
        <ele>125.11177389696</ele>
        <time>2021-12-21T14:06:53Z</time>
      </trkpt>
      <trkpt lat="48.84055" lon="1.92399">
        <ele>125.03705228306</ele>
        <time>2021-12-21T14:06:55Z</time>
      </trkpt>
      <trkpt lat="48.84053" lon="1.92398">
        <ele>124.88168668468</ele>
        <time>2021-12-21T14:06:57Z</time>
      </trkpt>
      <trkpt lat="48.84051" lon="1.92397">
        <ele>124.87965654954</ele>
        <time>2021-12-21T14:06:59Z</time>
      </trkpt>
      <trkpt lat="48.84048" lon="1.92398">
        <ele>125.02842192631</ele>
        <time>2021-12-21T14:07:01Z</time>
      </trkpt>
      <trkpt lat="48.84046" lon="1.92399">
        <ele>124.97713260818</ele>
        <time>2021-12-21T14:07:03Z</time>
      </trkpt>
      <trkpt lat="48.84043" lon="1.92398">
        <ele>124.77388605196</ele>
        <time>2021-12-21T14:07:06Z</time>
      </trkpt>
      <trkpt lat="48.84041" lon="1.92398">
        <ele>124.55177604314</ele>
        <time>2021-12-21T14:07:08Z</time>
      </trkpt>
      <trkpt lat="48.84038" lon="1.92399">
        <ele>124.37349966448</ele>
        <time>2021-12-21T14:07:11Z</time>
      </trkpt>
      <trkpt lat="48.84036" lon="1.92399">
        <ele>124.53039446287</ele>
        <time>2021-12-21T14:07:13Z</time>
      </trkpt>
      <trkpt lat="48.84034" lon="1.924">
        <ele>124.46210842673</ele>
        <time>2021-12-21T14:07:15Z</time>
      </trkpt>
      <trkpt lat="48.84031" lon="1.92401">
        <ele>124.58988920599</ele>
        <time>2021-12-21T14:07:17Z</time>
      </trkpt>
      <trkpt lat="48.84028" lon="1.924">
        <ele>124.64593256451</ele>
        <time>2021-12-21T14:07:20Z</time>
      </trkpt>
      <trkpt lat="48.84026" lon="1.92399">
        <ele>124.41732934397</ele>
        <time>2021-12-21T14:07:22Z</time>
      </trkpt>
      <trkpt lat="48.84024" lon="1.92398">
        <ele>124.60068932828</ele>
        <time>2021-12-21T14:07:24Z</time>
      </trkpt>
      <trkpt lat="48.84022" lon="1.92397">
        <ele>124.49680880457</ele>
        <time>2021-12-21T14:07:26Z</time>
      </trkpt>
      <trkpt lat="48.8402" lon="1.92397">
        <ele>124.27220338676</ele>
        <time>2021-12-21T14:07:28Z</time>
      </trkpt>
      <trkpt lat="48.84018" lon="1.92397">
        <ele>124.15239591151</ele>
        <time>2021-12-21T14:07:30Z</time>
      </trkpt>
      <trkpt lat="48.84015" lon="1.92398">
        <ele>124.24773297831</ele>
        <time>2021-12-21T14:07:32Z</time>
      </trkpt>
      <trkpt lat="48.84013" lon="1.92398">
        <ele>124.24332578573</ele>
        <time>2021-12-21T14:07:34Z</time>
      </trkpt>
      <trkpt lat="48.8401" lon="1.92397">
        <ele>124.46920562722</ele>
        <time>2021-12-21T14:07:36Z</time>
      </trkpt>
      <trkpt lat="48.84008" lon="1.92396">
        <ele>124.35044996161</ele>
        <time>2021-12-21T14:07:38Z</time>
      </trkpt>
      <trkpt lat="48.84006" lon="1.92397">
        <ele>124.55107980128</ele>
        <time>2021-12-21T14:07:40Z</time>
      </trkpt>
      <trkpt lat="48.84003" lon="1.92396">
        <ele>124.02664961293</ele>
        <time>2021-12-21T14:07:43Z</time>
      </trkpt>
      <trkpt lat="48.84001" lon="1.92396">
        <ele>123.8309565587</ele>
        <time>2021-12-21T14:07:45Z</time>
      </trkpt>
      <trkpt lat="48.83998" lon="1.92396">
        <ele>123.82517476752</ele>
        <time>2021-12-21T14:07:47Z</time>
      </trkpt>
      <trkpt lat="48.83996" lon="1.92395">
        <ele>123.69919636101</ele>
        <time>2021-12-21T14:07:49Z</time>
      </trkpt>
      <trkpt lat="48.83993" lon="1.92396">
        <ele>123.54573813081</ele>
        <time>2021-12-21T14:07:51Z</time>
      </trkpt>
      <trkpt lat="48.83991" lon="1.92396">
        <ele>123.66744077113</ele>
        <time>2021-12-21T14:07:53Z</time>
      </trkpt>
      <trkpt lat="48.83988" lon="1.92397">
        <ele>123.63980377</ele>
        <time>2021-12-21T14:07:55Z</time>
      </trkpt>
      <trkpt lat="48.83986" lon="1.92396">
        <ele>123.43637095671</ele>
        <time>2021-12-21T14:07:57Z</time>
      </trkpt>
      <trkpt lat="48.83984" lon="1.92396">
        <ele>123.24060385302</ele>
        <time>2021-12-21T14:07:59Z</time>
      </trkpt>
      <trkpt lat="48.83982" lon="1.92396">
        <ele>123.20783782192</ele>
        <time>2021-12-21T14:08:01Z</time>
      </trkpt>
      <trkpt lat="48.83979" lon="1.92395">
        <ele>122.90984246414</ele>
        <time>2021-12-21T14:08:03Z</time>
      </trkpt>
      <trkpt lat="48.83977" lon="1.92395">
        <ele>122.75323231984</ele>
        <time>2021-12-21T14:08:09Z</time>
      </trkpt>
      <trkpt lat="48.83975" lon="1.92394">
        <ele>122.60950491298</ele>
        <time>2021-12-21T14:08:11Z</time>
      </trkpt>
      <trkpt lat="48.83973" lon="1.92394">
        <ele>122.77295832988</ele>
        <time>2021-12-21T14:08:14Z</time>
      </trkpt>
      <trkpt lat="48.83971" lon="1.92394">
        <ele>122.75693402719</ele>
        <time>2021-12-21T14:08:16Z</time>
      </trkpt>
      <trkpt lat="48.83968" lon="1.92394">
        <ele>122.41928280983</ele>
        <time>2021-12-21T14:08:18Z</time>
      </trkpt>
      <trkpt lat="48.83965" lon="1.92394">
        <ele>122.50937131327</ele>
        <time>2021-12-21T14:08:21Z</time>
      </trkpt>
      <trkpt lat="48.83963" lon="1.92394">
        <ele>122.35546570271</ele>
        <time>2021-12-21T14:08:23Z</time>
      </trkpt>
      <trkpt lat="48.83961" lon="1.92394">
        <ele>121.81729270983</ele>
        <time>2021-12-21T14:08:25Z</time>
      </trkpt>
      <trkpt lat="48.83958" lon="1.92394">
        <ele>121.86526428815</ele>
        <time>2021-12-21T14:08:27Z</time>
      </trkpt>
      <trkpt lat="48.83956" lon="1.92395">
        <ele>121.71757693216</ele>
        <time>2021-12-21T14:08:29Z</time>
      </trkpt>
      <trkpt lat="48.83954" lon="1.92394">
        <ele>121.6151221469</ele>
        <time>2021-12-21T14:08:31Z</time>
      </trkpt>
      <trkpt lat="48.83951" lon="1.92394">
        <ele>121.5197600415</ele>
        <time>2021-12-21T14:08:33Z</time>
      </trkpt>
      <trkpt lat="48.83948" lon="1.92395">
        <ele>121.38566346746</ele>
        <time>2021-12-21T14:08:35Z</time>
      </trkpt>
      <trkpt lat="48.83946" lon="1.92394">
        <ele>121.46623213217</ele>
        <time>2021-12-21T14:08:37Z</time>
      </trkpt>
      <trkpt lat="48.83944" lon="1.92395">
        <ele>121.20546403155</ele>
        <time>2021-12-21T14:08:39Z</time>
      </trkpt>
      <trkpt lat="48.83942" lon="1.92395">
        <ele>121.1015442973</ele>
        <time>2021-12-21T14:08:41Z</time>
      </trkpt>
      <trkpt lat="48.8394" lon="1.92394">
        <ele>120.96640903223</ele>
        <time>2021-12-21T14:08:43Z</time>
      </trkpt>
      <trkpt lat="48.83938" lon="1.92393">
        <ele>120.60179846268</ele>
        <time>2021-12-21T14:08:45Z</time>
      </trkpt>
      <trkpt lat="48.83935" lon="1.92393">
        <ele>120.11295189522</ele>
        <time>2021-12-21T14:08:48Z</time>
      </trkpt>
      <trkpt lat="48.83932" lon="1.92393">
        <ele>120.12488128617</ele>
        <time>2021-12-21T14:08:50Z</time>
      </trkpt>
      <trkpt lat="48.8393" lon="1.92393">
        <ele>120.10631877836</ele>
        <time>2021-12-21T14:08:52Z</time>
      </trkpt>
      <trkpt lat="48.83927" lon="1.92393">
        <ele>119.92425826471</ele>
        <time>2021-12-21T14:08:54Z</time>
      </trkpt>
      <trkpt lat="48.83925" lon="1.92393">
        <ele>119.69892535917</ele>
        <time>2021-12-21T14:08:57Z</time>
      </trkpt>
      <trkpt lat="48.83923" lon="1.92393">
        <ele>119.54849292338</ele>
        <time>2021-12-21T14:08:59Z</time>
      </trkpt>
      <trkpt lat="48.8392" lon="1.92394">
        <ele>119.66090510692</ele>
        <time>2021-12-21T14:09:01Z</time>
      </trkpt>
      <trkpt lat="48.83918" lon="1.92393">
        <ele>119.54507797491</ele>
        <time>2021-12-21T14:09:03Z</time>
      </trkpt>
      <trkpt lat="48.83916" lon="1.92393">
        <ele>119.21834854595</ele>
        <time>2021-12-21T14:09:05Z</time>
      </trkpt>
      <trkpt lat="48.83913" lon="1.92393">
        <ele>118.90097612143</ele>
        <time>2021-12-21T14:09:07Z</time>
      </trkpt>
      <trkpt lat="48.83911" lon="1.92392">
        <ele>118.7802708596</ele>
        <time>2021-12-21T14:09:09Z</time>
      </trkpt>
      <trkpt lat="48.83909" lon="1.92392">
        <ele>118.61433444452</ele>
        <time>2021-12-21T14:09:11Z</time>
      </trkpt>
      <trkpt lat="48.83907" lon="1.92392">
        <ele>118.48158402368</ele>
        <time>2021-12-21T14:09:13Z</time>
      </trkpt>
      <trkpt lat="48.83904" lon="1.92393">
        <ele>118.5500063505</ele>
        <time>2021-12-21T14:09:15Z</time>
      </trkpt>
      <trkpt lat="48.83902" lon="1.92393">
        <ele>118.36610359605</ele>
        <time>2021-12-21T14:09:17Z</time>
      </trkpt>
      <trkpt lat="48.83899" lon="1.92392">
        <ele>118.15749764256</ele>
        <time>2021-12-21T14:09:19Z</time>
      </trkpt>
      <trkpt lat="48.83898" lon="1.92393">
        <ele>117.82739623543</ele>
        <time>2021-12-21T14:09:21Z</time>
      </trkpt>
      <trkpt lat="48.83895" lon="1.92392">
        <ele>118.05848776549</ele>
        <time>2021-12-21T14:09:23Z</time>
      </trkpt>
      <trkpt lat="48.83893" lon="1.92392">
        <ele>117.69677053299</ele>
        <time>2021-12-21T14:09:25Z</time>
      </trkpt>
      <trkpt lat="48.8389" lon="1.92392">
        <ele>117.22293881234</ele>
        <time>2021-12-21T14:09:27Z</time>
      </trkpt>
      <trkpt lat="48.83887" lon="1.92393">
        <ele>117.18848951906</ele>
        <time>2021-12-21T14:09:30Z</time>
      </trkpt>
      <trkpt lat="48.83885" lon="1.92392">
        <ele>116.74878474046</ele>
        <time>2021-12-21T14:09:32Z</time>
      </trkpt>
      <trkpt lat="48.83882" lon="1.92393">
        <ele>116.6427918924</ele>
        <time>2021-12-21T14:09:34Z</time>
      </trkpt>
      <trkpt lat="48.83881" lon="1.92395">
        <ele>116.95787467062</ele>
        <time>2021-12-21T14:09:35Z</time>
      </trkpt>
      <trkpt lat="48.83878" lon="1.92395">
        <ele>116.88076090347</ele>
        <time>2021-12-21T14:09:37Z</time>
      </trkpt>
      <trkpt lat="48.83876" lon="1.92395">
        <ele>116.43956788909</ele>
        <time>2021-12-21T14:09:40Z</time>
      </trkpt>
      <trkpt lat="48.83874" lon="1.92394">
        <ele>116.14559985045</ele>
        <time>2021-12-21T14:09:42Z</time>
      </trkpt>
      <trkpt lat="48.83871" lon="1.92393">
        <ele>115.44908943214</ele>
        <time>2021-12-21T14:09:44Z</time>
      </trkpt>
      <trkpt lat="48.83869" lon="1.92393">
        <ele>115.04883983545</ele>
        <time>2021-12-21T14:09:46Z</time>
      </trkpt>
      <trkpt lat="48.83867" lon="1.92394">
        <ele>114.99671112187</ele>
        <time>2021-12-21T14:09:48Z</time>
      </trkpt>
      <trkpt lat="48.83864" lon="1.92394">
        <ele>115.12338963058</ele>
        <time>2021-12-21T14:09:50Z</time>
      </trkpt>
      <trkpt lat="48.83862" lon="1.92394">
        <ele>114.99366603885</ele>
        <time>2021-12-21T14:09:52Z</time>
      </trkpt>
      <trkpt lat="48.83859" lon="1.92394">
        <ele>114.88457503542</ele>
        <time>2021-12-21T14:09:54Z</time>
      </trkpt>
      <trkpt lat="48.83857" lon="1.92394">
        <ele>114.75862782076</ele>
        <time>2021-12-21T14:09:56Z</time>
      </trkpt>
      <trkpt lat="48.83855" lon="1.92394">
        <ele>114.38828415889</ele>
        <time>2021-12-21T14:09:58Z</time>
      </trkpt>
      <trkpt lat="48.83852" lon="1.92395">
        <ele>114.33752687462</ele>
        <time>2021-12-21T14:10:00Z</time>
      </trkpt>
      <trkpt lat="48.8385" lon="1.92395">
        <ele>114.22946989723</ele>
        <time>2021-12-21T14:10:03Z</time>
      </trkpt>
      <trkpt lat="48.83848" lon="1.92394">
        <ele>113.88392603304</ele>
        <time>2021-12-21T14:10:05Z</time>
      </trkpt>
      <trkpt lat="48.8385" lon="1.92393">
        <ele>114.15967744775</ele>
        <time>2021-12-21T14:10:13Z</time>
      </trkpt>
      <trkpt lat="48.83848" lon="1.92394">
        <ele>114.31412620656</ele>
        <time>2021-12-21T14:11:02Z</time>
      </trkpt>
      <trkpt lat="48.83846" lon="1.92395">
        <ele>114.01425190549</ele>
        <time>2021-12-21T14:11:04Z</time>
      </trkpt>
      <trkpt lat="48.83843" lon="1.92393">
        <ele>113.71619822551</ele>
        <time>2021-12-21T14:11:07Z</time>
      </trkpt>
      <trkpt lat="48.83841" lon="1.92393">
        <ele>113.56241510715</ele>
        <time>2021-12-21T14:11:09Z</time>
      </trkpt>
      <trkpt lat="48.83839" lon="1.92393">
        <ele>113.58670977689</ele>
        <time>2021-12-21T14:11:11Z</time>
      </trkpt>
      <trkpt lat="48.83836" lon="1.92392">
        <ele>113.47400984261</ele>
        <time>2021-12-21T14:11:13Z</time>
      </trkpt>
      <trkpt lat="48.83833" lon="1.92391">
        <ele>113.14334457275</ele>
        <time>2021-12-21T14:11:15Z</time>
      </trkpt>
      <trkpt lat="48.83831" lon="1.92389">
        <ele>112.71926175803</ele>
        <time>2021-12-21T14:11:17Z</time>
      </trkpt>
      <trkpt lat="48.8383" lon="1.92391">
        <ele>112.89145885501</ele>
        <time>2021-12-21T14:11:24Z</time>
      </trkpt>
      <trkpt lat="48.83827" lon="1.92392">
        <ele>112.75185012445</ele>
        <time>2021-12-21T14:11:26Z</time>
      </trkpt>
      <trkpt lat="48.83825" lon="1.9239">
        <ele>111.98152634967</ele>
        <time>2021-12-21T14:11:28Z</time>
      </trkpt>
      <trkpt lat="48.83823" lon="1.92391">
        <ele>112.51931615639</ele>
        <time>2021-12-21T14:11:30Z</time>
      </trkpt>
      <trkpt lat="48.8382" lon="1.9239">
        <ele>112.87893512286</ele>
        <time>2021-12-21T14:11:32Z</time>
      </trkpt>
      <trkpt lat="48.83818" lon="1.92389">
        <ele>112.4968774775</ele>
        <time>2021-12-21T14:11:34Z</time>
      </trkpt>
      <trkpt lat="48.83815" lon="1.92389">
        <ele>112.37177518103</ele>
        <time>2021-12-21T14:11:36Z</time>
      </trkpt>
      <trkpt lat="48.83813" lon="1.92389">
        <ele>112.33336099144</ele>
        <time>2021-12-21T14:11:38Z</time>
      </trkpt>
      <trkpt lat="48.83811" lon="1.92388">
        <ele>112.04363626521</ele>
        <time>2021-12-21T14:11:40Z</time>
      </trkpt>
      <trkpt lat="48.83809" lon="1.92388">
        <ele>111.94495520368</ele>
        <time>2021-12-21T14:11:42Z</time>
      </trkpt>
      <trkpt lat="48.83806" lon="1.92389">
        <ele>111.77519137319</ele>
        <time>2021-12-21T14:11:44Z</time>
      </trkpt>
      <trkpt lat="48.83803" lon="1.92389">
        <ele>111.63443148043</ele>
        <time>2021-12-21T14:11:46Z</time>
      </trkpt>
      <trkpt lat="48.83801" lon="1.92389">
        <ele>111.48773194663</ele>
        <time>2021-12-21T14:11:48Z</time>
      </trkpt>
      <trkpt lat="48.83799" lon="1.92389">
        <ele>111.53297710698</ele>
        <time>2021-12-21T14:11:50Z</time>
      </trkpt>
      <trkpt lat="48.83797" lon="1.92388">
        <ele>111.26857821178</ele>
        <time>2021-12-21T14:11:52Z</time>
      </trkpt>
      <trkpt lat="48.83794" lon="1.92387">
        <ele>110.81468138006</ele>
        <time>2021-12-21T14:11:55Z</time>
      </trkpt>
      <trkpt lat="48.83792" lon="1.92386">
        <ele>110.65257979184</ele>
        <time>2021-12-21T14:11:57Z</time>
      </trkpt>
      <trkpt lat="48.83789" lon="1.92388">
        <ele>110.55357775651</ele>
        <time>2021-12-21T14:11:59Z</time>
      </trkpt>
      <trkpt lat="48.83787" lon="1.92386">
        <ele>110.09070725646</ele>
        <time>2021-12-21T14:12:02Z</time>
      </trkpt>
      <trkpt lat="48.83785" lon="1.92386">
        <ele>110.20894369483</ele>
        <time>2021-12-21T14:12:04Z</time>
      </trkpt>
      <trkpt lat="48.83782" lon="1.92386">
        <ele>110.07415093482</ele>
        <time>2021-12-21T14:12:06Z</time>
      </trkpt>
      <trkpt lat="48.83779" lon="1.92387">
        <ele>109.95126317441</ele>
        <time>2021-12-21T14:12:08Z</time>
      </trkpt>
      <trkpt lat="48.83777" lon="1.92386">
        <ele>109.98994990624</ele>
        <time>2021-12-21T14:12:10Z</time>
      </trkpt>
      <trkpt lat="48.83774" lon="1.92385">
        <ele>109.92133361008</ele>
        <time>2021-12-21T14:12:12Z</time>
      </trkpt>
      <trkpt lat="48.83772" lon="1.92385">
        <ele>110.05153954774</ele>
        <time>2021-12-21T14:12:14Z</time>
      </trkpt>
      <trkpt lat="48.8377" lon="1.92384">
        <ele>109.98858201597</ele>
        <time>2021-12-21T14:12:16Z</time>
      </trkpt>
      <trkpt lat="48.83767" lon="1.92384">
        <ele>109.72951123398</ele>
        <time>2021-12-21T14:12:19Z</time>
      </trkpt>
      <trkpt lat="48.83766" lon="1.92383">
        <ele>109.29440504126</ele>
        <time>2021-12-21T14:12:22Z</time>
      </trkpt>
      <trkpt lat="48.83763" lon="1.92381">
        <ele>109.40621060319</ele>
        <time>2021-12-21T14:12:28Z</time>
      </trkpt>
      <trkpt lat="48.83761" lon="1.92379">
        <ele>109.46163652278</ele>
        <time>2021-12-21T14:12:30Z</time>
      </trkpt>
      <trkpt lat="48.83759" lon="1.92377">
        <ele>109.14392176177</ele>
        <time>2021-12-21T14:12:32Z</time>
      </trkpt>
      <trkpt lat="48.83757" lon="1.92375">
        <ele>109.36321882717</ele>
        <time>2021-12-21T14:12:34Z</time>
      </trkpt>
      <trkpt lat="48.83755" lon="1.92374">
        <ele>109.07457470801</ele>
        <time>2021-12-21T14:12:36Z</time>
      </trkpt>
      <trkpt lat="48.83752" lon="1.92373">
        <ele>109.10687918402</ele>
        <time>2021-12-21T14:12:38Z</time>
      </trkpt>
      <trkpt lat="48.8375" lon="1.92373">
        <ele>108.96264891978</ele>
        <time>2021-12-21T14:12:40Z</time>
      </trkpt>
      <trkpt lat="48.83748" lon="1.92374">
        <ele>108.53337121662</ele>
        <time>2021-12-21T14:12:42Z</time>
      </trkpt>
      <trkpt lat="48.83746" lon="1.92376">
        <ele>108.42609490734</ele>
        <time>2021-12-21T14:12:44Z</time>
      </trkpt>
      <trkpt lat="48.83744" lon="1.92378">
        <ele>108.56844452862</ele>
        <time>2021-12-21T14:12:46Z</time>
      </trkpt>
      <trkpt lat="48.83742" lon="1.9238">
        <ele>108.59657660685</ele>
        <time>2021-12-21T14:12:49Z</time>
      </trkpt>
      <trkpt lat="48.8374" lon="1.92382">
        <ele>108.55110389832</ele>
        <time>2021-12-21T14:12:51Z</time>
      </trkpt>
      <trkpt lat="48.83738" lon="1.92386">
        <ele>108.23204179853</ele>
        <time>2021-12-21T14:12:54Z</time>
      </trkpt>
      <trkpt lat="48.83736" lon="1.92388">
        <ele>108.17878565285</ele>
        <time>2021-12-21T14:12:56Z</time>
      </trkpt>
      <trkpt lat="48.83735" lon="1.92391">
        <ele>108.00004071649</ele>
        <time>2021-12-21T14:12:58Z</time>
      </trkpt>
      <trkpt lat="48.83733" lon="1.92391">
        <ele>107.47958450671</ele>
        <time>2021-12-21T14:13:00Z</time>
      </trkpt>
      <trkpt lat="48.83731" lon="1.92394">
        <ele>107.42500752863</ele>
        <time>2021-12-21T14:13:02Z</time>
      </trkpt>
      <trkpt lat="48.83729" lon="1.92397">
        <ele>107.56664695591</ele>
        <time>2021-12-21T14:13:05Z</time>
      </trkpt>
      <trkpt lat="48.83727" lon="1.92398">
        <ele>107.42510402855</ele>
        <time>2021-12-21T14:13:07Z</time>
      </trkpt>
      <trkpt lat="48.83726" lon="1.92401">
        <ele>107.34517890587</ele>
        <time>2021-12-21T14:13:09Z</time>
      </trkpt>
      <trkpt lat="48.83723" lon="1.92403">
        <ele>107.33454585262</ele>
        <time>2021-12-21T14:13:11Z</time>
      </trkpt>
      <trkpt lat="48.83721" lon="1.92405">
        <ele>107.14053646009</ele>
        <time>2021-12-21T14:13:13Z</time>
      </trkpt>
      <trkpt lat="48.8372" lon="1.92407">
        <ele>106.94970321842</ele>
        <time>2021-12-21T14:13:15Z</time>
      </trkpt>
      <trkpt lat="48.83718" lon="1.92409">
        <ele>106.75115636736</ele>
        <time>2021-12-21T14:13:17Z</time>
      </trkpt>
      <trkpt lat="48.83716" lon="1.92412">
        <ele>106.39255744871</ele>
        <time>2021-12-21T14:13:20Z</time>
      </trkpt>
      <trkpt lat="48.83715" lon="1.92415">
        <ele>106.42717511579</ele>
        <time>2021-12-21T14:13:22Z</time>
      </trkpt>
      <trkpt lat="48.83713" lon="1.92417">
        <ele>106.27126229461</ele>
        <time>2021-12-21T14:13:24Z</time>
      </trkpt>
      <trkpt lat="48.83711" lon="1.92418">
        <ele>106.18739673495</ele>
        <time>2021-12-21T14:13:26Z</time>
      </trkpt>
      <trkpt lat="48.83708" lon="1.9242">
        <ele>105.90592819266</ele>
        <time>2021-12-21T14:13:28Z</time>
      </trkpt>
      <trkpt lat="48.83706" lon="1.92422">
        <ele>105.92770215776</ele>
        <time>2021-12-21T14:13:30Z</time>
      </trkpt>
      <trkpt lat="48.83705" lon="1.92424">
        <ele>105.77053270116</ele>
        <time>2021-12-21T14:13:32Z</time>
      </trkpt>
      <trkpt lat="48.83703" lon="1.92426">
        <ele>105.71810740232</ele>
        <time>2021-12-21T14:13:34Z</time>
      </trkpt>
      <trkpt lat="48.83701" lon="1.92429">
        <ele>105.68254072778</ele>
        <time>2021-12-21T14:13:36Z</time>
      </trkpt>
      <trkpt lat="48.83699" lon="1.92431">
        <ele>105.71914413199</ele>
        <time>2021-12-21T14:13:38Z</time>
      </trkpt>
      <trkpt lat="48.83697" lon="1.92434">
        <ele>105.34545626119</ele>
        <time>2021-12-21T14:13:40Z</time>
      </trkpt>
      <trkpt lat="48.83695" lon="1.92436">
        <ele>105.24969701655</ele>
        <time>2021-12-21T14:13:42Z</time>
      </trkpt>
      <trkpt lat="48.83693" lon="1.92437">
        <ele>105.19951969944</ele>
        <time>2021-12-21T14:13:44Z</time>
      </trkpt>
      <trkpt lat="48.83692" lon="1.92439">
        <ele>105.19776448794</ele>
        <time>2021-12-21T14:13:46Z</time>
      </trkpt>
      <trkpt lat="48.83689" lon="1.92442">
        <ele>104.99229665939</ele>
        <time>2021-12-21T14:13:48Z</time>
      </trkpt>
      <trkpt lat="48.83687" lon="1.92444">
        <ele>104.64814413525</ele>
        <time>2021-12-21T14:13:50Z</time>
      </trkpt>
      <trkpt lat="48.83686" lon="1.92447">
        <ele>104.65224269312</ele>
        <time>2021-12-21T14:13:52Z</time>
      </trkpt>
      <trkpt lat="48.83684" lon="1.92449">
        <ele>104.8023227118</ele>
        <time>2021-12-21T14:13:53Z</time>
      </trkpt>
      <trkpt lat="48.83682" lon="1.92452">
        <ele>104.68038547505</ele>
        <time>2021-12-21T14:13:55Z</time>
      </trkpt>
      <trkpt lat="48.8368" lon="1.92453">
        <ele>104.39625058975</ele>
        <time>2021-12-21T14:13:57Z</time>
      </trkpt>
      <trkpt lat="48.83677" lon="1.92456">
        <ele>104.21437392011</ele>
        <time>2021-12-21T14:13:59Z</time>
      </trkpt>
      <trkpt lat="48.83676" lon="1.92458">
        <ele>103.97268644255</ele>
        <time>2021-12-21T14:14:01Z</time>
      </trkpt>
      <trkpt lat="48.83674" lon="1.92459">
        <ele>103.72460920364</ele>
        <time>2021-12-21T14:14:03Z</time>
      </trkpt>
      <trkpt lat="48.83672" lon="1.92463">
        <ele>103.25520161353</ele>
        <time>2021-12-21T14:14:06Z</time>
      </trkpt>
      <trkpt lat="48.83671" lon="1.92464">
        <ele>103.02015397977</ele>
        <time>2021-12-21T14:14:08Z</time>
      </trkpt>
      <trkpt lat="48.83669" lon="1.92467">
        <ele>103.03913202044</ele>
        <time>2021-12-21T14:14:11Z</time>
      </trkpt>
      <trkpt lat="48.83666" lon="1.92469">
        <ele>103.0932459766</ele>
        <time>2021-12-21T14:14:14Z</time>
      </trkpt>
      <trkpt lat="48.83664" lon="1.92471">
        <ele>103.00167675503</ele>
        <time>2021-12-21T14:14:16Z</time>
      </trkpt>
      <trkpt lat="48.83662" lon="1.92472">
        <ele>102.70354604814</ele>
        <time>2021-12-21T14:14:18Z</time>
      </trkpt>
      <trkpt lat="48.8366" lon="1.92475">
        <ele>102.52739208099</ele>
        <time>2021-12-21T14:14:21Z</time>
      </trkpt>
      <trkpt lat="48.83659" lon="1.92479">
        <ele>102.78138504736</ele>
        <time>2021-12-21T14:14:23Z</time>
      </trkpt>
      <trkpt lat="48.83657" lon="1.92481">
        <ele>102.94711229019</ele>
        <time>2021-12-21T14:14:24Z</time>
      </trkpt>
      <trkpt lat="48.83655" lon="1.92483">
        <ele>103.04588077683</ele>
        <time>2021-12-21T14:14:26Z</time>
      </trkpt>
      <trkpt lat="48.83652" lon="1.92484">
        <ele>102.97970976774</ele>
        <time>2021-12-21T14:14:28Z</time>
      </trkpt>
      <trkpt lat="48.8365" lon="1.92485">
        <ele>102.56550565548</ele>
        <time>2021-12-21T14:14:30Z</time>
      </trkpt>
      <trkpt lat="48.83648" lon="1.92488">
        <ele>102.3014171971</ele>
        <time>2021-12-21T14:14:32Z</time>
      </trkpt>
      <trkpt lat="48.83646" lon="1.92489">
        <ele>102.13822962437</ele>
        <time>2021-12-21T14:14:34Z</time>
      </trkpt>
      <trkpt lat="48.83644" lon="1.92491">
        <ele>101.8843467012</ele>
        <time>2021-12-21T14:14:36Z</time>
      </trkpt>
      <trkpt lat="48.83642" lon="1.92493">
        <ele>101.6975646615</ele>
        <time>2021-12-21T14:14:38Z</time>
      </trkpt>
      <trkpt lat="48.8364" lon="1.92494">
        <ele>101.54896708019</ele>
        <time>2021-12-21T14:14:40Z</time>
      </trkpt>
      <trkpt lat="48.83638" lon="1.92496">
        <ele>101.23343878519</ele>
        <time>2021-12-21T14:14:42Z</time>
      </trkpt>
      <trkpt lat="48.83635" lon="1.92497">
        <ele>101.09038386494</ele>
        <time>2021-12-21T14:14:44Z</time>
      </trkpt>
      <trkpt lat="48.83633" lon="1.92499">
        <ele>100.88159025647</ele>
        <time>2021-12-21T14:14:46Z</time>
      </trkpt>
      <trkpt lat="48.83631" lon="1.925">
        <ele>100.75455019716</ele>
        <time>2021-12-21T14:14:48Z</time>
      </trkpt>
      <trkpt lat="48.83629" lon="1.92502">
        <ele>100.61963886954</ele>
        <time>2021-12-21T14:14:50Z</time>
      </trkpt>
      <trkpt lat="48.83627" lon="1.92505">
        <ele>100.50986109301</ele>
        <time>2021-12-21T14:14:52Z</time>
      </trkpt>
      <trkpt lat="48.83625" lon="1.92506">
        <ele>100.40669037774</ele>
        <time>2021-12-21T14:14:54Z</time>
      </trkpt>
      <trkpt lat="48.83623" lon="1.92508">
        <ele>100.20135317277</ele>
        <time>2021-12-21T14:14:56Z</time>
      </trkpt>
      <trkpt lat="48.8362" lon="1.92509">
        <ele>100.0772013003</ele>
        <time>2021-12-21T14:14:58Z</time>
      </trkpt>
      <trkpt lat="48.83619" lon="1.9251">
        <ele>100.24949002452</ele>
        <time>2021-12-21T14:14:59Z</time>
      </trkpt>
      <trkpt lat="48.83617" lon="1.92512">
        <ele>100.23952109646</ele>
        <time>2021-12-21T14:15:01Z</time>
      </trkpt>
      <trkpt lat="48.83615" lon="1.92514">
        <ele>100.25643128995</ele>
        <time>2021-12-21T14:15:03Z</time>
      </trkpt>
      <trkpt lat="48.83612" lon="1.92515">
        <ele>100.18144947197</ele>
        <time>2021-12-21T14:15:05Z</time>
      </trkpt>
      <trkpt lat="48.8361" lon="1.92517">
        <ele>100.07892020047</ele>
        <time>2021-12-21T14:15:07Z</time>
      </trkpt>
      <trkpt lat="48.83608" lon="1.92518">
        <ele>100.21713240817</ele>
        <time>2021-12-21T14:15:09Z</time>
      </trkpt>
      <trkpt lat="48.83606" lon="1.92521">
        <ele>100.36062374152</ele>
        <time>2021-12-21T14:15:11Z</time>
      </trkpt>
      <trkpt lat="48.83604" lon="1.92522">
        <ele>100.28539875895</ele>
        <time>2021-12-21T14:15:13Z</time>
      </trkpt>
      <trkpt lat="48.83602" lon="1.92525">
        <ele>100.25592852477</ele>
        <time>2021-12-21T14:15:15Z</time>
      </trkpt>
      <trkpt lat="48.836" lon="1.92527">
        <ele>100.43974938244</ele>
        <time>2021-12-21T14:15:17Z</time>
      </trkpt>
      <trkpt lat="48.83598" lon="1.92528">
        <ele>100.65584990662</ele>
        <time>2021-12-21T14:15:18Z</time>
      </trkpt>
      <trkpt lat="48.83596" lon="1.92529">
        <ele>100.47097678017</ele>
        <time>2021-12-21T14:15:20Z</time>
      </trkpt>
      <trkpt lat="48.83595" lon="1.92529">
        <ele>100.10428202245</ele>
        <time>2021-12-21T14:15:22Z</time>
      </trkpt>
      <trkpt lat="48.83592" lon="1.9253">
        <ele>99.695437981747</ele>
        <time>2021-12-21T14:15:24Z</time>
      </trkpt>
      <trkpt lat="48.8359" lon="1.92529">
        <ele>98.976433592848</ele>
        <time>2021-12-21T14:15:27Z</time>
      </trkpt>
      <trkpt lat="48.83588" lon="1.92531">
        <ele>99.1174355736</ele>
        <time>2021-12-21T14:15:29Z</time>
      </trkpt>
      <trkpt lat="48.83587" lon="1.92533">
        <ele>99.158877274953</ele>
        <time>2021-12-21T14:15:31Z</time>
      </trkpt>
      <trkpt lat="48.83585" lon="1.92535">
        <ele>99.275865563191</ele>
        <time>2021-12-21T14:15:33Z</time>
      </trkpt>
      <trkpt lat="48.83583" lon="1.92537">
        <ele>99.081706763245</ele>
        <time>2021-12-21T14:15:35Z</time>
      </trkpt>
      <trkpt lat="48.8358" lon="1.92539">
        <ele>98.802857864648</ele>
        <time>2021-12-21T14:15:37Z</time>
      </trkpt>
      <trkpt lat="48.83578" lon="1.92541">
        <ele>98.419210372493</ele>
        <time>2021-12-21T14:15:39Z</time>
      </trkpt>
      <trkpt lat="48.83576" lon="1.92543">
        <ele>98.344745238312</ele>
        <time>2021-12-21T14:15:41Z</time>
      </trkpt>
      <trkpt lat="48.83574" lon="1.92544">
        <ele>98.095692849718</ele>
        <time>2021-12-21T14:15:43Z</time>
      </trkpt>
      <trkpt lat="48.83572" lon="1.92546">
        <ele>97.957247252576</ele>
        <time>2021-12-21T14:15:45Z</time>
      </trkpt>
      <trkpt lat="48.8357" lon="1.92547">
        <ele>97.715491431765</ele>
        <time>2021-12-21T14:15:47Z</time>
      </trkpt>
      <trkpt lat="48.83568" lon="1.92548">
        <ele>97.463401000015</ele>
        <time>2021-12-21T14:15:49Z</time>
      </trkpt>
      <trkpt lat="48.83567" lon="1.9255">
        <ele>97.227362102829</ele>
        <time>2021-12-21T14:15:51Z</time>
      </trkpt>
      <trkpt lat="48.83565" lon="1.92553">
        <ele>97.215166891925</ele>
        <time>2021-12-21T14:15:53Z</time>
      </trkpt>
      <trkpt lat="48.83564" lon="1.92554">
        <ele>97.194754763506</ele>
        <time>2021-12-21T14:15:55Z</time>
      </trkpt>
      <trkpt lat="48.83562" lon="1.92556">
        <ele>97.050829773769</ele>
        <time>2021-12-21T14:15:57Z</time>
      </trkpt>
      <trkpt lat="48.8356" lon="1.92559">
        <ele>97.076121070422</ele>
        <time>2021-12-21T14:15:59Z</time>
      </trkpt>
      <trkpt lat="48.83557" lon="1.9256">
        <ele>96.910868190229</ele>
        <time>2021-12-21T14:16:02Z</time>
      </trkpt>
      <trkpt lat="48.83555" lon="1.92559">
        <ele>96.879377329722</ele>
        <time>2021-12-21T14:16:04Z</time>
      </trkpt>
      <trkpt lat="48.83552" lon="1.92556">
        <ele>96.473759851418</ele>
        <time>2021-12-21T14:16:06Z</time>
      </trkpt>
      <trkpt lat="48.83551" lon="1.92554">
        <ele>96.49733105395</ele>
        <time>2021-12-21T14:16:07Z</time>
      </trkpt>
      <trkpt lat="48.8355" lon="1.9255">
        <ele>96.434379024431</ele>
        <time>2021-12-21T14:16:09Z</time>
      </trkpt>
      <trkpt lat="48.83549" lon="1.92548">
        <ele>96.315145158209</ele>
        <time>2021-12-21T14:16:11Z</time>
      </trkpt>
      <trkpt lat="48.83549" lon="1.92545">
        <ele>95.517305825837</ele>
        <time>2021-12-21T14:16:20Z</time>
      </trkpt>
      <trkpt lat="48.83548" lon="1.92542">
        <ele>95.122625183314</ele>
        <time>2021-12-21T14:16:21Z</time>
      </trkpt>
      <trkpt lat="48.83547" lon="1.92539">
        <ele>94.828946566209</ele>
        <time>2021-12-21T14:16:23Z</time>
      </trkpt>
      <trkpt lat="48.83546" lon="1.92536">
        <ele>94.726463419385</ele>
        <time>2021-12-21T14:16:26Z</time>
      </trkpt>
      <trkpt lat="48.83545" lon="1.92532">
        <ele>94.96118827723</ele>
        <time>2021-12-21T14:16:28Z</time>
      </trkpt>
      <trkpt lat="48.83544" lon="1.92528">
        <ele>95.244908741675</ele>
        <time>2021-12-21T14:16:30Z</time>
      </trkpt>
      <trkpt lat="48.83543" lon="1.92525">
        <ele>95.319383854046</ele>
        <time>2021-12-21T14:16:32Z</time>
      </trkpt>
      <trkpt lat="48.83543" lon="1.92521">
        <ele>95.331555400044</ele>
        <time>2021-12-21T14:16:34Z</time>
      </trkpt>
      <trkpt lat="48.83542" lon="1.92518">
        <ele>95.205349564552</ele>
        <time>2021-12-21T14:16:36Z</time>
      </trkpt>
      <trkpt lat="48.83542" lon="1.92514">
        <ele>94.489430147223</ele>
        <time>2021-12-21T14:16:38Z</time>
      </trkpt>
      <trkpt lat="48.83541" lon="1.92512">
        <ele>94.320050800219</ele>
        <time>2021-12-21T14:16:40Z</time>
      </trkpt>
      <trkpt lat="48.8354" lon="1.92509">
        <ele>94.589693523012</ele>
        <time>2021-12-21T14:16:42Z</time>
      </trkpt>
      <trkpt lat="48.8354" lon="1.92505">
        <ele>94.158083652146</ele>
        <time>2021-12-21T14:16:44Z</time>
      </trkpt>
      <trkpt lat="48.83539" lon="1.92502">
        <ele>94.185746059753</ele>
        <time>2021-12-21T14:16:47Z</time>
      </trkpt>
      <trkpt lat="48.83539" lon="1.925">
        <ele>94.397122747265</ele>
        <time>2021-12-21T14:16:49Z</time>
      </trkpt>
      <trkpt lat="48.83538" lon="1.92497">
        <ele>94.018047375605</ele>
        <time>2021-12-21T14:16:51Z</time>
      </trkpt>
      <trkpt lat="48.83537" lon="1.92494">
        <ele>93.398309263401</ele>
        <time>2021-12-21T14:16:53Z</time>
      </trkpt>
      <trkpt lat="48.83536" lon="1.9249">
        <ele>93.234271510504</ele>
        <time>2021-12-21T14:16:56Z</time>
      </trkpt>
      <trkpt lat="48.83535" lon="1.92486">
        <ele>93.217604245059</ele>
        <time>2021-12-21T14:16:58Z</time>
      </trkpt>
      <trkpt lat="48.83534" lon="1.92482">
        <ele>92.981981777586</ele>
        <time>2021-12-21T14:17:00Z</time>
      </trkpt>
      <trkpt lat="48.83533" lon="1.92479">
        <ele>92.772354981862</ele>
        <time>2021-12-21T14:17:02Z</time>
      </trkpt>
      <trkpt lat="48.83532" lon="1.92476">
        <ele>92.693452992477</ele>
        <time>2021-12-21T14:17:04Z</time>
      </trkpt>
      <trkpt lat="48.83531" lon="1.92473">
        <ele>92.723104706034</ele>
        <time>2021-12-21T14:17:06Z</time>
      </trkpt>
      <trkpt lat="48.8353" lon="1.92469">
        <ele>92.610966918059</ele>
        <time>2021-12-21T14:17:09Z</time>
      </trkpt>
      <trkpt lat="48.83528" lon="1.92465">
        <ele>92.745348556899</ele>
        <time>2021-12-21T14:17:11Z</time>
      </trkpt>
      <trkpt lat="48.83528" lon="1.92462">
        <ele>92.588967626914</ele>
        <time>2021-12-21T14:17:13Z</time>
      </trkpt>
      <trkpt lat="48.83528" lon="1.92459">
        <ele>92.463336443529</ele>
        <time>2021-12-21T14:17:15Z</time>
      </trkpt>
      <trkpt lat="48.83528" lon="1.92455">
        <ele>92.387933704071</ele>
        <time>2021-12-21T14:17:17Z</time>
      </trkpt>
      <trkpt lat="48.83527" lon="1.92452">
        <ele>92.525963569991</ele>
        <time>2021-12-21T14:17:19Z</time>
      </trkpt>
      <trkpt lat="48.83525" lon="1.92449">
        <ele>92.433231661096</ele>
        <time>2021-12-21T14:17:21Z</time>
      </trkpt>
      <trkpt lat="48.83525" lon="1.92446">
        <ele>92.292476496659</ele>
        <time>2021-12-21T14:17:23Z</time>
      </trkpt>
      <trkpt lat="48.83524" lon="1.92441">
        <ele>92.122228833847</ele>
        <time>2021-12-21T14:17:25Z</time>
      </trkpt>
      <trkpt lat="48.83523" lon="1.92438">
        <ele>92.279493579641</ele>
        <time>2021-12-21T14:17:27Z</time>
      </trkpt>
      <trkpt lat="48.83521" lon="1.92435">
        <ele>92.464410247281</ele>
        <time>2021-12-21T14:17:29Z</time>
      </trkpt>
      <trkpt lat="48.8352" lon="1.92432">
        <ele>92.566757888533</ele>
        <time>2021-12-21T14:17:31Z</time>
      </trkpt>
      <trkpt lat="48.8352" lon="1.92429">
        <ele>92.713875269517</ele>
        <time>2021-12-21T14:17:33Z</time>
      </trkpt>
      <trkpt lat="48.83519" lon="1.92425">
        <ele>92.705958592705</ele>
        <time>2021-12-21T14:17:36Z</time>
      </trkpt>
      <trkpt lat="48.83517" lon="1.92422">
        <ele>92.911680446006</ele>
        <time>2021-12-21T14:17:38Z</time>
      </trkpt>
      <trkpt lat="48.83516" lon="1.92419">
        <ele>92.816450663842</ele>
        <time>2021-12-21T14:17:40Z</time>
      </trkpt>
      <trkpt lat="48.83516" lon="1.92416">
        <ele>92.721252687275</ele>
        <time>2021-12-21T14:17:42Z</time>
      </trkpt>
      <trkpt lat="48.83515" lon="1.92413">
        <ele>92.697657540441</ele>
        <time>2021-12-21T14:17:44Z</time>
      </trkpt>
      <trkpt lat="48.83515" lon="1.92409">
        <ele>92.651652010158</ele>
        <time>2021-12-21T14:17:46Z</time>
      </trkpt>
      <trkpt lat="48.83514" lon="1.92406">
        <ele>93.01632339973</ele>
        <time>2021-12-21T14:17:48Z</time>
      </trkpt>
      <trkpt lat="48.83513" lon="1.92402">
        <ele>92.952498628758</ele>
        <time>2021-12-21T14:17:50Z</time>
      </trkpt>
      <trkpt lat="48.83512" lon="1.92399">
        <ele>92.997054638341</ele>
        <time>2021-12-21T14:17:52Z</time>
      </trkpt>
      <trkpt lat="48.83511" lon="1.92395">
        <ele>93.35121799726</ele>
        <time>2021-12-21T14:17:54Z</time>
      </trkpt>
      <trkpt lat="48.8351" lon="1.92392">
        <ele>93.557868321426</ele>
        <time>2021-12-21T14:17:56Z</time>
      </trkpt>
      <trkpt lat="48.83509" lon="1.92389">
        <ele>93.524957849644</ele>
        <time>2021-12-21T14:17:58Z</time>
      </trkpt>
      <trkpt lat="48.83508" lon="1.92387">
        <ele>93.809610322118</ele>
        <time>2021-12-21T14:18:00Z</time>
      </trkpt>
      <trkpt lat="48.83507" lon="1.92383">
        <ele>93.826774144545</ele>
        <time>2021-12-21T14:18:02Z</time>
      </trkpt>
      <trkpt lat="48.83505" lon="1.92381">
        <ele>94.081282977946</ele>
        <time>2021-12-21T14:18:04Z</time>
      </trkpt>
      <trkpt lat="48.83505" lon="1.92378">
        <ele>94.006503100507</ele>
        <time>2021-12-21T14:18:06Z</time>
      </trkpt>
      <trkpt lat="48.83504" lon="1.92375">
        <ele>93.903291787952</ele>
        <time>2021-12-21T14:18:08Z</time>
      </trkpt>
      <trkpt lat="48.83503" lon="1.92373">
        <ele>93.697661438957</ele>
        <time>2021-12-21T14:18:10Z</time>
      </trkpt>
      <trkpt lat="48.83502" lon="1.9237">
        <ele>93.660596059635</ele>
        <time>2021-12-21T14:18:12Z</time>
      </trkpt>
      <trkpt lat="48.835" lon="1.92367">
        <ele>93.529122149572</ele>
        <time>2021-12-21T14:18:15Z</time>
      </trkpt>
      <trkpt lat="48.83498" lon="1.92364">
        <ele>93.434310094453</ele>
        <time>2021-12-21T14:18:17Z</time>
      </trkpt>
      <trkpt lat="48.83497" lon="1.92361">
        <ele>93.033100123517</ele>
        <time>2021-12-21T14:18:19Z</time>
      </trkpt>
      <trkpt lat="48.83496" lon="1.92359">
        <ele>93.199733522721</ele>
        <time>2021-12-21T14:18:21Z</time>
      </trkpt>
      <trkpt lat="48.83495" lon="1.92356">
        <ele>93.273169099353</ele>
        <time>2021-12-21T14:18:23Z</time>
      </trkpt>
      <trkpt lat="48.83494" lon="1.92352">
        <ele>93.195079407655</ele>
        <time>2021-12-21T14:18:25Z</time>
      </trkpt>
      <trkpt lat="48.83492" lon="1.9235">
        <ele>93.292417602614</ele>
        <time>2021-12-21T14:18:27Z</time>
      </trkpt>
      <trkpt lat="48.83491" lon="1.92348">
        <ele>93.33567757532</ele>
        <time>2021-12-21T14:18:29Z</time>
      </trkpt>
      <trkpt lat="48.83489" lon="1.92346">
        <ele>93.493578638881</ele>
        <time>2021-12-21T14:18:31Z</time>
      </trkpt>
      <trkpt lat="48.83488" lon="1.92343">
        <ele>93.462249878794</ele>
        <time>2021-12-21T14:18:33Z</time>
      </trkpt>
      <trkpt lat="48.83486" lon="1.9234">
        <ele>93.739367606118</ele>
        <time>2021-12-21T14:18:35Z</time>
      </trkpt>
      <trkpt lat="48.83485" lon="1.92337">
        <ele>93.87828455586</ele>
        <time>2021-12-21T14:18:37Z</time>
      </trkpt>
      <trkpt lat="48.83483" lon="1.92335">
        <ele>93.946546266787</ele>
        <time>2021-12-21T14:18:39Z</time>
      </trkpt>
      <trkpt lat="48.83482" lon="1.92332">
        <ele>93.906084511429</ele>
        <time>2021-12-21T14:18:41Z</time>
      </trkpt>
      <trkpt lat="48.8348" lon="1.92328">
        <ele>93.834381647408</ele>
        <time>2021-12-21T14:18:43Z</time>
      </trkpt>
      <trkpt lat="48.8348" lon="1.92325">
        <ele>93.576113238931</ele>
        <time>2021-12-21T14:18:45Z</time>
      </trkpt>
      <trkpt lat="48.83478" lon="1.92322">
        <ele>93.190999525599</ele>
        <time>2021-12-21T14:18:47Z</time>
      </trkpt>
      <trkpt lat="48.83477" lon="1.92318">
        <ele>92.877685861662</ele>
        <time>2021-12-21T14:18:50Z</time>
      </trkpt>
      <trkpt lat="48.83475" lon="1.92318">
        <ele>93.463456310332</ele>
        <time>2021-12-21T14:18:52Z</time>
      </trkpt>
      <trkpt lat="48.83475" lon="1.92315">
        <ele>93.069092752412</ele>
        <time>2021-12-21T14:18:55Z</time>
      </trkpt>
      <trkpt lat="48.83474" lon="1.92311">
        <ele>93.261334078386</ele>
        <time>2021-12-21T14:19:00Z</time>
      </trkpt>
      <trkpt lat="48.83472" lon="1.9231">
        <ele>93.02403137181</ele>
        <time>2021-12-21T14:19:09Z</time>
      </trkpt>
      <trkpt lat="48.83472" lon="1.92307">
        <ele>92.849186000414</ele>
        <time>2021-12-21T14:19:12Z</time>
      </trkpt>
      <trkpt lat="48.83471" lon="1.92305">
        <ele>92.485663519241</ele>
        <time>2021-12-21T14:19:16Z</time>
      </trkpt>
      <trkpt lat="48.83469" lon="1.92302">
        <ele>92.312528575771</ele>
        <time>2021-12-21T14:19:19Z</time>
      </trkpt>
      <trkpt lat="48.83468" lon="1.923">
        <ele>92.120788954198</ele>
        <time>2021-12-21T14:19:21Z</time>
      </trkpt>
      <trkpt lat="48.83466" lon="1.92297">
        <ele>91.698169539683</ele>
        <time>2021-12-21T14:19:23Z</time>
      </trkpt>
      <trkpt lat="48.83465" lon="1.92294">
        <ele>91.373769206926</ele>
        <time>2021-12-21T14:19:25Z</time>
      </trkpt>
      <trkpt lat="48.83464" lon="1.92291">
        <ele>91.261840461753</ele>
        <time>2021-12-21T14:19:27Z</time>
      </trkpt>
      <trkpt lat="48.83463" lon="1.92287">
        <ele>91.418570563197</ele>
        <time>2021-12-21T14:19:29Z</time>
      </trkpt>
      <trkpt lat="48.83461" lon="1.92284">
        <ele>91.209291252308</ele>
        <time>2021-12-21T14:19:31Z</time>
      </trkpt>
      <trkpt lat="48.8346" lon="1.92282">
        <ele>90.731980212964</ele>
        <time>2021-12-21T14:19:33Z</time>
      </trkpt>
      <trkpt lat="48.83458" lon="1.92279">
        <ele>90.518869398162</ele>
        <time>2021-12-21T14:19:35Z</time>
      </trkpt>
      <trkpt lat="48.83458" lon="1.92275">
        <ele>90.337859471329</ele>
        <time>2021-12-21T14:19:37Z</time>
      </trkpt>
      <trkpt lat="48.83457" lon="1.92272">
        <ele>90.059890653007</ele>
        <time>2021-12-21T14:19:40Z</time>
      </trkpt>
      <trkpt lat="48.83456" lon="1.92268">
        <ele>89.958891568705</ele>
        <time>2021-12-21T14:19:42Z</time>
      </trkpt>
      <trkpt lat="48.83455" lon="1.92265">
        <ele>89.961881568655</ele>
        <time>2021-12-21T14:19:44Z</time>
      </trkpt>
      <trkpt lat="48.83453" lon="1.92262">
        <ele>89.743242881261</ele>
        <time>2021-12-21T14:19:46Z</time>
      </trkpt>
      <trkpt lat="48.83453" lon="1.9226">
        <ele>89.485568140633</ele>
        <time>2021-12-21T14:19:49Z</time>
      </trkpt>
      <trkpt lat="48.83451" lon="1.92257">
        <ele>89.285600268282</ele>
        <time>2021-12-21T14:19:52Z</time>
      </trkpt>
      <trkpt lat="48.83449" lon="1.92255">
        <ele>88.968457688577</ele>
        <time>2021-12-21T14:19:54Z</time>
      </trkpt>
      <trkpt lat="48.83447" lon="1.92254">
        <ele>88.588409607299</ele>
        <time>2021-12-21T14:19:56Z</time>
      </trkpt>
      <trkpt lat="48.83445" lon="1.92254">
        <ele>88.936426204629</ele>
        <time>2021-12-21T14:19:59Z</time>
      </trkpt>
      <trkpt lat="48.83442" lon="1.92254">
        <ele>88.909549306147</ele>
        <time>2021-12-21T14:20:02Z</time>
      </trkpt>
      <trkpt lat="48.83439" lon="1.92254">
        <ele>88.851681136526</ele>
        <time>2021-12-21T14:20:04Z</time>
      </trkpt>
      <trkpt lat="48.83438" lon="1.92252">
        <ele>88.992497251369</ele>
        <time>2021-12-21T14:20:06Z</time>
      </trkpt>
      <trkpt lat="48.83436" lon="1.9225">
        <ele>88.777539622039</ele>
        <time>2021-12-21T14:20:08Z</time>
      </trkpt>
      <trkpt lat="48.83434" lon="1.92249">
        <ele>88.258490287699</ele>
        <time>2021-12-21T14:20:10Z</time>
      </trkpt>
      <trkpt lat="48.83432" lon="1.92247">
        <ele>87.750482587144</ele>
        <time>2021-12-21T14:20:13Z</time>
      </trkpt>
      <trkpt lat="48.8343" lon="1.92246">
        <ele>87.495447141118</ele>
        <time>2021-12-21T14:20:16Z</time>
      </trkpt>
      <trkpt lat="48.83429" lon="1.92244">
        <ele>87.252963678911</ele>
        <time>2021-12-21T14:20:20Z</time>
      </trkpt>
      <trkpt lat="48.83431" lon="1.92243">
        <ele>86.646894187666</ele>
        <time>2021-12-21T14:20:24Z</time>
      </trkpt>
      <trkpt lat="48.83428" lon="1.92244">
        <ele>87.523574964143</ele>
        <time>2021-12-21T14:20:31Z</time>
      </trkpt>
      <trkpt lat="48.8343" lon="1.92244">
        <ele>87.670950161293</ele>
        <time>2021-12-21T14:20:41Z</time>
      </trkpt>
      <trkpt lat="48.83431" lon="1.92246">
        <ele>87.577066767029</ele>
        <time>2021-12-21T14:20:45Z</time>
      </trkpt>
      <trkpt lat="48.8343" lon="1.92249">
        <ele>88.163251546212</ele>
        <time>2021-12-21T14:20:54Z</time>
      </trkpt>
      <trkpt lat="48.83428" lon="1.92246">
        <ele>87.625912321731</ele>
        <time>2021-12-21T14:21:05Z</time>
      </trkpt>
      <trkpt lat="48.83426" lon="1.92244">
        <ele>87.516879267059</ele>
        <time>2021-12-21T14:21:08Z</time>
      </trkpt>
      <trkpt lat="48.83425" lon="1.92242">
        <ele>87.346422895789</ele>
        <time>2021-12-21T14:21:10Z</time>
      </trkpt>
      <trkpt lat="48.83424" lon="1.92239">
        <ele>87.158376398496</ele>
        <time>2021-12-21T14:21:12Z</time>
      </trkpt>
      <trkpt lat="48.83422" lon="1.92238">
        <ele>86.800698954612</ele>
        <time>2021-12-21T14:21:14Z</time>
      </trkpt>
      <trkpt lat="48.8342" lon="1.92236">
        <ele>86.79859243799</ele>
        <time>2021-12-21T14:21:16Z</time>
      </trkpt>
      <trkpt lat="48.83418" lon="1.92232">
        <ele>86.11876473669</ele>
        <time>2021-12-21T14:21:19Z</time>
      </trkpt>
      <trkpt lat="48.83417" lon="1.92229">
        <ele>86.024609751068</ele>
        <time>2021-12-21T14:21:21Z</time>
      </trkpt>
      <trkpt lat="48.83417" lon="1.92227">
        <ele>86.46831383463</ele>
        <time>2021-12-21T14:21:26Z</time>
      </trkpt>
      <trkpt lat="48.83417" lon="1.92223">
        <ele>86.922902506776</ele>
        <time>2021-12-21T14:21:40Z</time>
      </trkpt>
      <trkpt lat="48.83416" lon="1.9222">
        <ele>87.011008242145</ele>
        <time>2021-12-21T14:21:42Z</time>
      </trkpt>
      <trkpt lat="48.83415" lon="1.92218">
        <ele>87.171399481595</ele>
        <time>2021-12-21T14:21:44Z</time>
      </trkpt>
      <trkpt lat="48.83413" lon="1.92214">
        <ele>87.404553882778</ele>
        <time>2021-12-21T14:21:47Z</time>
      </trkpt>
      <trkpt lat="48.83413" lon="1.92211">
        <ele>87.575460105203</ele>
        <time>2021-12-21T14:21:49Z</time>
      </trkpt>
      <trkpt lat="48.83413" lon="1.92207">
        <ele>87.916816825047</ele>
        <time>2021-12-21T14:21:51Z</time>
      </trkpt>
      <trkpt lat="48.83415" lon="1.92208">
        <ele>88.126526603475</ele>
        <time>2021-12-21T14:22:20Z</time>
      </trkpt>
      <trkpt lat="48.83416" lon="1.92209">
        <ele>88.013250031509</ele>
        <time>2021-12-21T14:22:42Z</time>
      </trkpt>
      <trkpt lat="48.83414" lon="1.92208">
        <ele>87.145689001307</ele>
        <time>2021-12-21T14:23:10Z</time>
      </trkpt>
      <trkpt lat="48.83413" lon="1.92205">
        <ele>87.760889305733</ele>
        <time>2021-12-21T14:23:17Z</time>
      </trkpt>
      <trkpt lat="48.83415" lon="1.92204">
        <ele>88.277609960176</ele>
        <time>2021-12-21T14:23:21Z</time>
      </trkpt>
      <trkpt lat="48.83414" lon="1.92207">
        <ele>87.737924033776</ele>
        <time>2021-12-21T14:23:32Z</time>
      </trkpt>
      <trkpt lat="48.83415" lon="1.9221">
        <ele>88.180910669267</ele>
        <time>2021-12-21T14:23:34Z</time>
      </trkpt>
      <trkpt lat="48.83415" lon="1.92213">
        <ele>88.193766876124</ele>
        <time>2021-12-21T14:23:40Z</time>
      </trkpt>
      <trkpt lat="48.83416" lon="1.92217">
        <ele>88.300698485225</ele>
        <time>2021-12-21T14:23:40Z</time>
      </trkpt>
      <trkpt lat="48.83417" lon="1.9222">
        <ele>88.08392290771</ele>
        <time>2021-12-21T14:23:40Z</time>
      </trkpt>
      <trkpt lat="48.83418" lon="1.92223">
        <ele>87.107506320812</ele>
        <time>2021-12-21T14:23:42Z</time>
      </trkpt>
      <trkpt lat="48.83418" lon="1.92227">
        <ele>86.328953705728</ele>
        <time>2021-12-21T14:23:44Z</time>
      </trkpt>
      <trkpt lat="48.83418" lon="1.9223">
        <ele>86.107699028216</ele>
        <time>2021-12-21T14:23:46Z</time>
      </trkpt>
      <trkpt lat="48.83418" lon="1.92233">
        <ele>86.001919980161</ele>
        <time>2021-12-21T14:23:48Z</time>
      </trkpt>
      <trkpt lat="48.83419" lon="1.92237">
        <ele>86.269245428033</ele>
        <time>2021-12-21T14:23:50Z</time>
      </trkpt>
      <trkpt lat="48.83421" lon="1.9224">
        <ele>86.865170977078</ele>
        <time>2021-12-21T14:23:52Z</time>
      </trkpt>
      <trkpt lat="48.83423" lon="1.92243">
        <ele>86.76742039714</ele>
        <time>2021-12-21T14:23:54Z</time>
      </trkpt>
      <trkpt lat="48.83426" lon="1.92245">
        <ele>86.756623996422</ele>
        <time>2021-12-21T14:23:56Z</time>
      </trkpt>
      <trkpt lat="48.83428" lon="1.92248">
        <ele>87.260496861301</ele>
        <time>2021-12-21T14:23:58Z</time>
      </trkpt>
      <trkpt lat="48.8343" lon="1.9225">
        <ele>87.670817032456</ele>
        <time>2021-12-21T14:24:01Z</time>
      </trkpt>
      <trkpt lat="48.83428" lon="1.92247">
        <ele>87.923692723736</ele>
        <time>2021-12-21T14:24:11Z</time>
      </trkpt>
      <trkpt lat="48.83426" lon="1.92247">
        <ele>87.979421538301</ele>
        <time>2021-12-21T14:24:13Z</time>
      </trkpt>
      <trkpt lat="48.83428" lon="1.92246">
        <ele>88.115020954981</ele>
        <time>2021-12-21T14:24:19Z</time>
      </trkpt>
      <trkpt lat="48.83427" lon="1.92242">
        <ele>87.729806880467</ele>
        <time>2021-12-21T14:24:27Z</time>
      </trkpt>
      <trkpt lat="48.83425" lon="1.9224">
        <ele>87.66779529117</ele>
        <time>2021-12-21T14:24:32Z</time>
      </trkpt>
      <trkpt lat="48.83424" lon="1.92238">
        <ele>87.326291392557</ele>
        <time>2021-12-21T14:24:34Z</time>
      </trkpt>
      <trkpt lat="48.83421" lon="1.92238">
        <ele>87.158561151475</ele>
        <time>2021-12-21T14:24:36Z</time>
      </trkpt>
      <trkpt lat="48.83419" lon="1.92235">
        <ele>86.83076503966</ele>
        <time>2021-12-21T14:24:38Z</time>
      </trkpt>
      <trkpt lat="48.83417" lon="1.92233">
        <ele>86.528418583795</ele>
        <time>2021-12-21T14:24:40Z</time>
      </trkpt>
      <trkpt lat="48.83416" lon="1.9223">
        <ele>85.718882436864</ele>
        <time>2021-12-21T14:24:42Z</time>
      </trkpt>
      <trkpt lat="48.83415" lon="1.92227">
        <ele>86.299948368222</ele>
        <time>2021-12-21T14:24:45Z</time>
      </trkpt>
      <trkpt lat="48.83414" lon="1.92223">
        <ele>86.777120932005</ele>
        <time>2021-12-21T14:24:47Z</time>
      </trkpt>
      <trkpt lat="48.83414" lon="1.92219">
        <ele>87.104127792642</ele>
        <time>2021-12-21T14:24:49Z</time>
      </trkpt>
      <trkpt lat="48.83413" lon="1.92215">
        <ele>87.461876419373</ele>
        <time>2021-12-21T14:24:51Z</time>
      </trkpt>
      <trkpt lat="48.83412" lon="1.92212">
        <ele>87.832294659689</ele>
        <time>2021-12-21T14:24:53Z</time>
      </trkpt>
      <trkpt lat="48.83411" lon="1.9221">
        <ele>88.169797305949</ele>
        <time>2021-12-21T14:24:55Z</time>
      </trkpt>
      <trkpt lat="48.83411" lon="1.92206">
        <ele>88.538390848786</ele>
        <time>2021-12-21T14:24:57Z</time>
      </trkpt>
      <trkpt lat="48.8341" lon="1.92202">
        <ele>88.739347093739</ele>
        <time>2021-12-21T14:24:59Z</time>
      </trkpt>
      <trkpt lat="48.8341" lon="1.92199">
        <ele>89.151033271104</ele>
        <time>2021-12-21T14:25:01Z</time>
      </trkpt>
      <trkpt lat="48.8341" lon="1.92194">
        <ele>89.314797723666</ele>
        <time>2021-12-21T14:25:03Z</time>
      </trkpt>
      <trkpt lat="48.83411" lon="1.92191">
        <ele>89.76744580362</ele>
        <time>2021-12-21T14:25:05Z</time>
      </trkpt>
      <trkpt lat="48.83412" lon="1.92188">
        <ele>89.865089828148</ele>
        <time>2021-12-21T14:25:07Z</time>
      </trkpt>
      <trkpt lat="48.83412" lon="1.92184">
        <ele>89.865391841158</ele>
        <time>2021-12-21T14:25:09Z</time>
      </trkpt>
      <trkpt lat="48.83411" lon="1.92187">
        <ele>89.440719697624</ele>
        <time>2021-12-21T14:25:17Z</time>
      </trkpt>
      <trkpt lat="48.83411" lon="1.92184">
        <ele>89.03051487077</ele>
        <time>2021-12-21T14:25:18Z</time>
      </trkpt>
      <trkpt lat="48.83412" lon="1.9218">
        <ele>88.932827618904</ele>
        <time>2021-12-21T14:25:18Z</time>
      </trkpt>
      <trkpt lat="48.83412" lon="1.92176">
        <ele>89.166465997696</ele>
        <time>2021-12-21T14:25:20Z</time>
      </trkpt>
      <trkpt lat="48.83413" lon="1.92173">
        <ele>89.414231579751</ele>
        <time>2021-12-21T14:25:22Z</time>
      </trkpt>
      <trkpt lat="48.83414" lon="1.9217">
        <ele>89.571594183333</ele>
        <time>2021-12-21T14:25:23Z</time>
      </trkpt>
      <trkpt lat="48.83415" lon="1.92167">
        <ele>89.577348411083</ele>
        <time>2021-12-21T14:25:25Z</time>
      </trkpt>
      <trkpt lat="48.83415" lon="1.92163">
        <ele>89.343609562144</ele>
        <time>2021-12-21T14:25:27Z</time>
      </trkpt>
      <trkpt lat="48.83415" lon="1.92159">
        <ele>89.063324138522</ele>
        <time>2021-12-21T14:25:29Z</time>
      </trkpt>
      <trkpt lat="48.83415" lon="1.92154">
        <ele>89.167883744463</ele>
        <time>2021-12-21T14:25:31Z</time>
      </trkpt>
      <trkpt lat="48.83414" lon="1.9215">
        <ele>89.371747602709</ele>
        <time>2021-12-21T14:25:33Z</time>
      </trkpt>
      <trkpt lat="48.83414" lon="1.92146">
        <ele>89.379331534728</ele>
        <time>2021-12-21T14:25:35Z</time>
      </trkpt>
      <trkpt lat="48.83414" lon="1.92143">
        <ele>89.851934721693</ele>
        <time>2021-12-21T14:25:37Z</time>
      </trkpt>
      <trkpt lat="48.83414" lon="1.9214">
        <ele>90.031539172865</ele>
        <time>2021-12-21T14:25:39Z</time>
      </trkpt>
      <trkpt lat="48.83413" lon="1.92137">
        <ele>89.993308678269</ele>
        <time>2021-12-21T14:25:41Z</time>
      </trkpt>
      <trkpt lat="48.83414" lon="1.9214">
        <ele>90.111663526855</ele>
        <time>2021-12-21T14:25:44Z</time>
      </trkpt>
      <trkpt lat="48.83416" lon="1.92141">
        <ele>89.97894550208</ele>
        <time>2021-12-21T14:25:47Z</time>
      </trkpt>
      <trkpt lat="48.83414" lon="1.9214">
        <ele>89.813261370175</ele>
        <time>2021-12-21T14:25:50Z</time>
      </trkpt>
      <trkpt lat="48.83413" lon="1.92137">
        <ele>90.10308417771</ele>
        <time>2021-12-21T14:25:54Z</time>
      </trkpt>
      <trkpt lat="48.83413" lon="1.92134">
        <ele>90.414149194956</ele>
        <time>2021-12-21T14:25:58Z</time>
      </trkpt>
      <trkpt lat="48.83414" lon="1.92131">
        <ele>90.227045491338</ele>
        <time>2021-12-21T14:26:00Z</time>
      </trkpt>
      <trkpt lat="48.83414" lon="1.92127">
        <ele>90.009480495937</ele>
        <time>2021-12-21T14:26:02Z</time>
      </trkpt>
      <trkpt lat="48.83414" lon="1.92124">
        <ele>89.788278288208</ele>
        <time>2021-12-21T14:26:04Z</time>
      </trkpt>
      <trkpt lat="48.83414" lon="1.9212">
        <ele>89.485261649825</ele>
        <time>2021-12-21T14:26:07Z</time>
      </trkpt>
      <trkpt lat="48.83414" lon="1.92116">
        <ele>88.917420144193</ele>
        <time>2021-12-21T14:26:09Z</time>
      </trkpt>
      <trkpt lat="48.83414" lon="1.92113">
        <ele>89.089590432122</ele>
        <time>2021-12-21T14:26:11Z</time>
      </trkpt>
      <trkpt lat="48.83415" lon="1.92109">
        <ele>88.950345003977</ele>
        <time>2021-12-21T14:26:13Z</time>
      </trkpt>
      <trkpt lat="48.83414" lon="1.92105">
        <ele>89.017697347328</ele>
        <time>2021-12-21T14:26:15Z</time>
      </trkpt>
      <trkpt lat="48.83415" lon="1.92101">
        <ele>89.152275497094</ele>
        <time>2021-12-21T14:26:18Z</time>
      </trkpt>
      <trkpt lat="48.83415" lon="1.92098">
        <ele>89.175785148516</ele>
        <time>2021-12-21T14:26:20Z</time>
      </trkpt>
      <trkpt lat="48.83415" lon="1.92094">
        <ele>89.254119548015</ele>
        <time>2021-12-21T14:26:22Z</time>
      </trkpt>
      <trkpt lat="48.83415" lon="1.92091">
        <ele>89.224243151024</ele>
        <time>2021-12-21T14:26:24Z</time>
      </trkpt>
      <trkpt lat="48.83415" lon="1.92088">
        <ele>89.42580422014</ele>
        <time>2021-12-21T14:26:26Z</time>
      </trkpt>
      <trkpt lat="48.83416" lon="1.92084">
        <ele>89.560714599676</ele>
        <time>2021-12-21T14:26:28Z</time>
      </trkpt>
      <trkpt lat="48.83416" lon="1.92082">
        <ele>89.241737029515</ele>
        <time>2021-12-21T14:26:30Z</time>
      </trkpt>
      <trkpt lat="48.83416" lon="1.92077">
        <ele>89.225571061485</ele>
        <time>2021-12-21T14:26:32Z</time>
      </trkpt>
      <trkpt lat="48.83416" lon="1.92074">
        <ele>89.323151367716</ele>
        <time>2021-12-21T14:26:34Z</time>
      </trkpt>
      <trkpt lat="48.83416" lon="1.92071">
        <ele>89.634499953128</ele>
        <time>2021-12-21T14:26:36Z</time>
      </trkpt>
      <trkpt lat="48.83416" lon="1.92068">
        <ele>89.788753378205</ele>
        <time>2021-12-21T14:26:38Z</time>
      </trkpt>
      <trkpt lat="48.83417" lon="1.92064">
        <ele>89.736561057158</ele>
        <time>2021-12-21T14:26:40Z</time>
      </trkpt>
      <trkpt lat="48.83418" lon="1.9206">
        <ele>90.394294142723</ele>
        <time>2021-12-21T14:26:43Z</time>
      </trkpt>
      <trkpt lat="48.83418" lon="1.92056">
        <ele>90.552817732096</ele>
        <time>2021-12-21T14:26:45Z</time>
      </trkpt>
      <trkpt lat="48.83418" lon="1.92052">
        <ele>90.608600519598</ele>
        <time>2021-12-21T14:26:48Z</time>
      </trkpt>
      <trkpt lat="48.83419" lon="1.92048">
        <ele>90.706852260046</ele>
        <time>2021-12-21T14:26:50Z</time>
      </trkpt>
      <trkpt lat="48.83419" lon="1.92045">
        <ele>90.85701430589</ele>
        <time>2021-12-21T14:26:52Z</time>
      </trkpt>
      <trkpt lat="48.83419" lon="1.92041">
        <ele>90.83215029072</ele>
        <time>2021-12-21T14:26:55Z</time>
      </trkpt>
      <trkpt lat="48.83419" lon="1.92037">
        <ele>90.566667234525</ele>
        <time>2021-12-21T14:26:57Z</time>
      </trkpt>
      <trkpt lat="48.83419" lon="1.92034">
        <ele>90.883294614963</ele>
        <time>2021-12-21T14:26:59Z</time>
      </trkpt>
      <trkpt lat="48.83418" lon="1.9203">
        <ele>91.244971669279</ele>
        <time>2021-12-21T14:27:01Z</time>
      </trkpt>
      <trkpt lat="48.83418" lon="1.92026">
        <ele>91.476739274338</ele>
        <time>2021-12-21T14:27:03Z</time>
      </trkpt>
      <trkpt lat="48.83418" lon="1.92023">
        <ele>91.311116996221</ele>
        <time>2021-12-21T14:27:05Z</time>
      </trkpt>
      <trkpt lat="48.83418" lon="1.92019">
        <ele>91.833481529728</ele>
        <time>2021-12-21T14:27:07Z</time>
      </trkpt>
      <trkpt lat="48.83417" lon="1.92016">
        <ele>91.710364216939</ele>
        <time>2021-12-21T14:27:09Z</time>
      </trkpt>
      <trkpt lat="48.83418" lon="1.92013">
        <ele>91.961462580599</ele>
        <time>2021-12-21T14:27:11Z</time>
      </trkpt>
      <trkpt lat="48.83419" lon="1.92009">
        <ele>91.838698996231</ele>
        <time>2021-12-21T14:27:14Z</time>
      </trkpt>
      <trkpt lat="48.83419" lon="1.92005">
        <ele>91.911189179868</ele>
        <time>2021-12-21T14:27:17Z</time>
      </trkpt>
      <trkpt lat="48.83419" lon="1.92001">
        <ele>91.903522175737</ele>
        <time>2021-12-21T14:27:19Z</time>
      </trkpt>
      <trkpt lat="48.83419" lon="1.91998">
        <ele>92.195070344955</ele>
        <time>2021-12-21T14:27:21Z</time>
      </trkpt>
      <trkpt lat="48.83419" lon="1.91994">
        <ele>92.451084105298</ele>
        <time>2021-12-21T14:27:23Z</time>
      </trkpt>
      <trkpt lat="48.83419" lon="1.91991">
        <ele>91.967884305865</ele>
        <time>2021-12-21T14:27:25Z</time>
      </trkpt>
      <trkpt lat="48.83419" lon="1.91987">
        <ele>92.37984827999</ele>
        <time>2021-12-21T14:27:27Z</time>
      </trkpt>
      <trkpt lat="48.83419" lon="1.91984">
        <ele>92.542484572157</ele>
        <time>2021-12-21T14:27:29Z</time>
      </trkpt>
      <trkpt lat="48.83419" lon="1.91981">
        <ele>93.039198737592</ele>
        <time>2021-12-21T14:27:31Z</time>
      </trkpt>
      <trkpt lat="48.83419" lon="1.91977">
        <ele>93.276377882808</ele>
        <time>2021-12-21T14:27:33Z</time>
      </trkpt>
      <trkpt lat="48.83419" lon="1.91973">
        <ele>93.39434665069</ele>
        <time>2021-12-21T14:27:35Z</time>
      </trkpt>
      <trkpt lat="48.83419" lon="1.9197">
        <ele>93.548866205849</ele>
        <time>2021-12-21T14:27:37Z</time>
      </trkpt>
      <trkpt lat="48.8342" lon="1.91966">
        <ele>93.661015650257</ele>
        <time>2021-12-21T14:27:40Z</time>
      </trkpt>
      <trkpt lat="48.8342" lon="1.91963">
        <ele>93.730285163969</ele>
        <time>2021-12-21T14:27:42Z</time>
      </trkpt>
      <trkpt lat="48.8342" lon="1.91958">
        <ele>93.922495316714</ele>
        <time>2021-12-21T14:27:44Z</time>
      </trkpt>
      <trkpt lat="48.83421" lon="1.91955">
        <ele>93.744430121034</ele>
        <time>2021-12-21T14:27:46Z</time>
      </trkpt>
      <trkpt lat="48.83421" lon="1.91952">
        <ele>94.019350660965</ele>
        <time>2021-12-21T14:27:48Z</time>
      </trkpt>
      <trkpt lat="48.83421" lon="1.91948">
        <ele>94.407109805383</ele>
        <time>2021-12-21T14:27:50Z</time>
      </trkpt>
      <trkpt lat="48.83421" lon="1.91945">
        <ele>94.403775728308</ele>
        <time>2021-12-21T14:27:52Z</time>
      </trkpt>
      <trkpt lat="48.83421" lon="1.91943">
        <ele>94.192125268281</ele>
        <time>2021-12-21T14:27:54Z</time>
      </trkpt>
      <trkpt lat="48.83422" lon="1.91939">
        <ele>93.812368616462</ele>
        <time>2021-12-21T14:27:56Z</time>
      </trkpt>
      <trkpt lat="48.83421" lon="1.91935">
        <ele>93.808808909729</ele>
        <time>2021-12-21T14:27:58Z</time>
      </trkpt>
      <trkpt lat="48.83422" lon="1.91932">
        <ele>94.596259151585</ele>
        <time>2021-12-21T14:28:00Z</time>
      </trkpt>
      <trkpt lat="48.83424" lon="1.91931">
        <ele>94.538906056434</ele>
        <time>2021-12-21T14:28:02Z</time>
      </trkpt>
      <trkpt lat="48.83423" lon="1.91928">
        <ele>94.543485253118</ele>
        <time>2021-12-21T14:28:05Z</time>
      </trkpt>
      <trkpt lat="48.83424" lon="1.91924">
        <ele>94.486276400276</ele>
        <time>2021-12-21T14:28:08Z</time>
      </trkpt>
      <trkpt lat="48.83425" lon="1.9192">
        <ele>94.454846066423</ele>
        <time>2021-12-21T14:28:10Z</time>
      </trkpt>
      <trkpt lat="48.83425" lon="1.91916">
        <ele>94.454939484596</ele>
        <time>2021-12-21T14:28:12Z</time>
      </trkpt>
      <trkpt lat="48.83425" lon="1.91913">
        <ele>94.485946331173</ele>
        <time>2021-12-21T14:28:13Z</time>
      </trkpt>
      <trkpt lat="48.83425" lon="1.9191">
        <ele>94.512558578514</ele>
        <time>2021-12-21T14:28:15Z</time>
      </trkpt>
      <trkpt lat="48.83425" lon="1.91906">
        <ele>94.559121631086</ele>
        <time>2021-12-21T14:28:17Z</time>
      </trkpt>
      <trkpt lat="48.83425" lon="1.91903">
        <ele>94.550815604627</ele>
        <time>2021-12-21T14:28:19Z</time>
      </trkpt>
      <trkpt lat="48.83426" lon="1.91899">
        <ele>94.07338048704</ele>
        <time>2021-12-21T14:28:21Z</time>
      </trkpt>
      <trkpt lat="48.83427" lon="1.91896">
        <ele>94.186499799602</ele>
        <time>2021-12-21T14:28:23Z</time>
      </trkpt>
      <trkpt lat="48.83427" lon="1.91892">
        <ele>94.233433901332</ele>
        <time>2021-12-21T14:28:25Z</time>
      </trkpt>
      <trkpt lat="48.83427" lon="1.91889">
        <ele>94.00798150152</ele>
        <time>2021-12-21T14:28:27Z</time>
      </trkpt>
      <trkpt lat="48.83428" lon="1.91886">
        <ele>93.863353414461</ele>
        <time>2021-12-21T14:28:29Z</time>
      </trkpt>
      <trkpt lat="48.83428" lon="1.91881">
        <ele>94.085145932622</ele>
        <time>2021-12-21T14:28:31Z</time>
      </trkpt>
      <trkpt lat="48.83428" lon="1.91878">
        <ele>94.062550592236</ele>
        <time>2021-12-21T14:28:33Z</time>
      </trkpt>
      <trkpt lat="48.83429" lon="1.91875">
        <ele>93.723155454732</ele>
        <time>2021-12-21T14:28:35Z</time>
      </trkpt>
      <trkpt lat="48.83429" lon="1.91872">
        <ele>94.055674501695</ele>
        <time>2021-12-21T14:28:37Z</time>
      </trkpt>
      <trkpt lat="48.83429" lon="1.91867">
        <ele>94.083611800335</ele>
        <time>2021-12-21T14:28:39Z</time>
      </trkpt>
      <trkpt lat="48.8343" lon="1.91864">
        <ele>94.008884072304</ele>
        <time>2021-12-21T14:28:42Z</time>
      </trkpt>
      <trkpt lat="48.8343" lon="1.91861">
        <ele>94.193204967305</ele>
        <time>2021-12-21T14:28:44Z</time>
      </trkpt>
      <trkpt lat="48.8343" lon="1.91857">
        <ele>94.269647948444</ele>
        <time>2021-12-21T14:28:46Z</time>
      </trkpt>
      <trkpt lat="48.83431" lon="1.91854">
        <ele>94.342998370528</ele>
        <time>2021-12-21T14:28:48Z</time>
      </trkpt>
      <trkpt lat="48.83431" lon="1.91849">
        <ele>94.420789912343</ele>
        <time>2021-12-21T14:28:50Z</time>
      </trkpt>
      <trkpt lat="48.83431" lon="1.91846">
        <ele>94.50610306859</ele>
        <time>2021-12-21T14:28:52Z</time>
      </trkpt>
      <trkpt lat="48.83432" lon="1.91843">
        <ele>94.387636099942</ele>
        <time>2021-12-21T14:28:54Z</time>
      </trkpt>
      <trkpt lat="48.83432" lon="1.9184">
        <ele>94.529792970046</ele>
        <time>2021-12-21T14:28:56Z</time>
      </trkpt>
      <trkpt lat="48.83433" lon="1.91835">
        <ele>94.867824262008</ele>
        <time>2021-12-21T14:28:59Z</time>
      </trkpt>
      <trkpt lat="48.83433" lon="1.91833">
        <ele>94.796222609468</ele>
        <time>2021-12-21T14:29:01Z</time>
      </trkpt>
      <trkpt lat="48.83433" lon="1.9183">
        <ele>94.826075256802</ele>
        <time>2021-12-21T14:29:03Z</time>
      </trkpt>
      <trkpt lat="48.83434" lon="1.91826">
        <ele>94.950972842053</ele>
        <time>2021-12-21T14:29:05Z</time>
      </trkpt>
      <trkpt lat="48.83434" lon="1.91823">
        <ele>94.939660363831</ele>
        <time>2021-12-21T14:29:07Z</time>
      </trkpt>
      <trkpt lat="48.83435" lon="1.91819">
        <ele>94.710752350278</ele>
        <time>2021-12-21T14:29:10Z</time>
      </trkpt>
      <trkpt lat="48.83436" lon="1.91816">
        <ele>94.75774085708</ele>
        <time>2021-12-21T14:29:12Z</time>
      </trkpt>
      <trkpt lat="48.83436" lon="1.91811">
        <ele>94.877747866325</ele>
        <time>2021-12-21T14:29:14Z</time>
      </trkpt>
      <trkpt lat="48.83436" lon="1.91808">
        <ele>94.863601242192</ele>
        <time>2021-12-21T14:29:16Z</time>
      </trkpt>
      <trkpt lat="48.83436" lon="1.91805">
        <ele>94.711842961609</ele>
        <time>2021-12-21T14:29:18Z</time>
      </trkpt>
      <trkpt lat="48.83436" lon="1.91801">
        <ele>94.684291578829</ele>
        <time>2021-12-21T14:29:20Z</time>
      </trkpt>
      <trkpt lat="48.83437" lon="1.91798">
        <ele>94.510798068717</ele>
        <time>2021-12-21T14:29:22Z</time>
      </trkpt>
      <trkpt lat="48.83437" lon="1.91794">
        <ele>94.392207940109</ele>
        <time>2021-12-21T14:29:24Z</time>
      </trkpt>
      <trkpt lat="48.83437" lon="1.9179">
        <ele>94.074063244276</ele>
        <time>2021-12-21T14:29:26Z</time>
      </trkpt>
      <trkpt lat="48.83438" lon="1.91788">
        <ele>94.165017394349</ele>
        <time>2021-12-21T14:29:28Z</time>
      </trkpt>
      <trkpt lat="48.83438" lon="1.91784">
        <ele>94.028079404496</ele>
        <time>2021-12-21T14:29:30Z</time>
      </trkpt>
      <trkpt lat="48.83438" lon="1.91781">
        <ele>94.188845671713</ele>
        <time>2021-12-21T14:29:32Z</time>
      </trkpt>
      <trkpt lat="48.83439" lon="1.91777">
        <ele>94.321859615855</ele>
        <time>2021-12-21T14:29:34Z</time>
      </trkpt>
      <trkpt lat="48.8344" lon="1.91774">
        <ele>93.918495810591</ele>
        <time>2021-12-21T14:29:37Z</time>
      </trkpt>
      <trkpt lat="48.8344" lon="1.9177">
        <ele>93.869962254539</ele>
        <time>2021-12-21T14:29:39Z</time>
      </trkpt>
      <trkpt lat="48.8344" lon="1.91766">
        <ele>93.316839925013</ele>
        <time>2021-12-21T14:29:41Z</time>
      </trkpt>
      <trkpt lat="48.83441" lon="1.91763">
        <ele>93.145480788313</ele>
        <time>2021-12-21T14:29:43Z</time>
      </trkpt>
      <trkpt lat="48.83441" lon="1.91759">
        <ele>92.895701186731</ele>
        <time>2021-12-21T14:29:45Z</time>
      </trkpt>
      <trkpt lat="48.83442" lon="1.91755">
        <ele>92.844002054073</ele>
        <time>2021-12-21T14:29:47Z</time>
      </trkpt>
      <trkpt lat="48.83442" lon="1.91751">
        <ele>92.738670227118</ele>
        <time>2021-12-21T14:29:49Z</time>
      </trkpt>
      <trkpt lat="48.83442" lon="1.91747">
        <ele>92.423917544074</ele>
        <time>2021-12-21T14:29:52Z</time>
      </trkpt>
      <trkpt lat="48.83443" lon="1.91744">
        <ele>92.498086974025</ele>
        <time>2021-12-21T14:29:54Z</time>
      </trkpt>
      <trkpt lat="48.83443" lon="1.9174">
        <ele>92.417553740554</ele>
        <time>2021-12-21T14:29:57Z</time>
      </trkpt>
      <trkpt lat="48.83444" lon="1.91735">
        <ele>92.47899715323</ele>
        <time>2021-12-21T14:29:59Z</time>
      </trkpt>
      <trkpt lat="48.83444" lon="1.91732">
        <ele>91.978198157623</ele>
        <time>2021-12-21T14:30:01Z</time>
      </trkpt>
      <trkpt lat="48.83444" lon="1.91727">
        <ele>91.817554804496</ele>
        <time>2021-12-21T14:30:03Z</time>
      </trkpt>
      <trkpt lat="48.83444" lon="1.91724">
        <ele>91.295783824287</ele>
        <time>2021-12-21T14:30:05Z</time>
      </trkpt>
      <trkpt lat="48.83445" lon="1.91721">
        <ele>91.149020840414</ele>
        <time>2021-12-21T14:30:07Z</time>
      </trkpt>
      <trkpt lat="48.83446" lon="1.91718">
        <ele>91.034551516175</ele>
        <time>2021-12-21T14:30:09Z</time>
      </trkpt>
      <trkpt lat="48.83447" lon="1.91715">
        <ele>91.086583202705</ele>
        <time>2021-12-21T14:30:11Z</time>
      </trkpt>
      <trkpt lat="48.83447" lon="1.91711">
        <ele>91.073178124614</ele>
        <time>2021-12-21T14:30:14Z</time>
      </trkpt>
      <trkpt lat="48.83447" lon="1.91707">
        <ele>91.303744224831</ele>
        <time>2021-12-21T14:30:16Z</time>
      </trkpt>
      <trkpt lat="48.83448" lon="1.91704">
        <ele>91.339756255969</ele>
        <time>2021-12-21T14:30:18Z</time>
      </trkpt>
      <trkpt lat="48.83448" lon="1.91701">
        <ele>91.209672589786</ele>
        <time>2021-12-21T14:30:20Z</time>
      </trkpt>
      <trkpt lat="48.83449" lon="1.91697">
        <ele>91.27259378694</ele>
        <time>2021-12-21T14:30:22Z</time>
      </trkpt>
      <trkpt lat="48.8345" lon="1.91694">
        <ele>91.492652403191</ele>
        <time>2021-12-21T14:30:24Z</time>
      </trkpt>
      <trkpt lat="48.8345" lon="1.91691">
        <ele>91.234956810251</ele>
        <time>2021-12-21T14:30:26Z</time>
      </trkpt>
      <trkpt lat="48.83451" lon="1.91688">
        <ele>91.267944728956</ele>
        <time>2021-12-21T14:30:28Z</time>
      </trkpt>
      <trkpt lat="48.83451" lon="1.91685">
        <ele>91.125429456122</ele>
        <time>2021-12-21T14:30:30Z</time>
      </trkpt>
      <trkpt lat="48.83451" lon="1.91681">
        <ele>91.357499535196</ele>
        <time>2021-12-21T14:30:32Z</time>
      </trkpt>
      <trkpt lat="48.83452" lon="1.91676">
        <ele>90.868641975336</ele>
        <time>2021-12-21T14:30:35Z</time>
      </trkpt>
      <trkpt lat="48.83453" lon="1.91673">
        <ele>90.918150119483</ele>
        <time>2021-12-21T14:30:37Z</time>
      </trkpt>
      <trkpt lat="48.83454" lon="1.9167">
        <ele>90.966620534658</ele>
        <time>2021-12-21T14:30:39Z</time>
      </trkpt>
      <trkpt lat="48.83454" lon="1.91666">
        <ele>91.023727925494</ele>
        <time>2021-12-21T14:30:41Z</time>
      </trkpt>
      <trkpt lat="48.83454" lon="1.91662">
        <ele>91.082100235857</ele>
        <time>2021-12-21T14:30:43Z</time>
      </trkpt>
      <trkpt lat="48.83454" lon="1.91658">
        <ele>91.032423770055</ele>
        <time>2021-12-21T14:30:45Z</time>
      </trkpt>
      <trkpt lat="48.83455" lon="1.91654">
        <ele>90.876495313831</ele>
        <time>2021-12-21T14:30:47Z</time>
      </trkpt>
      <trkpt lat="48.83456" lon="1.91651">
        <ele>90.848088162951</ele>
        <time>2021-12-21T14:30:49Z</time>
      </trkpt>
      <trkpt lat="48.83456" lon="1.91647">
        <ele>90.701486101374</ele>
        <time>2021-12-21T14:30:51Z</time>
      </trkpt>
      <trkpt lat="48.83457" lon="1.91644">
        <ele>90.396271361969</ele>
        <time>2021-12-21T14:30:53Z</time>
      </trkpt>
      <trkpt lat="48.83457" lon="1.9164">
        <ele>90.557735099457</ele>
        <time>2021-12-21T14:30:55Z</time>
      </trkpt>
      <trkpt lat="48.83457" lon="1.91638">
        <ele>90.556982208975</ele>
        <time>2021-12-21T14:30:56Z</time>
      </trkpt>
      <trkpt lat="48.83457" lon="1.91634">
        <ele>90.526277125813</ele>
        <time>2021-12-21T14:30:58Z</time>
      </trkpt>
      <trkpt lat="48.83458" lon="1.91631">
        <ele>90.316562884487</ele>
        <time>2021-12-21T14:31:00Z</time>
      </trkpt>
      <trkpt lat="48.83459" lon="1.91627">
        <ele>90.132957716472</ele>
        <time>2021-12-21T14:31:02Z</time>
      </trkpt>
      <trkpt lat="48.83459" lon="1.91624">
        <ele>89.919636153616</ele>
        <time>2021-12-21T14:31:04Z</time>
      </trkpt>
      <trkpt lat="48.8346" lon="1.9162">
        <ele>90.180744499899</ele>
        <time>2021-12-21T14:31:06Z</time>
      </trkpt>
      <trkpt lat="48.8346" lon="1.91616">
        <ele>90.249479257502</ele>
        <time>2021-12-21T14:31:08Z</time>
      </trkpt>
      <trkpt lat="48.83462" lon="1.91614">
        <ele>89.978517577983</ele>
        <time>2021-12-21T14:31:10Z</time>
      </trkpt>
      <trkpt lat="48.83462" lon="1.9161">
        <ele>89.867229104973</ele>
        <time>2021-12-21T14:31:12Z</time>
      </trkpt>
      <trkpt lat="48.83462" lon="1.91607">
        <ele>89.652317846194</ele>
        <time>2021-12-21T14:31:14Z</time>
      </trkpt>
      <trkpt lat="48.83463" lon="1.91603">
        <ele>89.620535674505</ele>
        <time>2021-12-21T14:31:16Z</time>
      </trkpt>
      <trkpt lat="48.83464" lon="1.916">
        <ele>89.737456412055</ele>
        <time>2021-12-21T14:31:18Z</time>
      </trkpt>
      <trkpt lat="48.83466" lon="1.91596">
        <ele>90.015187744983</ele>
        <time>2021-12-21T14:31:20Z</time>
      </trkpt>
      <trkpt lat="48.83467" lon="1.91593">
        <ele>90.101411294192</ele>
        <time>2021-12-21T14:31:22Z</time>
      </trkpt>
      <trkpt lat="48.83467" lon="1.9159">
        <ele>90.074025541544</ele>
        <time>2021-12-21T14:31:24Z</time>
      </trkpt>
      <trkpt lat="48.83468" lon="1.91586">
        <ele>90.207532608882</ele>
        <time>2021-12-21T14:31:26Z</time>
      </trkpt>
      <trkpt lat="48.83468" lon="1.91583">
        <ele>90.649109723046</ele>
        <time>2021-12-21T14:31:28Z</time>
      </trkpt>
      <trkpt lat="48.83469" lon="1.91581">
        <ele>90.807779658586</ele>
        <time>2021-12-21T14:31:30Z</time>
      </trkpt>
      <trkpt lat="48.8347" lon="1.91578">
        <ele>91.064199736342</ele>
        <time>2021-12-21T14:31:32Z</time>
      </trkpt>
      <trkpt lat="48.83471" lon="1.91574">
        <ele>91.285101320595</ele>
        <time>2021-12-21T14:31:34Z</time>
      </trkpt>
      <trkpt lat="48.83471" lon="1.91571">
        <ele>91.333182113245</ele>
        <time>2021-12-21T14:31:36Z</time>
      </trkpt>
      <trkpt lat="48.83473" lon="1.91567">
        <ele>91.413422989659</ele>
        <time>2021-12-21T14:31:38Z</time>
      </trkpt>
      <trkpt lat="48.83473" lon="1.91563">
        <ele>91.545940171927</ele>
        <time>2021-12-21T14:31:40Z</time>
      </trkpt>
      <trkpt lat="48.83474" lon="1.9156">
        <ele>91.712110557593</ele>
        <time>2021-12-21T14:31:42Z</time>
      </trkpt>
      <trkpt lat="48.83475" lon="1.91556">
        <ele>91.52629569266</ele>
        <time>2021-12-21T14:31:44Z</time>
      </trkpt>
      <trkpt lat="48.83476" lon="1.91552">
        <ele>91.33324209787</ele>
        <time>2021-12-21T14:31:46Z</time>
      </trkpt>
      <trkpt lat="48.83477" lon="1.91549">
        <ele>91.429594040848</ele>
        <time>2021-12-21T14:31:48Z</time>
      </trkpt>
      <trkpt lat="48.83478" lon="1.91545">
        <ele>91.350087223575</ele>
        <time>2021-12-21T14:31:50Z</time>
      </trkpt>
      <trkpt lat="48.83478" lon="1.91541">
        <ele>91.434179513715</ele>
        <time>2021-12-21T14:31:52Z</time>
      </trkpt>
      <trkpt lat="48.83479" lon="1.91538">
        <ele>91.626705180854</ele>
        <time>2021-12-21T14:31:54Z</time>
      </trkpt>
      <trkpt lat="48.8348" lon="1.91535">
        <ele>91.968938699923</ele>
        <time>2021-12-21T14:31:56Z</time>
      </trkpt>
      <trkpt lat="48.8348" lon="1.91532">
        <ele>91.787752740085</ele>
        <time>2021-12-21T14:31:57Z</time>
      </trkpt>
      <trkpt lat="48.8348" lon="1.91528">
        <ele>91.787899680436</ele>
        <time>2021-12-21T14:31:59Z</time>
      </trkpt>
      <trkpt lat="48.83481" lon="1.91525">
        <ele>91.519318623468</ele>
        <time>2021-12-21T14:32:01Z</time>
      </trkpt>
      <trkpt lat="48.83483" lon="1.91522">
        <ele>91.649732937105</ele>
        <time>2021-12-21T14:32:03Z</time>
      </trkpt>
      <trkpt lat="48.83483" lon="1.91518">
        <ele>92.073890232481</ele>
        <time>2021-12-21T14:32:05Z</time>
      </trkpt>
      <trkpt lat="48.83483" lon="1.91515">
        <ele>92.185962089337</ele>
        <time>2021-12-21T14:32:07Z</time>
      </trkpt>
      <trkpt lat="48.83485" lon="1.91512">
        <ele>91.943594172597</ele>
        <time>2021-12-21T14:32:08Z</time>
      </trkpt>
      <trkpt lat="48.83486" lon="1.91508">
        <ele>91.754156280309</ele>
        <time>2021-12-21T14:32:11Z</time>
      </trkpt>
      <trkpt lat="48.83486" lon="1.91505">
        <ele>91.734430436976</ele>
        <time>2021-12-21T14:32:13Z</time>
      </trkpt>
      <trkpt lat="48.83487" lon="1.91501">
        <ele>92.266096277162</ele>
        <time>2021-12-21T14:32:15Z</time>
      </trkpt>
      <trkpt lat="48.83489" lon="1.91498">
        <ele>92.229761678725</ele>
        <time>2021-12-21T14:32:17Z</time>
      </trkpt>
      <trkpt lat="48.8349" lon="1.91495">
        <ele>92.002693627961</ele>
        <time>2021-12-21T14:32:19Z</time>
      </trkpt>
      <trkpt lat="48.83491" lon="1.91492">
        <ele>92.169525394216</ele>
        <time>2021-12-21T14:32:21Z</time>
      </trkpt>
      <trkpt lat="48.83493" lon="1.9149">
        <ele>92.153460227884</ele>
        <time>2021-12-21T14:32:23Z</time>
      </trkpt>
      <trkpt lat="48.83494" lon="1.91487">
        <ele>91.923743781634</ele>
        <time>2021-12-21T14:32:25Z</time>
      </trkpt>
      <trkpt lat="48.83495" lon="1.91484">
        <ele>91.995973636396</ele>
        <time>2021-12-21T14:32:27Z</time>
      </trkpt>
      <trkpt lat="48.83496" lon="1.9148">
        <ele>91.977806568146</ele>
        <time>2021-12-21T14:32:29Z</time>
      </trkpt>
      <trkpt lat="48.83497" lon="1.91476">
        <ele>92.089193354361</ele>
        <time>2021-12-21T14:32:31Z</time>
      </trkpt>
      <trkpt lat="48.83497" lon="1.91472">
        <ele>92.18511859607</ele>
        <time>2021-12-21T14:32:33Z</time>
      </trkpt>
      <trkpt lat="48.83497" lon="1.91468">
        <ele>92.126121871173</ele>
        <time>2021-12-21T14:32:35Z</time>
      </trkpt>
      <trkpt lat="48.83498" lon="1.91466">
        <ele>91.73754267022</ele>
        <time>2021-12-21T14:32:37Z</time>
      </trkpt>
      <trkpt lat="48.83498" lon="1.91462">
        <ele>91.650863206014</ele>
        <time>2021-12-21T14:32:39Z</time>
      </trkpt>
      <trkpt lat="48.83498" lon="1.91458">
        <ele>91.577864065766</ele>
        <time>2021-12-21T14:32:41Z</time>
      </trkpt>
      <trkpt lat="48.83499" lon="1.91455">
        <ele>91.725240417756</ele>
        <time>2021-12-21T14:32:43Z</time>
      </trkpt>
      <trkpt lat="48.835" lon="1.91452">
        <ele>91.624084300362</ele>
        <time>2021-12-21T14:32:45Z</time>
      </trkpt>
      <trkpt lat="48.83502" lon="1.91449">
        <ele>91.780899037607</ele>
        <time>2021-12-21T14:32:48Z</time>
      </trkpt>
      <trkpt lat="48.83502" lon="1.91447">
        <ele>91.915792856365</ele>
        <time>2021-12-21T14:32:50Z</time>
      </trkpt>
      <trkpt lat="48.83503" lon="1.91444">
        <ele>91.953098475933</ele>
        <time>2021-12-21T14:32:52Z</time>
      </trkpt>
      <trkpt lat="48.83504" lon="1.91441">
        <ele>92.07789685484</ele>
        <time>2021-12-21T14:32:54Z</time>
      </trkpt>
      <trkpt lat="48.83506" lon="1.91443">
        <ele>91.70241282694</ele>
        <time>2021-12-21T14:32:57Z</time>
      </trkpt>
      <trkpt lat="48.83508" lon="1.91445">
        <ele>91.650333350524</ele>
        <time>2021-12-21T14:33:00Z</time>
      </trkpt>
      <trkpt lat="48.83509" lon="1.91444">
        <ele>91.324539845809</ele>
        <time>2021-12-21T14:33:02Z</time>
      </trkpt>
      <trkpt lat="48.83511" lon="1.91442">
        <ele>90.819657918997</ele>
        <time>2021-12-21T14:33:04Z</time>
      </trkpt>
      <trkpt lat="48.83513" lon="1.91439">
        <ele>90.601985323243</ele>
        <time>2021-12-21T14:33:07Z</time>
      </trkpt>
      <trkpt lat="48.83515" lon="1.91438">
        <ele>90.780010986142</ele>
        <time>2021-12-21T14:33:09Z</time>
      </trkpt>
      <trkpt lat="48.83518" lon="1.91439">
        <ele>90.84308029525</ele>
        <time>2021-12-21T14:33:11Z</time>
      </trkpt>
      <trkpt lat="48.8352" lon="1.91441">
        <ele>90.556455727667</ele>
        <time>2021-12-21T14:33:13Z</time>
      </trkpt>
      <trkpt lat="48.83524" lon="1.91441">
        <ele>90.019851993769</ele>
        <time>2021-12-21T14:33:15Z</time>
      </trkpt>
      <trkpt lat="48.83526" lon="1.91443">
        <ele>89.40479303617</ele>
        <time>2021-12-21T14:33:17Z</time>
      </trkpt>
      <trkpt lat="48.83529" lon="1.91444">
        <ele>89.305961637758</ele>
        <time>2021-12-21T14:33:19Z</time>
      </trkpt>
      <trkpt lat="48.8353" lon="1.91446">
        <ele>89.374790489674</ele>
        <time>2021-12-21T14:33:22Z</time>
      </trkpt>
      <trkpt lat="48.83532" lon="1.91447">
        <ele>89.444278762676</ele>
        <time>2021-12-21T14:33:23Z</time>
      </trkpt>
      <trkpt lat="48.83535" lon="1.91448">
        <ele>89.410528771579</ele>
        <time>2021-12-21T14:33:25Z</time>
      </trkpt>
      <trkpt lat="48.83538" lon="1.91449">
        <ele>89.290995399468</ele>
        <time>2021-12-21T14:33:27Z</time>
      </trkpt>
      <trkpt lat="48.83541" lon="1.9145">
        <ele>89.364541434683</ele>
        <time>2021-12-21T14:33:29Z</time>
      </trkpt>
      <trkpt lat="48.83544" lon="1.9145">
        <ele>89.169075759128</ele>
        <time>2021-12-21T14:33:32Z</time>
      </trkpt>
      <trkpt lat="48.83547" lon="1.91451">
        <ele>88.879447694868</ele>
        <time>2021-12-21T14:33:35Z</time>
      </trkpt>
      <trkpt lat="48.83549" lon="1.91452">
        <ele>88.967917921022</ele>
        <time>2021-12-21T14:33:37Z</time>
      </trkpt>
      <trkpt lat="48.83552" lon="1.91454">
        <ele>88.934120315127</ele>
        <time>2021-12-21T14:33:40Z</time>
      </trkpt>
      <trkpt lat="48.83554" lon="1.91454">
        <ele>88.898352775723</ele>
        <time>2021-12-21T14:33:42Z</time>
      </trkpt>
      <trkpt lat="48.83556" lon="1.91454">
        <ele>88.959821650758</ele>
        <time>2021-12-21T14:33:44Z</time>
      </trkpt>
      <trkpt lat="48.83559" lon="1.91454">
        <ele>89.020532484166</ele>
        <time>2021-12-21T14:33:46Z</time>
      </trkpt>
      <trkpt lat="48.8356" lon="1.91454">
        <ele>89.03073057998</ele>
        <time>2021-12-21T14:33:47Z</time>
      </trkpt>
      <trkpt lat="48.83563" lon="1.91453">
        <ele>88.826839247718</ele>
        <time>2021-12-21T14:33:50Z</time>
      </trkpt>
      <trkpt lat="48.83566" lon="1.91452">
        <ele>88.538636315614</ele>
        <time>2021-12-21T14:33:52Z</time>
      </trkpt>
      <trkpt lat="48.83569" lon="1.91453">
        <ele>88.348336190917</ele>
        <time>2021-12-21T14:33:54Z</time>
      </trkpt>
      <trkpt lat="48.83571" lon="1.91456">
        <ele>87.964291400276</ele>
        <time>2021-12-21T14:33:57Z</time>
      </trkpt>
      <trkpt lat="48.83572" lon="1.91458">
        <ele>87.545349648222</ele>
        <time>2021-12-21T14:34:00Z</time>
      </trkpt>
      <trkpt lat="48.83574" lon="1.91459">
        <ele>87.511883142404</ele>
        <time>2021-12-21T14:34:03Z</time>
      </trkpt>
      <trkpt lat="48.83577" lon="1.91462">
        <ele>87.528560361825</ele>
        <time>2021-12-21T14:34:05Z</time>
      </trkpt>
      <trkpt lat="48.83577" lon="1.91464">
        <ele>87.32570609916</ele>
        <time>2021-12-21T14:34:08Z</time>
      </trkpt>
      <trkpt lat="48.83579" lon="1.91466">
        <ele>87.224326551892</ele>
        <time>2021-12-21T14:34:10Z</time>
      </trkpt>
      <trkpt lat="48.83581" lon="1.91466">
        <ele>87.171187279746</ele>
        <time>2021-12-21T14:34:12Z</time>
      </trkpt>
      <trkpt lat="48.83584" lon="1.91466">
        <ele>87.102223058231</ele>
        <time>2021-12-21T14:34:14Z</time>
      </trkpt>
      <trkpt lat="48.83587" lon="1.91468">
        <ele>86.862528038211</ele>
        <time>2021-12-21T14:34:17Z</time>
      </trkpt>
      <trkpt lat="48.8359" lon="1.91468">
        <ele>86.464724404737</ele>
        <time>2021-12-21T14:34:19Z</time>
      </trkpt>
      <trkpt lat="48.83593" lon="1.91468">
        <ele>86.282765024342</ele>
        <time>2021-12-21T14:34:21Z</time>
      </trkpt>
      <trkpt lat="48.83596" lon="1.91469">
        <ele>86.198945975862</ele>
        <time>2021-12-21T14:34:24Z</time>
      </trkpt>
      <trkpt lat="48.83598" lon="1.91472">
        <ele>86.165915965103</ele>
        <time>2021-12-21T14:34:26Z</time>
      </trkpt>
      <trkpt lat="48.83601" lon="1.91474">
        <ele>85.894768060185</ele>
        <time>2021-12-21T14:34:28Z</time>
      </trkpt>
      <trkpt lat="48.83602" lon="1.91476">
        <ele>85.758476193063</ele>
        <time>2021-12-21T14:34:30Z</time>
      </trkpt>
      <trkpt lat="48.83605" lon="1.91478">
        <ele>85.498463543132</ele>
        <time>2021-12-21T14:34:32Z</time>
      </trkpt>
      <trkpt lat="48.83607" lon="1.91478">
        <ele>85.205186505802</ele>
        <time>2021-12-21T14:34:34Z</time>
      </trkpt>
      <trkpt lat="48.83609" lon="1.9148">
        <ele>84.904376514256</ele>
        <time>2021-12-21T14:34:37Z</time>
      </trkpt>
      <trkpt lat="48.83612" lon="1.91481">
        <ele>84.760660183616</ele>
        <time>2021-12-21T14:34:40Z</time>
      </trkpt>
      <trkpt lat="48.83614" lon="1.91482">
        <ele>84.76783836633</ele>
        <time>2021-12-21T14:34:45Z</time>
      </trkpt>
      <trkpt lat="48.83616" lon="1.91484">
        <ele>84.593875193968</ele>
        <time>2021-12-21T14:34:48Z</time>
      </trkpt>
      <trkpt lat="48.83619" lon="1.91485">
        <ele>84.479530319571</ele>
        <time>2021-12-21T14:34:50Z</time>
      </trkpt>
      <trkpt lat="48.83622" lon="1.91487">
        <ele>84.428727725521</ele>
        <time>2021-12-21T14:34:52Z</time>
      </trkpt>
      <trkpt lat="48.83625" lon="1.91487">
        <ele>84.258920051157</ele>
        <time>2021-12-21T14:34:54Z</time>
      </trkpt>
      <trkpt lat="48.83627" lon="1.91489">
        <ele>84.128602718934</ele>
        <time>2021-12-21T14:34:56Z</time>
      </trkpt>
      <trkpt lat="48.83628" lon="1.91491">
        <ele>84.204887848347</ele>
        <time>2021-12-21T14:34:58Z</time>
      </trkpt>
      <trkpt lat="48.8363" lon="1.91492">
        <ele>84.135880487971</ele>
        <time>2021-12-21T14:35:00Z</time>
      </trkpt>
      <trkpt lat="48.83632" lon="1.91495">
        <ele>84.091916101985</ele>
        <time>2021-12-21T14:35:02Z</time>
      </trkpt>
      <trkpt lat="48.83635" lon="1.91496">
        <ele>84.032192567363</ele>
        <time>2021-12-21T14:35:05Z</time>
      </trkpt>
      <trkpt lat="48.83636" lon="1.91499">
        <ele>83.998899639584</ele>
        <time>2021-12-21T14:35:07Z</time>
      </trkpt>
      <trkpt lat="48.83638" lon="1.91501">
        <ele>83.969318673946</ele>
        <time>2021-12-21T14:35:09Z</time>
      </trkpt>
      <trkpt lat="48.83641" lon="1.91501">
        <ele>83.616823508404</ele>
        <time>2021-12-21T14:35:12Z</time>
      </trkpt>
      <trkpt lat="48.83643" lon="1.91502">
        <ele>83.382473979145</ele>
        <time>2021-12-21T14:35:14Z</time>
      </trkpt>
      <trkpt lat="48.83645" lon="1.91505">
        <ele>83.302300598472</ele>
        <time>2021-12-21T14:35:16Z</time>
      </trkpt>
      <trkpt lat="48.83647" lon="1.91508">
        <ele>83.256657257676</ele>
        <time>2021-12-21T14:35:18Z</time>
      </trkpt>
      <trkpt lat="48.83649" lon="1.91509">
        <ele>83.144282622263</ele>
        <time>2021-12-21T14:35:21Z</time>
      </trkpt>
      <trkpt lat="48.8365" lon="1.91512">
        <ele>83.218632646836</ele>
        <time>2021-12-21T14:35:22Z</time>
      </trkpt>
      <trkpt lat="48.83652" lon="1.91513">
        <ele>83.150227088481</ele>
        <time>2021-12-21T14:35:24Z</time>
      </trkpt>
      <trkpt lat="48.83654" lon="1.91515">
        <ele>83.284625634551</ele>
        <time>2021-12-21T14:35:26Z</time>
      </trkpt>
      <trkpt lat="48.83656" lon="1.91518">
        <ele>83.277717521414</ele>
        <time>2021-12-21T14:35:28Z</time>
      </trkpt>
      <trkpt lat="48.83658" lon="1.91519">
        <ele>83.315244812518</ele>
        <time>2021-12-21T14:35:30Z</time>
      </trkpt>
      <trkpt lat="48.8366" lon="1.91519">
        <ele>83.336028337479</ele>
        <time>2021-12-21T14:35:32Z</time>
      </trkpt>
      <trkpt lat="48.83663" lon="1.91518">
        <ele>83.312388410792</ele>
        <time>2021-12-21T14:35:34Z</time>
      </trkpt>
      <trkpt lat="48.83665" lon="1.91519">
        <ele>83.143624099903</ele>
        <time>2021-12-21T14:35:36Z</time>
      </trkpt>
      <trkpt lat="48.83667" lon="1.91517">
        <ele>83.008353463374</ele>
        <time>2021-12-21T14:35:38Z</time>
      </trkpt>
      <trkpt lat="48.83669" lon="1.91514">
        <ele>82.817541376688</ele>
        <time>2021-12-21T14:35:40Z</time>
      </trkpt>
      <trkpt lat="48.8367" lon="1.91512">
        <ele>82.348118956201</ele>
        <time>2021-12-21T14:35:42Z</time>
      </trkpt>
      <trkpt lat="48.83671" lon="1.91508">
        <ele>82.391065513715</ele>
        <time>2021-12-21T14:35:44Z</time>
      </trkpt>
      <trkpt lat="48.83671" lon="1.91505">
        <ele>82.35752326902</ele>
        <time>2021-12-21T14:35:46Z</time>
      </trkpt>
      <trkpt lat="48.83671" lon="1.91501">
        <ele>82.145782591775</ele>
        <time>2021-12-21T14:35:48Z</time>
      </trkpt>
      <trkpt lat="48.8367" lon="1.91498">
        <ele>82.368450650014</ele>
        <time>2021-12-21T14:35:50Z</time>
      </trkpt>
      <trkpt lat="48.8367" lon="1.91494">
        <ele>82.372922904789</ele>
        <time>2021-12-21T14:35:52Z</time>
      </trkpt>
      <trkpt lat="48.83668" lon="1.9149">
        <ele>82.202010076493</ele>
        <time>2021-12-21T14:35:54Z</time>
      </trkpt>
      <trkpt lat="48.83666" lon="1.91486">
        <ele>81.884798095562</ele>
        <time>2021-12-21T14:35:56Z</time>
      </trkpt>
      <trkpt lat="48.83665" lon="1.91483">
        <ele>81.690643058158</ele>
        <time>2021-12-21T14:35:58Z</time>
      </trkpt>
      <trkpt lat="48.83664" lon="1.9148">
        <ele>81.397842047736</ele>
        <time>2021-12-21T14:36:00Z</time>
      </trkpt>
      <trkpt lat="48.83663" lon="1.91477">
        <ele>81.404874544591</ele>
        <time>2021-12-21T14:36:02Z</time>
      </trkpt>
      <trkpt lat="48.83664" lon="1.91473">
        <ele>81.143402379937</ele>
        <time>2021-12-21T14:36:06Z</time>
      </trkpt>
      <trkpt lat="48.83663" lon="1.91469">
        <ele>81.270416981541</ele>
        <time>2021-12-21T14:36:08Z</time>
      </trkpt>
      <trkpt lat="48.83663" lon="1.91466">
        <ele>81.38401517272</ele>
        <time>2021-12-21T14:36:10Z</time>
      </trkpt>
      <trkpt lat="48.83663" lon="1.91462">
        <ele>81.369516043924</ele>
        <time>2021-12-21T14:36:12Z</time>
      </trkpt>
      <trkpt lat="48.83664" lon="1.91458">
        <ele>81.20997337997</ele>
        <time>2021-12-21T14:36:14Z</time>
      </trkpt>
      <trkpt lat="48.83664" lon="1.91454">
        <ele>80.801830906421</ele>
        <time>2021-12-21T14:36:17Z</time>
      </trkpt>
      <trkpt lat="48.83664" lon="1.91451">
        <ele>80.655518735759</ele>
        <time>2021-12-21T14:36:20Z</time>
      </trkpt>
      <trkpt lat="48.83664" lon="1.91446">
        <ele>80.708990752697</ele>
        <time>2021-12-21T14:36:22Z</time>
      </trkpt>
      <trkpt lat="48.83665" lon="1.91442">
        <ele>80.616317998618</ele>
        <time>2021-12-21T14:36:24Z</time>
      </trkpt>
      <trkpt lat="48.83664" lon="1.91438">
        <ele>80.709083211608</ele>
        <time>2021-12-21T14:36:26Z</time>
      </trkpt>
      <trkpt lat="48.83663" lon="1.91434">
        <ele>80.74087636359</ele>
        <time>2021-12-21T14:36:29Z</time>
      </trkpt>
      <trkpt lat="48.83663" lon="1.91431">
        <ele>80.858453291468</ele>
        <time>2021-12-21T14:36:30Z</time>
      </trkpt>
      <trkpt lat="48.83662" lon="1.91427">
        <ele>80.74478655681</ele>
        <time>2021-12-21T14:36:32Z</time>
      </trkpt>
      <trkpt lat="48.83662" lon="1.91423">
        <ele>80.760529416613</ele>
        <time>2021-12-21T14:36:34Z</time>
      </trkpt>
      <trkpt lat="48.83661" lon="1.91421">
        <ele>80.83059735503</ele>
        <time>2021-12-21T14:36:36Z</time>
      </trkpt>
      <trkpt lat="48.83659" lon="1.9142">
        <ele>80.744432690553</ele>
        <time>2021-12-21T14:36:38Z</time>
      </trkpt>
      <trkpt lat="48.83658" lon="1.91417">
        <ele>80.790100799873</ele>
        <time>2021-12-21T14:36:40Z</time>
      </trkpt>
      <trkpt lat="48.83658" lon="1.91413">
        <ele>81.147735792212</ele>
        <time>2021-12-21T14:36:43Z</time>
      </trkpt>
      <trkpt lat="48.83657" lon="1.91409">
        <ele>81.515695639886</ele>
        <time>2021-12-21T14:36:45Z</time>
      </trkpt>
      <trkpt lat="48.83656" lon="1.91405">
        <ele>81.362523045391</ele>
        <time>2021-12-21T14:36:48Z</time>
      </trkpt>
      <trkpt lat="48.83655" lon="1.91401">
        <ele>81.414989948273</ele>
        <time>2021-12-21T14:36:49Z</time>
      </trkpt>
      <trkpt lat="48.83654" lon="1.91398">
        <ele>81.217035868205</ele>
        <time>2021-12-21T14:36:51Z</time>
      </trkpt>
      <trkpt lat="48.83653" lon="1.91396">
        <ele>81.163380047306</ele>
        <time>2021-12-21T14:36:53Z</time>
      </trkpt>
      <trkpt lat="48.83652" lon="1.91393">
        <ele>81.020110443234</ele>
        <time>2021-12-21T14:36:55Z</time>
      </trkpt>
      <trkpt lat="48.83652" lon="1.9139">
        <ele>81.030532415956</ele>
        <time>2021-12-21T14:36:57Z</time>
      </trkpt>
      <trkpt lat="48.8365" lon="1.91386">
        <ele>81.052378518507</ele>
        <time>2021-12-21T14:36:59Z</time>
      </trkpt>
      <trkpt lat="48.83649" lon="1.91382">
        <ele>81.163203310221</ele>
        <time>2021-12-21T14:37:01Z</time>
      </trkpt>
      <trkpt lat="48.83649" lon="1.91379">
        <ele>81.101332614198</ele>
        <time>2021-12-21T14:37:02Z</time>
      </trkpt>
      <trkpt lat="48.83648" lon="1.91376">
        <ele>81.108652537689</ele>
        <time>2021-12-21T14:37:04Z</time>
      </trkpt>
      <trkpt lat="48.83647" lon="1.91373">
        <ele>81.06914066989</ele>
        <time>2021-12-21T14:37:06Z</time>
      </trkpt>
      <trkpt lat="48.83647" lon="1.9137">
        <ele>81.373685503379</ele>
        <time>2021-12-21T14:37:09Z</time>
      </trkpt>
      <trkpt lat="48.83646" lon="1.91368">
        <ele>81.337671586312</ele>
        <time>2021-12-21T14:37:10Z</time>
      </trkpt>
      <trkpt lat="48.83645" lon="1.91364">
        <ele>81.384448782541</ele>
        <time>2021-12-21T14:37:12Z</time>
      </trkpt>
      <trkpt lat="48.83644" lon="1.91362">
        <ele>81.551193236373</ele>
        <time>2021-12-21T14:37:13Z</time>
      </trkpt>
      <trkpt lat="48.83643" lon="1.91358">
        <ele>81.484672820196</ele>
        <time>2021-12-21T14:37:15Z</time>
      </trkpt>
      <trkpt lat="48.83643" lon="1.91356">
        <ele>81.414335525595</ele>
        <time>2021-12-21T14:37:17Z</time>
      </trkpt>
      <trkpt lat="48.83643" lon="1.91353">
        <ele>81.177636767738</ele>
        <time>2021-12-21T14:37:22Z</time>
      </trkpt>
      <trkpt lat="48.83642" lon="1.9135">
        <ele>81.121018798091</ele>
        <time>2021-12-21T14:37:23Z</time>
      </trkpt>
      <trkpt lat="48.83641" lon="1.91346">
        <ele>80.890526853502</ele>
        <time>2021-12-21T14:37:26Z</time>
      </trkpt>
      <trkpt lat="48.83639" lon="1.91342">
        <ele>81.084309107624</ele>
        <time>2021-12-21T14:37:28Z</time>
      </trkpt>
      <trkpt lat="48.83638" lon="1.9134">
        <ele>80.984448425472</ele>
        <time>2021-12-21T14:37:29Z</time>
      </trkpt>
      <trkpt lat="48.83637" lon="1.91336">
        <ele>80.839896483347</ele>
        <time>2021-12-21T14:37:31Z</time>
      </trkpt>
      <trkpt lat="48.83638" lon="1.91331">
        <ele>80.738668260165</ele>
        <time>2021-12-21T14:37:33Z</time>
      </trkpt>
      <trkpt lat="48.83637" lon="1.91328">
        <ele>80.679929669946</ele>
        <time>2021-12-21T14:37:35Z</time>
      </trkpt>
      <trkpt lat="48.83637" lon="1.91324">
        <ele>80.762354223058</ele>
        <time>2021-12-21T14:37:37Z</time>
      </trkpt>
      <trkpt lat="48.83636" lon="1.91321">
        <ele>80.721640680917</ele>
        <time>2021-12-21T14:37:40Z</time>
      </trkpt>
      <trkpt lat="48.83635" lon="1.91317">
        <ele>80.757969669066</ele>
        <time>2021-12-21T14:37:43Z</time>
      </trkpt>
      <trkpt lat="48.83635" lon="1.91313">
        <ele>80.84069731459</ele>
        <time>2021-12-21T14:37:44Z</time>
      </trkpt>
      <trkpt lat="48.83634" lon="1.91308">
        <ele>80.903659452684</ele>
        <time>2021-12-21T14:37:46Z</time>
      </trkpt>
      <trkpt lat="48.83632" lon="1.91304">
        <ele>80.630678469315</ele>
        <time>2021-12-21T14:37:48Z</time>
      </trkpt>
      <trkpt lat="48.83631" lon="1.913">
        <ele>80.59119625017</ele>
        <time>2021-12-21T14:37:51Z</time>
      </trkpt>
      <trkpt lat="48.8363" lon="1.91296">
        <ele>80.642480543815</ele>
        <time>2021-12-21T14:37:53Z</time>
      </trkpt>
      <trkpt lat="48.83629" lon="1.91293">
        <ele>80.455388676375</ele>
        <time>2021-12-21T14:37:55Z</time>
      </trkpt>
      <trkpt lat="48.83627" lon="1.9129">
        <ele>80.721317635849</ele>
        <time>2021-12-21T14:37:57Z</time>
      </trkpt>
      <trkpt lat="48.83626" lon="1.91288">
        <ele>80.901145941578</ele>
        <time>2021-12-21T14:37:59Z</time>
      </trkpt>
      <trkpt lat="48.83626" lon="1.91284">
        <ele>80.894271384925</ele>
        <time>2021-12-21T14:38:01Z</time>
      </trkpt>
      <trkpt lat="48.83627" lon="1.91281">
        <ele>80.560760322958</ele>
        <time>2021-12-21T14:38:03Z</time>
      </trkpt>
      <trkpt lat="48.83628" lon="1.91279">
        <ele>80.477551416494</ele>
        <time>2021-12-21T14:38:04Z</time>
      </trkpt>
      <trkpt lat="48.8363" lon="1.91276">
        <ele>80.55672280211</ele>
        <time>2021-12-21T14:38:07Z</time>
      </trkpt>
      <trkpt lat="48.83632" lon="1.91274">
        <ele>80.898221615702</ele>
        <time>2021-12-21T14:38:09Z</time>
      </trkpt>
      <trkpt lat="48.83633" lon="1.91273">
        <ele>80.895381310955</ele>
        <time>2021-12-21T14:38:12Z</time>
      </trkpt>
      <trkpt lat="48.83632" lon="1.91271">
        <ele>80.794519064017</ele>
        <time>2021-12-21T14:38:16Z</time>
      </trkpt>
      <trkpt lat="48.83631" lon="1.91269">
        <ele>80.926994674839</ele>
        <time>2021-12-21T14:38:20Z</time>
      </trkpt>
      <trkpt lat="48.83632" lon="1.91265">
        <ele>81.046267666854</ele>
        <time>2021-12-21T14:38:24Z</time>
      </trkpt>
      <trkpt lat="48.83631" lon="1.91263">
        <ele>80.881671620533</ele>
        <time>2021-12-21T14:38:27Z</time>
      </trkpt>
      <trkpt lat="48.83629" lon="1.91261">
        <ele>80.846035888419</ele>
        <time>2021-12-21T14:38:29Z</time>
      </trkpt>
      <trkpt lat="48.83628" lon="1.91257">
        <ele>80.560809930786</ele>
        <time>2021-12-21T14:38:31Z</time>
      </trkpt>
      <trkpt lat="48.83627" lon="1.91253">
        <ele>80.831184387207</ele>
        <time>2021-12-21T14:38:34Z</time>
      </trkpt>
      <trkpt lat="48.83627" lon="1.9125">
        <ele>80.670447302051</ele>
        <time>2021-12-21T14:38:36Z</time>
      </trkpt>
      <trkpt lat="48.83627" lon="1.91246">
        <ele>80.420934328809</ele>
        <time>2021-12-21T14:38:39Z</time>
      </trkpt>
      <trkpt lat="48.83627" lon="1.91243">
        <ele>80.543160757981</ele>
        <time>2021-12-21T14:38:41Z</time>
      </trkpt>
      <trkpt lat="48.83627" lon="1.91239">
        <ele>80.71621253062</ele>
        <time>2021-12-21T14:38:43Z</time>
      </trkpt>
      <trkpt lat="48.83627" lon="1.91236">
        <ele>80.537437679246</ele>
        <time>2021-12-21T14:38:45Z</time>
      </trkpt>
      <trkpt lat="48.83626" lon="1.91234">
        <ele>80.691986805759</ele>
        <time>2021-12-21T14:38:47Z</time>
      </trkpt>
      <trkpt lat="48.83625" lon="1.9123">
        <ele>80.4914563559</ele>
        <time>2021-12-21T14:38:49Z</time>
      </trkpt>
      <trkpt lat="48.83623" lon="1.9123">
        <ele>80.324411537498</ele>
        <time>2021-12-21T14:38:54Z</time>
      </trkpt>
      <trkpt lat="48.83621" lon="1.91233">
        <ele>80.319385281764</ele>
        <time>2021-12-21T14:38:56Z</time>
      </trkpt>
      <trkpt lat="48.83619" lon="1.91232">
        <ele>80.853678329848</ele>
        <time>2021-12-21T14:38:59Z</time>
      </trkpt>
      <trkpt lat="48.83617" lon="1.9123">
        <ele>80.900639573112</ele>
        <time>2021-12-21T14:39:01Z</time>
      </trkpt>
      <trkpt lat="48.83615" lon="1.91229">
        <ele>80.80029625725</ele>
        <time>2021-12-21T14:39:03Z</time>
      </trkpt>
      <trkpt lat="48.83612" lon="1.91228">
        <ele>80.83034583088</ele>
        <time>2021-12-21T14:39:05Z</time>
      </trkpt>
      <trkpt lat="48.8361" lon="1.91227">
        <ele>80.916080628522</ele>
        <time>2021-12-21T14:39:06Z</time>
      </trkpt>
      <trkpt lat="48.83608" lon="1.91225">
        <ele>81.104991058819</ele>
        <time>2021-12-21T14:39:08Z</time>
      </trkpt>
      <trkpt lat="48.83606" lon="1.91223">
        <ele>81.198062445037</ele>
        <time>2021-12-21T14:39:10Z</time>
      </trkpt>
      <trkpt lat="48.83604" lon="1.9122">
        <ele>81.660324770026</ele>
        <time>2021-12-21T14:39:13Z</time>
      </trkpt>
      <trkpt lat="48.83602" lon="1.91218">
        <ele>82.08600668516</ele>
        <time>2021-12-21T14:39:15Z</time>
      </trkpt>
      <trkpt lat="48.836" lon="1.91216">
        <ele>82.476863459684</ele>
        <time>2021-12-21T14:39:18Z</time>
      </trkpt>
      <trkpt lat="48.83596" lon="1.91215">
        <ele>82.715138966218</ele>
        <time>2021-12-21T14:39:21Z</time>
      </trkpt>
      <trkpt lat="48.83594" lon="1.91215">
        <ele>83.115492493846</ele>
        <time>2021-12-21T14:39:25Z</time>
      </trkpt>
      <trkpt lat="48.83591" lon="1.91213">
        <ele>83.537821817212</ele>
        <time>2021-12-21T14:39:28Z</time>
      </trkpt>
      <trkpt lat="48.83589" lon="1.91213">
        <ele>83.845297817141</ele>
        <time>2021-12-21T14:39:30Z</time>
      </trkpt>
      <trkpt lat="48.83587" lon="1.91214">
        <ele>84.149897019379</ele>
        <time>2021-12-21T14:39:32Z</time>
      </trkpt>
      <trkpt lat="48.83584" lon="1.91214">
        <ele>84.548831894062</ele>
        <time>2021-12-21T14:39:34Z</time>
      </trkpt>
      <trkpt lat="48.83583" lon="1.91213">
        <ele>84.89985971339</ele>
        <time>2021-12-21T14:39:36Z</time>
      </trkpt>
      <trkpt lat="48.8358" lon="1.91212">
        <ele>85.409370261244</ele>
        <time>2021-12-21T14:39:39Z</time>
      </trkpt>
      <trkpt lat="48.83579" lon="1.91209">
        <ele>85.637337205932</ele>
        <time>2021-12-21T14:39:41Z</time>
      </trkpt>
      <trkpt lat="48.83577" lon="1.91207">
        <ele>85.769491641782</ele>
        <time>2021-12-21T14:39:43Z</time>
      </trkpt>
      <trkpt lat="48.83575" lon="1.91204">
        <ele>86.002321830019</ele>
        <time>2021-12-21T14:39:46Z</time>
      </trkpt>
      <trkpt lat="48.83574" lon="1.91201">
        <ele>86.028380717151</ele>
        <time>2021-12-21T14:39:49Z</time>
      </trkpt>
      <trkpt lat="48.83574" lon="1.91198">
        <ele>86.155652683228</ele>
        <time>2021-12-21T14:39:51Z</time>
      </trkpt>
      <trkpt lat="48.83572" lon="1.91196">
        <ele>86.560629238375</ele>
        <time>2021-12-21T14:39:55Z</time>
      </trkpt>
      <trkpt lat="48.83569" lon="1.91194">
        <ele>87.123775506392</ele>
        <time>2021-12-21T14:39:58Z</time>
      </trkpt>
      <trkpt lat="48.83567" lon="1.91194">
        <ele>87.242672240362</ele>
        <time>2021-12-21T14:40:00Z</time>
      </trkpt>
      <trkpt lat="48.83565" lon="1.91191">
        <ele>87.777379122563</ele>
        <time>2021-12-21T14:40:05Z</time>
      </trkpt>
      <trkpt lat="48.83565" lon="1.91187">
        <ele>87.96415973641</ele>
        <time>2021-12-21T14:40:08Z</time>
      </trkpt>
      <trkpt lat="48.83566" lon="1.91184">
        <ele>87.888255906291</ele>
        <time>2021-12-21T14:40:10Z</time>
      </trkpt>
      <trkpt lat="48.83567" lon="1.91181">
        <ele>87.692007989623</ele>
        <time>2021-12-21T14:40:12Z</time>
      </trkpt>
      <trkpt lat="48.83569" lon="1.91178">
        <ele>87.862425645813</ele>
        <time>2021-12-21T14:40:14Z</time>
      </trkpt>
      <trkpt lat="48.83569" lon="1.91175">
        <ele>87.779320596717</ele>
        <time>2021-12-21T14:40:16Z</time>
      </trkpt>
      <trkpt lat="48.8357" lon="1.91172">
        <ele>87.728114603087</ele>
        <time>2021-12-21T14:40:19Z</time>
      </trkpt>
      <trkpt lat="48.83571" lon="1.91172">
        <ele>87.080088523217</ele>
        <time>2021-12-21T14:40:21Z</time>
      </trkpt>
      <trkpt lat="48.83573" lon="1.91168">
        <ele>86.637062942609</ele>
        <time>2021-12-21T14:40:24Z</time>
      </trkpt>
      <trkpt lat="48.83574" lon="1.91166">
        <ele>85.99777440913</ele>
        <time>2021-12-21T14:40:26Z</time>
      </trkpt>
      <trkpt lat="48.83575" lon="1.91161">
        <ele>85.836827687919</ele>
        <time>2021-12-21T14:40:30Z</time>
      </trkpt>
      <trkpt lat="48.83575" lon="1.91157">
        <ele>85.536650497466</ele>
        <time>2021-12-21T14:40:32Z</time>
      </trkpt>
      <trkpt lat="48.83577" lon="1.91154">
        <ele>85.137509646825</ele>
        <time>2021-12-21T14:40:35Z</time>
      </trkpt>
      <trkpt lat="48.83577" lon="1.91151">
        <ele>85.272293752059</ele>
        <time>2021-12-21T14:40:37Z</time>
      </trkpt>
      <trkpt lat="48.83578" lon="1.91147">
        <ele>85.242759135552</ele>
        <time>2021-12-21T14:40:39Z</time>
      </trkpt>
      <trkpt lat="48.83579" lon="1.91143">
        <ele>85.289482491091</ele>
        <time>2021-12-21T14:40:41Z</time>
      </trkpt>
      <trkpt lat="48.83579" lon="1.91138">
        <ele>85.390248632059</ele>
        <time>2021-12-21T14:40:43Z</time>
      </trkpt>
      <trkpt lat="48.83579" lon="1.91136">
        <ele>85.090178742073</ele>
        <time>2021-12-21T14:40:45Z</time>
      </trkpt>
      <trkpt lat="48.8358" lon="1.91133">
        <ele>85.165032304823</ele>
        <time>2021-12-21T14:40:47Z</time>
      </trkpt>
      <trkpt lat="48.83581" lon="1.91129">
        <ele>85.157741376199</ele>
        <time>2021-12-21T14:40:49Z</time>
      </trkpt>
      <trkpt lat="48.83582" lon="1.91127">
        <ele>85.518617959693</ele>
        <time>2021-12-21T14:40:52Z</time>
      </trkpt>
      <trkpt lat="48.83582" lon="1.91124">
        <ele>85.637118123472</ele>
        <time>2021-12-21T14:40:54Z</time>
      </trkpt>
      <trkpt lat="48.83583" lon="1.9112">
        <ele>85.97422043141</ele>
        <time>2021-12-21T14:40:57Z</time>
      </trkpt>
      <trkpt lat="48.83584" lon="1.91117">
        <ele>85.959875748493</ele>
        <time>2021-12-21T14:40:59Z</time>
      </trkpt>
      <trkpt lat="48.83585" lon="1.91114">
        <ele>86.229602534324</ele>
        <time>2021-12-21T14:41:01Z</time>
      </trkpt>
      <trkpt lat="48.83586" lon="1.91111">
        <ele>86.468336567283</ele>
        <time>2021-12-21T14:41:03Z</time>
      </trkpt>
      <trkpt lat="48.83586" lon="1.91108">
        <ele>86.692562959157</ele>
        <time>2021-12-21T14:41:06Z</time>
      </trkpt>
      <trkpt lat="48.83587" lon="1.91104">
        <ele>86.899081137963</ele>
        <time>2021-12-21T14:41:08Z</time>
      </trkpt>
      <trkpt lat="48.83588" lon="1.911">
        <ele>87.035455099307</ele>
        <time>2021-12-21T14:41:11Z</time>
      </trkpt>
      <trkpt lat="48.8359" lon="1.91097">
        <ele>86.479189595208</ele>
        <time>2021-12-21T14:41:14Z</time>
      </trkpt>
      <trkpt lat="48.83591" lon="1.91095">
        <ele>86.534127457067</ele>
        <time>2021-12-21T14:41:16Z</time>
      </trkpt>
      <trkpt lat="48.83592" lon="1.9109">
        <ele>86.46582068596</ele>
        <time>2021-12-21T14:41:18Z</time>
      </trkpt>
      <trkpt lat="48.83592" lon="1.91086">
        <ele>86.256556139328</ele>
        <time>2021-12-21T14:41:20Z</time>
      </trkpt>
      <trkpt lat="48.83593" lon="1.91084">
        <ele>86.51037611533</ele>
        <time>2021-12-21T14:41:22Z</time>
      </trkpt>
      <trkpt lat="48.83594" lon="1.9108">
        <ele>86.434353315271</ele>
        <time>2021-12-21T14:41:24Z</time>
      </trkpt>
      <trkpt lat="48.83595" lon="1.91077">
        <ele>86.390648493543</ele>
        <time>2021-12-21T14:41:27Z</time>
      </trkpt>
      <trkpt lat="48.83596" lon="1.91075">
        <ele>86.154552826658</ele>
        <time>2021-12-21T14:41:29Z</time>
      </trkpt>
      <trkpt lat="48.83597" lon="1.91072">
        <ele>86.413749117404</ele>
        <time>2021-12-21T14:41:31Z</time>
      </trkpt>
      <trkpt lat="48.83597" lon="1.91069">
        <ele>86.265763184056</ele>
        <time>2021-12-21T14:41:33Z</time>
      </trkpt>
      <trkpt lat="48.83598" lon="1.91066">
        <ele>86.458238030784</ele>
        <time>2021-12-21T14:41:35Z</time>
      </trkpt>
      <trkpt lat="48.83598" lon="1.91062">
        <ele>86.588294778951</ele>
        <time>2021-12-21T14:41:37Z</time>
      </trkpt>
      <trkpt lat="48.83599" lon="1.91059">
        <ele>86.526490178891</ele>
        <time>2021-12-21T14:41:39Z</time>
      </trkpt>
      <trkpt lat="48.83601" lon="1.91055">
        <ele>86.855374743231</ele>
        <time>2021-12-21T14:41:42Z</time>
      </trkpt>
      <trkpt lat="48.83602" lon="1.91052">
        <ele>87.071485741995</ele>
        <time>2021-12-21T14:41:44Z</time>
      </trkpt>
      <trkpt lat="48.83602" lon="1.91049">
        <ele>87.073044974357</ele>
        <time>2021-12-21T14:41:45Z</time>
      </trkpt>
      <trkpt lat="48.83603" lon="1.91045">
        <ele>87.036460900679</ele>
        <time>2021-12-21T14:41:47Z</time>
      </trkpt>
      <trkpt lat="48.83604" lon="1.91041">
        <ele>87.510652004741</ele>
        <time>2021-12-21T14:41:50Z</time>
      </trkpt>
      <trkpt lat="48.83605" lon="1.91037">
        <ele>87.346182290465</ele>
        <time>2021-12-21T14:41:52Z</time>
      </trkpt>
      <trkpt lat="48.83605" lon="1.91034">
        <ele>87.296764061786</ele>
        <time>2021-12-21T14:41:54Z</time>
      </trkpt>
      <trkpt lat="48.83606" lon="1.91031">
        <ele>87.338965559378</ele>
        <time>2021-12-21T14:41:56Z</time>
      </trkpt>
      <trkpt lat="48.83607" lon="1.91027">
        <ele>87.177008107305</ele>
        <time>2021-12-21T14:41:59Z</time>
      </trkpt>
      <trkpt lat="48.83609" lon="1.91025">
        <ele>86.579282676801</ele>
        <time>2021-12-21T14:42:05Z</time>
      </trkpt>
      <trkpt lat="48.83609" lon="1.91022">
        <ele>86.94576077722</ele>
        <time>2021-12-21T14:42:08Z</time>
      </trkpt>
      <trkpt lat="48.83609" lon="1.91018">
        <ele>87.273601117544</ele>
        <time>2021-12-21T14:42:10Z</time>
      </trkpt>
      <trkpt lat="48.8361" lon="1.91015">
        <ele>87.538524175994</ele>
        <time>2021-12-21T14:42:12Z</time>
      </trkpt>
      <trkpt lat="48.8361" lon="1.91011">
        <ele>87.640908337198</ele>
        <time>2021-12-21T14:42:14Z</time>
      </trkpt>
      <trkpt lat="48.83612" lon="1.91009">
        <ele>87.551717977971</ele>
        <time>2021-12-21T14:42:16Z</time>
      </trkpt>
      <trkpt lat="48.83612" lon="1.91004">
        <ele>87.690690939315</ele>
        <time>2021-12-21T14:42:18Z</time>
      </trkpt>
      <trkpt lat="48.83612" lon="1.91">
        <ele>87.507667029276</ele>
        <time>2021-12-21T14:42:20Z</time>
      </trkpt>
      <trkpt lat="48.83614" lon="1.90997">
        <ele>87.161245731637</ele>
        <time>2021-12-21T14:42:22Z</time>
      </trkpt>
      <trkpt lat="48.83616" lon="1.90995">
        <ele>86.875419057906</ele>
        <time>2021-12-21T14:42:24Z</time>
      </trkpt>
      <trkpt lat="48.83617" lon="1.90992">
        <ele>86.634770552628</ele>
        <time>2021-12-21T14:42:26Z</time>
      </trkpt>
      <trkpt lat="48.83618" lon="1.90989">
        <ele>86.746911560185</ele>
        <time>2021-12-21T14:42:28Z</time>
      </trkpt>
      <trkpt lat="48.83618" lon="1.90986">
        <ele>86.794436351396</ele>
        <time>2021-12-21T14:42:30Z</time>
      </trkpt>
      <trkpt lat="48.83619" lon="1.90984">
        <ele>86.675577932969</ele>
        <time>2021-12-21T14:42:32Z</time>
      </trkpt>
      <trkpt lat="48.8362" lon="1.90981">
        <ele>86.476805267856</ele>
        <time>2021-12-21T14:42:35Z</time>
      </trkpt>
      <trkpt lat="48.8362" lon="1.90977">
        <ele>86.30217523966</ele>
        <time>2021-12-21T14:42:37Z</time>
      </trkpt>
      <trkpt lat="48.83621" lon="1.90974">
        <ele>86.464202966541</ele>
        <time>2021-12-21T14:42:39Z</time>
      </trkpt>
      <trkpt lat="48.83622" lon="1.90972">
        <ele>86.375417868607</ele>
        <time>2021-12-21T14:42:41Z</time>
      </trkpt>
      <trkpt lat="48.83623" lon="1.90969">
        <ele>86.422247733921</ele>
        <time>2021-12-21T14:42:43Z</time>
      </trkpt>
      <trkpt lat="48.83623" lon="1.90964">
        <ele>86.66481043864</ele>
        <time>2021-12-21T14:42:46Z</time>
      </trkpt>
      <trkpt lat="48.83624" lon="1.90961">
        <ele>86.759550027549</ele>
        <time>2021-12-21T14:42:48Z</time>
      </trkpt>
      <trkpt lat="48.83626" lon="1.90959">
        <ele>86.390230895951</ele>
        <time>2021-12-21T14:42:51Z</time>
      </trkpt>
      <trkpt lat="48.83628" lon="1.90955">
        <ele>86.304370029829</ele>
        <time>2021-12-21T14:42:53Z</time>
      </trkpt>
      <trkpt lat="48.8363" lon="1.90953">
        <ele>85.930560536683</ele>
        <time>2021-12-21T14:42:55Z</time>
      </trkpt>
      <trkpt lat="48.83633" lon="1.90953">
        <ele>85.744912482798</ele>
        <time>2021-12-21T14:42:57Z</time>
      </trkpt>
      <trkpt lat="48.83636" lon="1.90952">
        <ele>85.463218289427</ele>
        <time>2021-12-21T14:42:59Z</time>
      </trkpt>
      <trkpt lat="48.83638" lon="1.90953">
        <ele>85.220445222221</ele>
        <time>2021-12-21T14:43:01Z</time>
      </trkpt>
      <trkpt lat="48.8364" lon="1.90954">
        <ele>84.993485382758</ele>
        <time>2021-12-21T14:43:02Z</time>
      </trkpt>
      <trkpt lat="48.83643" lon="1.90954">
        <ele>84.843899611384</ele>
        <time>2021-12-21T14:43:04Z</time>
      </trkpt>
      <trkpt lat="48.83646" lon="1.90955">
        <ele>84.514797407202</ele>
        <time>2021-12-21T14:43:06Z</time>
      </trkpt>
      <trkpt lat="48.83648" lon="1.90953">
        <ele>84.339519561268</ele>
        <time>2021-12-21T14:43:08Z</time>
      </trkpt>
      <trkpt lat="48.8365" lon="1.90949">
        <ele>84.135594313033</ele>
        <time>2021-12-21T14:43:10Z</time>
      </trkpt>
      <trkpt lat="48.83651" lon="1.90946">
        <ele>83.877333186567</ele>
        <time>2021-12-21T14:43:12Z</time>
      </trkpt>
      <trkpt lat="48.83652" lon="1.90944">
        <ele>84.040190758184</ele>
        <time>2021-12-21T14:43:14Z</time>
      </trkpt>
      <trkpt lat="48.83653" lon="1.90941">
        <ele>84.078547691926</ele>
        <time>2021-12-21T14:43:16Z</time>
      </trkpt>
      <trkpt lat="48.83653" lon="1.90938">
        <ele>84.160518369637</ele>
        <time>2021-12-21T14:43:18Z</time>
      </trkpt>
      <trkpt lat="48.83654" lon="1.90935">
        <ele>84.389355421998</ele>
        <time>2021-12-21T14:43:20Z</time>
      </trkpt>
      <trkpt lat="48.83655" lon="1.90933">
        <ele>84.602447877638</ele>
        <time>2021-12-21T14:43:23Z</time>
      </trkpt>
      <trkpt lat="48.83655" lon="1.9093">
        <ele>84.8471980514</ele>
        <time>2021-12-21T14:43:25Z</time>
      </trkpt>
      <trkpt lat="48.83654" lon="1.90926">
        <ele>84.96322388202</ele>
        <time>2021-12-21T14:43:27Z</time>
      </trkpt>
      <trkpt lat="48.83654" lon="1.90923">
        <ele>85.0134854028</ele>
        <time>2021-12-21T14:43:29Z</time>
      </trkpt>
      <trkpt lat="48.83654" lon="1.90919">
        <ele>85.427802831866</ele>
        <time>2021-12-21T14:43:31Z</time>
      </trkpt>
      <trkpt lat="48.83653" lon="1.90916">
        <ele>85.491592524573</ele>
        <time>2021-12-21T14:43:33Z</time>
      </trkpt>
      <trkpt lat="48.83653" lon="1.90912">
        <ele>85.502039785497</ele>
        <time>2021-12-21T14:43:35Z</time>
      </trkpt>
      <trkpt lat="48.83652" lon="1.9091">
        <ele>85.337913618423</ele>
        <time>2021-12-21T14:43:37Z</time>
      </trkpt>
      <trkpt lat="48.83652" lon="1.90905">
        <ele>85.546631909907</ele>
        <time>2021-12-21T14:43:39Z</time>
      </trkpt>
      <trkpt lat="48.83652" lon="1.90903">
        <ele>85.914366401732</ele>
        <time>2021-12-21T14:43:41Z</time>
      </trkpt>
      <trkpt lat="48.83651" lon="1.90899">
        <ele>85.681946978904</ele>
        <time>2021-12-21T14:43:43Z</time>
      </trkpt>
      <trkpt lat="48.83651" lon="1.90896">
        <ele>85.697316562757</ele>
        <time>2021-12-21T14:43:46Z</time>
      </trkpt>
      <trkpt lat="48.83651" lon="1.90893">
        <ele>85.721910696477</ele>
        <time>2021-12-21T14:43:48Z</time>
      </trkpt>
      <trkpt lat="48.83651" lon="1.9089">
        <ele>85.721453108825</ele>
        <time>2021-12-21T14:43:50Z</time>
      </trkpt>
      <trkpt lat="48.83651" lon="1.90887">
        <ele>85.440023335628</ele>
        <time>2021-12-21T14:43:52Z</time>
      </trkpt>
      <trkpt lat="48.83651" lon="1.90882">
        <ele>85.705023304559</ele>
        <time>2021-12-21T14:43:55Z</time>
      </trkpt>
      <trkpt lat="48.83651" lon="1.90879">
        <ele>85.82411875762</ele>
        <time>2021-12-21T14:43:57Z</time>
      </trkpt>
      <trkpt lat="48.83651" lon="1.90876">
        <ele>86.036543468013</ele>
        <time>2021-12-21T14:43:59Z</time>
      </trkpt>
      <trkpt lat="48.83652" lon="1.90873">
        <ele>86.218641503714</ele>
        <time>2021-12-21T14:44:01Z</time>
      </trkpt>
      <trkpt lat="48.83652" lon="1.9087">
        <ele>86.148771326989</ele>
        <time>2021-12-21T14:44:03Z</time>
      </trkpt>
      <trkpt lat="48.83653" lon="1.90867">
        <ele>86.259680234827</ele>
        <time>2021-12-21T14:44:05Z</time>
      </trkpt>
      <trkpt lat="48.83653" lon="1.90864">
        <ele>86.218273730949</ele>
        <time>2021-12-21T14:44:07Z</time>
      </trkpt>
      <trkpt lat="48.83653" lon="1.9086">
        <ele>86.352024768479</ele>
        <time>2021-12-21T14:44:09Z</time>
      </trkpt>
      <trkpt lat="48.83653" lon="1.90858">
        <ele>86.254925572313</ele>
        <time>2021-12-21T14:44:11Z</time>
      </trkpt>
      <trkpt lat="48.83654" lon="1.90854">
        <ele>86.45132414531</ele>
        <time>2021-12-21T14:44:13Z</time>
      </trkpt>
      <trkpt lat="48.83655" lon="1.9085">
        <ele>86.436169328168</ele>
        <time>2021-12-21T14:44:15Z</time>
      </trkpt>
      <trkpt lat="48.83656" lon="1.90846">
        <ele>86.335404938087</ele>
        <time>2021-12-21T14:44:18Z</time>
      </trkpt>
      <trkpt lat="48.83657" lon="1.90843">
        <ele>86.357328992337</ele>
        <time>2021-12-21T14:44:20Z</time>
      </trkpt>
      <trkpt lat="48.83659" lon="1.9084">
        <ele>86.23924075719</ele>
        <time>2021-12-21T14:44:22Z</time>
      </trkpt>
      <trkpt lat="48.8366" lon="1.90836">
        <ele>86.205215753056</ele>
        <time>2021-12-21T14:44:24Z</time>
      </trkpt>
      <trkpt lat="48.83661" lon="1.90832">
        <ele>86.235656315461</ele>
        <time>2021-12-21T14:44:26Z</time>
      </trkpt>
      <trkpt lat="48.83662" lon="1.90829">
        <ele>85.786440377124</ele>
        <time>2021-12-21T14:44:30Z</time>
      </trkpt>
      <trkpt lat="48.83662" lon="1.90825">
        <ele>85.543958922848</ele>
        <time>2021-12-21T14:44:32Z</time>
      </trkpt>
      <trkpt lat="48.83662" lon="1.90822">
        <ele>85.588141487911</ele>
        <time>2021-12-21T14:44:35Z</time>
      </trkpt>
      <trkpt lat="48.83664" lon="1.90818">
        <ele>85.634419539012</ele>
        <time>2021-12-21T14:44:37Z</time>
      </trkpt>
      <trkpt lat="48.83665" lon="1.90815">
        <ele>85.12900851015</ele>
        <time>2021-12-21T14:44:39Z</time>
      </trkpt>
      <trkpt lat="48.83668" lon="1.90812">
        <ele>84.625371495262</ele>
        <time>2021-12-21T14:44:42Z</time>
      </trkpt>
      <trkpt lat="48.83669" lon="1.90809">
        <ele>84.091895845719</ele>
        <time>2021-12-21T14:44:44Z</time>
      </trkpt>
      <trkpt lat="48.83669" lon="1.90806">
        <ele>83.702044459991</ele>
        <time>2021-12-21T14:44:46Z</time>
      </trkpt>
      <trkpt lat="48.83671" lon="1.90803">
        <ele>83.118395791389</ele>
        <time>2021-12-21T14:44:48Z</time>
      </trkpt>
      <trkpt lat="48.83672" lon="1.90799">
        <ele>83.384431201965</ele>
        <time>2021-12-21T14:44:50Z</time>
      </trkpt>
      <trkpt lat="48.83672" lon="1.90796">
        <ele>83.33067651093</ele>
        <time>2021-12-21T14:44:52Z</time>
      </trkpt>
      <trkpt lat="48.83673" lon="1.90793">
        <ele>83.597525103949</ele>
        <time>2021-12-21T14:44:54Z</time>
      </trkpt>
      <trkpt lat="48.83674" lon="1.9079">
        <ele>83.964135357179</ele>
        <time>2021-12-21T14:44:56Z</time>
      </trkpt>
      <trkpt lat="48.83674" lon="1.90787">
        <ele>84.056829337962</ele>
        <time>2021-12-21T14:44:58Z</time>
      </trkpt>
      <trkpt lat="48.83675" lon="1.90784">
        <ele>83.745243771002</ele>
        <time>2021-12-21T14:45:00Z</time>
      </trkpt>
      <trkpt lat="48.83675" lon="1.9078">
        <ele>83.430173290893</ele>
        <time>2021-12-21T14:45:03Z</time>
      </trkpt>
      <trkpt lat="48.83677" lon="1.90778">
        <ele>83.594128102064</ele>
        <time>2021-12-21T14:45:05Z</time>
      </trkpt>
      <trkpt lat="48.83678" lon="1.90775">
        <ele>83.589586823247</ele>
        <time>2021-12-21T14:45:07Z</time>
      </trkpt>
      <trkpt lat="48.83679" lon="1.90772">
        <ele>83.249260911718</ele>
        <time>2021-12-21T14:45:09Z</time>
      </trkpt>
      <trkpt lat="48.8368" lon="1.90769">
        <ele>83.069412546232</ele>
        <time>2021-12-21T14:45:11Z</time>
      </trkpt>
      <trkpt lat="48.83681" lon="1.90766">
        <ele>83.074883057736</ele>
        <time>2021-12-21T14:45:13Z</time>
      </trkpt>
      <trkpt lat="48.83683" lon="1.90763">
        <ele>82.874378868379</ele>
        <time>2021-12-21T14:45:14Z</time>
      </trkpt>
      <trkpt lat="48.83684" lon="1.9076">
        <ele>82.851591044106</ele>
        <time>2021-12-21T14:45:16Z</time>
      </trkpt>
      <trkpt lat="48.83685" lon="1.90757">
        <ele>82.696668413468</ele>
        <time>2021-12-21T14:45:18Z</time>
      </trkpt>
      <trkpt lat="48.83686" lon="1.90754">
        <ele>82.374955646694</ele>
        <time>2021-12-21T14:45:20Z</time>
      </trkpt>
      <trkpt lat="48.83686" lon="1.90749">
        <ele>82.894318416715</ele>
        <time>2021-12-21T14:45:23Z</time>
      </trkpt>
      <trkpt lat="48.83687" lon="1.90747">
        <ele>82.647560018115</ele>
        <time>2021-12-21T14:45:25Z</time>
      </trkpt>
      <trkpt lat="48.83688" lon="1.90743">
        <ele>82.547232853249</ele>
        <time>2021-12-21T14:45:28Z</time>
      </trkpt>
      <trkpt lat="48.83689" lon="1.90741">
        <ele>81.918256296776</ele>
        <time>2021-12-21T14:45:30Z</time>
      </trkpt>
      <trkpt lat="48.83691" lon="1.90737">
        <ele>81.495229375549</ele>
        <time>2021-12-21T14:45:32Z</time>
      </trkpt>
      <trkpt lat="48.83692" lon="1.90733">
        <ele>81.375676389784</ele>
        <time>2021-12-21T14:45:34Z</time>
      </trkpt>
      <trkpt lat="48.83694" lon="1.9073">
        <ele>81.309010042809</ele>
        <time>2021-12-21T14:45:36Z</time>
      </trkpt>
      <trkpt lat="48.83694" lon="1.90726">
        <ele>81.147646636702</ele>
        <time>2021-12-21T14:45:39Z</time>
      </trkpt>
      <trkpt lat="48.83694" lon="1.90723">
        <ele>81.359826409258</ele>
        <time>2021-12-21T14:45:42Z</time>
      </trkpt>
      <trkpt lat="48.83696" lon="1.90721">
        <ele>81.57108192984</ele>
        <time>2021-12-21T14:45:47Z</time>
      </trkpt>
      <trkpt lat="48.83697" lon="1.90718">
        <ele>81.476246183738</ele>
        <time>2021-12-21T14:45:49Z</time>
      </trkpt>
      <trkpt lat="48.83698" lon="1.90714">
        <ele>81.49057494197</ele>
        <time>2021-12-21T14:45:52Z</time>
      </trkpt>
      <trkpt lat="48.837" lon="1.90712">
        <ele>81.204258045182</ele>
        <time>2021-12-21T14:45:54Z</time>
      </trkpt>
      <trkpt lat="48.837" lon="1.90709">
        <ele>81.033573895693</ele>
        <time>2021-12-21T14:45:56Z</time>
      </trkpt>
      <trkpt lat="48.83702" lon="1.90705">
        <ele>80.477130556479</ele>
        <time>2021-12-21T14:45:58Z</time>
      </trkpt>
      <trkpt lat="48.83703" lon="1.90703">
        <ele>80.452173753642</ele>
        <time>2021-12-21T14:45:59Z</time>
      </trkpt>
      <trkpt lat="48.83704" lon="1.90699">
        <ele>80.458345845342</ele>
        <time>2021-12-21T14:46:01Z</time>
      </trkpt>
      <trkpt lat="48.83705" lon="1.90696">
        <ele>80.337432420813</ele>
        <time>2021-12-21T14:46:03Z</time>
      </trkpt>
      <trkpt lat="48.83706" lon="1.90692">
        <ele>80.461796552874</ele>
        <time>2021-12-21T14:46:05Z</time>
      </trkpt>
      <trkpt lat="48.83706" lon="1.90689">
        <ele>80.508770398796</ele>
        <time>2021-12-21T14:46:06Z</time>
      </trkpt>
      <trkpt lat="48.83707" lon="1.90686">
        <ele>80.65353643056</ele>
        <time>2021-12-21T14:46:08Z</time>
      </trkpt>
      <trkpt lat="48.83708" lon="1.90683">
        <ele>80.757835347205</ele>
        <time>2021-12-21T14:46:11Z</time>
      </trkpt>
      <trkpt lat="48.83709" lon="1.90679">
        <ele>80.774443480186</ele>
        <time>2021-12-21T14:46:13Z</time>
      </trkpt>
      <trkpt lat="48.83708" lon="1.90676">
        <ele>81.160065962933</ele>
        <time>2021-12-21T14:46:18Z</time>
      </trkpt>
      <trkpt lat="48.83709" lon="1.90674">
        <ele>81.29189163819</ele>
        <time>2021-12-21T14:46:20Z</time>
      </trkpt>
      <trkpt lat="48.83711" lon="1.90672">
        <ele>81.272595779039</ele>
        <time>2021-12-21T14:46:22Z</time>
      </trkpt>
      <trkpt lat="48.83711" lon="1.90669">
        <ele>81.233186017722</ele>
        <time>2021-12-21T14:46:24Z</time>
      </trkpt>
      <trkpt lat="48.83712" lon="1.90665">
        <ele>80.736231453717</ele>
        <time>2021-12-21T14:46:27Z</time>
      </trkpt>
      <trkpt lat="48.83713" lon="1.90662">
        <ele>80.844543727115</ele>
        <time>2021-12-21T14:46:29Z</time>
      </trkpt>
      <trkpt lat="48.83714" lon="1.90658">
        <ele>80.649041260593</ele>
        <time>2021-12-21T14:46:32Z</time>
      </trkpt>
      <trkpt lat="48.83714" lon="1.90654">
        <ele>80.788373885676</ele>
        <time>2021-12-21T14:46:34Z</time>
      </trkpt>
      <trkpt lat="48.83714" lon="1.90652">
        <ele>80.992550413124</ele>
        <time>2021-12-21T14:46:36Z</time>
      </trkpt>
      <trkpt lat="48.83714" lon="1.90647">
        <ele>81.298565021716</ele>
        <time>2021-12-21T14:46:39Z</time>
      </trkpt>
      <trkpt lat="48.83715" lon="1.90643">
        <ele>80.976822666824</ele>
        <time>2021-12-21T14:46:43Z</time>
      </trkpt>
      <trkpt lat="48.83717" lon="1.90641">
        <ele>81.109488183632</ele>
        <time>2021-12-21T14:46:45Z</time>
      </trkpt>
      <trkpt lat="48.83717" lon="1.90638">
        <ele>80.632099217735</ele>
        <time>2021-12-21T14:46:47Z</time>
      </trkpt>
      <trkpt lat="48.83718" lon="1.90633">
        <ele>81.383875275962</ele>
        <time>2021-12-21T14:46:50Z</time>
      </trkpt>
      <trkpt lat="48.83718" lon="1.90629">
        <ele>81.67678391654</ele>
        <time>2021-12-21T14:46:52Z</time>
      </trkpt>
      <trkpt lat="48.83719" lon="1.90626">
        <ele>81.626725016162</ele>
        <time>2021-12-21T14:46:54Z</time>
      </trkpt>
      <trkpt lat="48.83718" lon="1.90622">
        <ele>81.716918192804</ele>
        <time>2021-12-21T14:46:56Z</time>
      </trkpt>
      <trkpt lat="48.83719" lon="1.90619">
        <ele>81.500089568086</ele>
        <time>2021-12-21T14:46:58Z</time>
      </trkpt>
      <trkpt lat="48.83719" lon="1.90616">
        <ele>81.847266596742</ele>
        <time>2021-12-21T14:47:00Z</time>
      </trkpt>
      <trkpt lat="48.83719" lon="1.90619">
        <ele>82.573050929233</ele>
        <time>2021-12-21T14:47:04Z</time>
      </trkpt>
      <trkpt lat="48.8372" lon="1.90616">
        <ele>82.409371475689</ele>
        <time>2021-12-21T14:47:07Z</time>
      </trkpt>
      <trkpt lat="48.83721" lon="1.90613">
        <ele>82.271462328732</ele>
        <time>2021-12-21T14:47:09Z</time>
      </trkpt>
      <trkpt lat="48.83722" lon="1.90609">
        <ele>82.379762106575</ele>
        <time>2021-12-21T14:47:11Z</time>
      </trkpt>
      <trkpt lat="48.83722" lon="1.90605">
        <ele>82.50501673948</ele>
        <time>2021-12-21T14:47:13Z</time>
      </trkpt>
      <trkpt lat="48.83723" lon="1.90602">
        <ele>82.571883566678</ele>
        <time>2021-12-21T14:47:15Z</time>
      </trkpt>
      <trkpt lat="48.83724" lon="1.90599">
        <ele>82.518064465374</ele>
        <time>2021-12-21T14:47:17Z</time>
      </trkpt>
      <trkpt lat="48.83725" lon="1.90597">
        <ele>82.50405796431</ele>
        <time>2021-12-21T14:47:19Z</time>
      </trkpt>
      <trkpt lat="48.83726" lon="1.90592">
        <ele>82.631699957885</ele>
        <time>2021-12-21T14:47:22Z</time>
      </trkpt>
      <trkpt lat="48.83728" lon="1.90593">
        <ele>83.152003103867</ele>
        <time>2021-12-21T14:47:27Z</time>
      </trkpt>
      <trkpt lat="48.8373" lon="1.90593">
        <ele>83.205792261288</ele>
        <time>2021-12-21T14:47:31Z</time>
      </trkpt>
      <trkpt lat="48.8373" lon="1.9059">
        <ele>82.781515948474</ele>
        <time>2021-12-21T14:47:34Z</time>
      </trkpt>
      <trkpt lat="48.8373" lon="1.90586">
        <ele>82.413571785204</ele>
        <time>2021-12-21T14:47:36Z</time>
      </trkpt>
      <trkpt lat="48.83731" lon="1.90583">
        <ele>82.970135395415</ele>
        <time>2021-12-21T14:47:38Z</time>
      </trkpt>
      <trkpt lat="48.83731" lon="1.9058">
        <ele>82.896507001482</ele>
        <time>2021-12-21T14:47:41Z</time>
      </trkpt>
      <trkpt lat="48.83733" lon="1.90577">
        <ele>82.936989632435</ele>
        <time>2021-12-21T14:47:43Z</time>
      </trkpt>
      <trkpt lat="48.83734" lon="1.90574">
        <ele>83.057736374438</ele>
        <time>2021-12-21T14:47:45Z</time>
      </trkpt>
      <trkpt lat="48.83735" lon="1.90571">
        <ele>83.003964692354</ele>
        <time>2021-12-21T14:47:47Z</time>
      </trkpt>
      <trkpt lat="48.83735" lon="1.90567">
        <ele>83.022278241813</ele>
        <time>2021-12-21T14:47:49Z</time>
      </trkpt>
      <trkpt lat="48.83736" lon="1.90564">
        <ele>82.4413499441</ele>
        <time>2021-12-21T14:47:52Z</time>
      </trkpt>
      <trkpt lat="48.83736" lon="1.9056">
        <ele>82.629353428259</ele>
        <time>2021-12-21T14:47:54Z</time>
      </trkpt>
      <trkpt lat="48.83735" lon="1.90558">
        <ele>83.066243546084</ele>
        <time>2021-12-21T14:48:16Z</time>
      </trkpt>
      <trkpt lat="48.83735" lon="1.90555">
        <ele>83.007206696086</ele>
        <time>2021-12-21T14:48:18Z</time>
      </trkpt>
      <trkpt lat="48.83735" lon="1.90552">
        <ele>83.214268281125</ele>
        <time>2021-12-21T14:48:20Z</time>
      </trkpt>
      <trkpt lat="48.83734" lon="1.9055">
        <ele>83.335169944912</ele>
        <time>2021-12-21T14:48:22Z</time>
      </trkpt>
      <trkpt lat="48.83732" lon="1.90548">
        <ele>83.662616225891</ele>
        <time>2021-12-21T14:48:24Z</time>
      </trkpt>
      <trkpt lat="48.8373" lon="1.90547">
        <ele>84.346437072381</ele>
        <time>2021-12-21T14:48:27Z</time>
      </trkpt>
      <trkpt lat="48.83728" lon="1.90546">
        <ele>84.704455284402</ele>
        <time>2021-12-21T14:48:29Z</time>
      </trkpt>
      <trkpt lat="48.83726" lon="1.90545">
        <ele>84.759169150144</ele>
        <time>2021-12-21T14:48:32Z</time>
      </trkpt>
      <trkpt lat="48.83724" lon="1.90544">
        <ele>84.319416365586</ele>
        <time>2021-12-21T14:48:34Z</time>
      </trkpt>
      <trkpt lat="48.83722" lon="1.90541">
        <ele>83.991966724396</ele>
        <time>2021-12-21T14:48:36Z</time>
      </trkpt>
      <trkpt lat="48.8372" lon="1.90542">
        <ele>84.251044758596</ele>
        <time>2021-12-21T14:48:39Z</time>
      </trkpt>
      <trkpt lat="48.83721" lon="1.90539">
        <ele>84.641661291011</ele>
        <time>2021-12-21T14:48:46Z</time>
      </trkpt>
      <trkpt lat="48.8372" lon="1.90538">
        <ele>84.544373938814</ele>
        <time>2021-12-21T14:48:55Z</time>
      </trkpt>
      <trkpt lat="48.83717" lon="1.90536">
        <ele>84.419164264575</ele>
        <time>2021-12-21T14:48:58Z</time>
      </trkpt>
      <trkpt lat="48.83715" lon="1.90536">
        <ele>84.701237936504</ele>
        <time>2021-12-21T14:49:00Z</time>
      </trkpt>
      <trkpt lat="48.83712" lon="1.90536">
        <ele>84.979894481599</ele>
        <time>2021-12-21T14:49:02Z</time>
      </trkpt>
      <trkpt lat="48.8371" lon="1.90536">
        <ele>85.287694633007</ele>
        <time>2021-12-21T14:49:04Z</time>
      </trkpt>
      <trkpt lat="48.83707" lon="1.90536">
        <ele>84.995809243992</ele>
        <time>2021-12-21T14:49:06Z</time>
      </trkpt>
      <trkpt lat="48.83705" lon="1.90535">
        <ele>85.026466537267</ele>
        <time>2021-12-21T14:49:08Z</time>
      </trkpt>
      <trkpt lat="48.83703" lon="1.90534">
        <ele>84.91200558655</ele>
        <time>2021-12-21T14:49:11Z</time>
      </trkpt>
      <trkpt lat="48.83701" lon="1.90531">
        <ele>84.978347197175</ele>
        <time>2021-12-21T14:49:14Z</time>
      </trkpt>
      <trkpt lat="48.83699" lon="1.9053">
        <ele>85.088503120467</ele>
        <time>2021-12-21T14:49:16Z</time>
      </trkpt>
      <trkpt lat="48.83697" lon="1.90529">
        <ele>85.53766699601</ele>
        <time>2021-12-21T14:49:18Z</time>
      </trkpt>
      <trkpt lat="48.83696" lon="1.90526">
        <ele>85.52781506069</ele>
        <time>2021-12-21T14:49:20Z</time>
      </trkpt>
      <trkpt lat="48.83693" lon="1.90525">
        <ele>85.897705064155</ele>
        <time>2021-12-21T14:49:22Z</time>
      </trkpt>
      <trkpt lat="48.83691" lon="1.90525">
        <ele>85.822028798983</ele>
        <time>2021-12-21T14:49:24Z</time>
      </trkpt>
      <trkpt lat="48.83689" lon="1.90524">
        <ele>85.759569260292</ele>
        <time>2021-12-21T14:49:26Z</time>
      </trkpt>
      <trkpt lat="48.83687" lon="1.90522">
        <ele>85.719946163706</ele>
        <time>2021-12-21T14:49:28Z</time>
      </trkpt>
      <trkpt lat="48.83684" lon="1.9052">
        <ele>85.862481096759</ele>
        <time>2021-12-21T14:49:30Z</time>
      </trkpt>
      <trkpt lat="48.83682" lon="1.9052">
        <ele>86.130127096549</ele>
        <time>2021-12-21T14:49:32Z</time>
      </trkpt>
      <trkpt lat="48.8368" lon="1.90517">
        <ele>85.9274725914</ele>
        <time>2021-12-21T14:49:34Z</time>
      </trkpt>
      <trkpt lat="48.83679" lon="1.90514">
        <ele>86.399522374384</ele>
        <time>2021-12-21T14:49:37Z</time>
      </trkpt>
      <trkpt lat="48.83677" lon="1.90512">
        <ele>86.656620419584</ele>
        <time>2021-12-21T14:49:39Z</time>
      </trkpt>
      <trkpt lat="48.83675" lon="1.90511">
        <ele>86.720531762578</ele>
        <time>2021-12-21T14:49:41Z</time>
      </trkpt>
      <trkpt lat="48.83673" lon="1.90509">
        <ele>86.833366688341</ele>
        <time>2021-12-21T14:49:43Z</time>
      </trkpt>
      <trkpt lat="48.8367" lon="1.90508">
        <ele>87.240234003402</ele>
        <time>2021-12-21T14:49:46Z</time>
      </trkpt>
      <trkpt lat="48.83668" lon="1.90506">
        <ele>87.161538829096</ele>
        <time>2021-12-21T14:49:49Z</time>
      </trkpt>
      <trkpt lat="48.8367" lon="1.9051">
        <ele>87.309506798163</ele>
        <time>2021-12-21T14:49:52Z</time>
      </trkpt>
      <trkpt lat="48.83672" lon="1.9051">
        <ele>87.592870095745</ele>
        <time>2021-12-21T14:49:59Z</time>
      </trkpt>
      <trkpt lat="48.83672" lon="1.90508">
        <ele>87.202265140601</ele>
        <time>2021-12-21T14:50:07Z</time>
      </trkpt>
      <trkpt lat="48.8367" lon="1.90506">
        <ele>86.851101289503</ele>
        <time>2021-12-21T14:50:18Z</time>
      </trkpt>
      <trkpt lat="48.83668" lon="1.90504">
        <ele>87.133649756201</ele>
        <time>2021-12-21T14:50:20Z</time>
      </trkpt>
      <trkpt lat="48.83666" lon="1.90502">
        <ele>87.407136308961</ele>
        <time>2021-12-21T14:50:22Z</time>
      </trkpt>
      <trkpt lat="48.83664" lon="1.905">
        <ele>87.787027380429</ele>
        <time>2021-12-21T14:50:25Z</time>
      </trkpt>
      <trkpt lat="48.83661" lon="1.90499">
        <ele>88.043404889293</ele>
        <time>2021-12-21T14:50:27Z</time>
      </trkpt>
      <trkpt lat="48.83658" lon="1.90497">
        <ele>88.481874480844</ele>
        <time>2021-12-21T14:50:30Z</time>
      </trkpt>
      <trkpt lat="48.83656" lon="1.90494">
        <ele>88.471082702279</ele>
        <time>2021-12-21T14:50:32Z</time>
      </trkpt>
      <trkpt lat="48.83654" lon="1.90492">
        <ele>88.411815940402</ele>
        <time>2021-12-21T14:50:34Z</time>
      </trkpt>
      <trkpt lat="48.83652" lon="1.9049">
        <ele>88.542935359292</ele>
        <time>2021-12-21T14:50:36Z</time>
      </trkpt>
      <trkpt lat="48.83652" lon="1.90487">
        <ele>88.425882607698</ele>
        <time>2021-12-21T14:50:40Z</time>
      </trkpt>
      <trkpt lat="48.8365" lon="1.90486">
        <ele>88.520282724872</ele>
        <time>2021-12-21T14:50:44Z</time>
      </trkpt>
      <trkpt lat="48.83648" lon="1.90485">
        <ele>88.314335873351</ele>
        <time>2021-12-21T14:50:46Z</time>
      </trkpt>
      <trkpt lat="48.83646" lon="1.90485">
        <ele>88.179018051364</ele>
        <time>2021-12-21T14:50:49Z</time>
      </trkpt>
      <trkpt lat="48.83644" lon="1.90485">
        <ele>87.999584514648</ele>
        <time>2021-12-21T14:50:51Z</time>
      </trkpt>
      <trkpt lat="48.83642" lon="1.90485">
        <ele>87.975043636747</ele>
        <time>2021-12-21T14:50:55Z</time>
      </trkpt>
      <trkpt lat="48.8364" lon="1.90483">
        <ele>88.224297811277</ele>
        <time>2021-12-21T14:51:12Z</time>
      </trkpt>
      <trkpt lat="48.83638" lon="1.90482">
        <ele>88.114443643019</ele>
        <time>2021-12-21T14:51:16Z</time>
      </trkpt>
      <trkpt lat="48.83636" lon="1.9048">
        <ele>88.34056426771</ele>
        <time>2021-12-21T14:51:18Z</time>
      </trkpt>
      <trkpt lat="48.83633" lon="1.90478">
        <ele>88.09733565338</ele>
        <time>2021-12-21T14:51:20Z</time>
      </trkpt>
      <trkpt lat="48.83632" lon="1.90476">
        <ele>88.108003688045</ele>
        <time>2021-12-21T14:51:21Z</time>
      </trkpt>
      <trkpt lat="48.8363" lon="1.90475">
        <ele>88.359174267389</ele>
        <time>2021-12-21T14:51:23Z</time>
      </trkpt>
      <trkpt lat="48.83627" lon="1.90474">
        <ele>88.683267558925</ele>
        <time>2021-12-21T14:51:24Z</time>
      </trkpt>
      <trkpt lat="48.83625" lon="1.90472">
        <ele>89.008359556086</ele>
        <time>2021-12-21T14:51:26Z</time>
      </trkpt>
      <trkpt lat="48.83623" lon="1.90471">
        <ele>89.44221375417</ele>
        <time>2021-12-21T14:51:28Z</time>
      </trkpt>
      <trkpt lat="48.8362" lon="1.9047">
        <ele>89.563683209009</ele>
        <time>2021-12-21T14:51:31Z</time>
      </trkpt>
      <trkpt lat="48.83622" lon="1.90472">
        <ele>90.068836414255</ele>
        <time>2021-12-21T14:51:36Z</time>
      </trkpt>
      <trkpt lat="48.83624" lon="1.90474">
        <ele>89.427930155769</ele>
        <time>2021-12-21T14:51:38Z</time>
      </trkpt>
      <trkpt lat="48.83622" lon="1.9047">
        <ele>89.167135365307</ele>
        <time>2021-12-21T14:51:43Z</time>
      </trkpt>
      <trkpt lat="48.83621" lon="1.90467">
        <ele>89.405914238654</ele>
        <time>2021-12-21T14:51:44Z</time>
      </trkpt>
      <trkpt lat="48.83619" lon="1.90466">
        <ele>89.659327309579</ele>
        <time>2021-12-21T14:51:45Z</time>
      </trkpt>
      <trkpt lat="48.83617" lon="1.90464">
        <ele>89.957059257664</ele>
        <time>2021-12-21T14:51:47Z</time>
      </trkpt>
      <trkpt lat="48.83615" lon="1.90462">
        <ele>90.44894115068</ele>
        <time>2021-12-21T14:51:49Z</time>
      </trkpt>
      <trkpt lat="48.83614" lon="1.9046">
        <ele>90.881647625938</ele>
        <time>2021-12-21T14:51:51Z</time>
      </trkpt>
      <trkpt lat="48.83612" lon="1.90457">
        <ele>91.117604671046</ele>
        <time>2021-12-21T14:51:53Z</time>
      </trkpt>
      <trkpt lat="48.83611" lon="1.90455">
        <ele>91.123829063959</ele>
        <time>2021-12-21T14:51:55Z</time>
      </trkpt>
      <trkpt lat="48.8361" lon="1.90452">
        <ele>90.979419901967</ele>
        <time>2021-12-21T14:51:57Z</time>
      </trkpt>
      <trkpt lat="48.83608" lon="1.9045">
        <ele>91.312439473346</ele>
        <time>2021-12-21T14:51:59Z</time>
      </trkpt>
      <trkpt lat="48.83607" lon="1.90446">
        <ele>91.796740655787</ele>
        <time>2021-12-21T14:52:02Z</time>
      </trkpt>
      <trkpt lat="48.83606" lon="1.90444">
        <ele>92.288273887709</ele>
        <time>2021-12-21T14:52:04Z</time>
      </trkpt>
      <trkpt lat="48.83604" lon="1.90441">
        <ele>92.732076186687</ele>
        <time>2021-12-21T14:52:06Z</time>
      </trkpt>
      <trkpt lat="48.83602" lon="1.90439">
        <ele>93.038369575515</ele>
        <time>2021-12-21T14:52:08Z</time>
      </trkpt>
      <trkpt lat="48.83599" lon="1.90439">
        <ele>93.248861643486</ele>
        <time>2021-12-21T14:52:10Z</time>
      </trkpt>
      <trkpt lat="48.83597" lon="1.90436">
        <ele>93.482439246029</ele>
        <time>2021-12-21T14:52:11Z</time>
      </trkpt>
      <trkpt lat="48.83594" lon="1.90437">
        <ele>93.544326104224</ele>
        <time>2021-12-21T14:52:12Z</time>
      </trkpt>
      <trkpt lat="48.83592" lon="1.90436">
        <ele>93.740946372971</ele>
        <time>2021-12-21T14:52:13Z</time>
      </trkpt>
      <trkpt lat="48.8359" lon="1.90435">
        <ele>94.069126964547</ele>
        <time>2021-12-21T14:52:15Z</time>
      </trkpt>
      <trkpt lat="48.83589" lon="1.90438">
        <ele>93.950387519784</ele>
        <time>2021-12-21T14:52:16Z</time>
      </trkpt>
      <trkpt lat="48.83586" lon="1.90437">
        <ele>93.304908016697</ele>
        <time>2021-12-21T14:52:18Z</time>
      </trkpt>
      <trkpt lat="48.83584" lon="1.90438">
        <ele>93.393185230903</ele>
        <time>2021-12-21T14:52:20Z</time>
      </trkpt>
      <trkpt lat="48.83582" lon="1.90437">
        <ele>93.610481502488</ele>
        <time>2021-12-21T14:52:22Z</time>
      </trkpt>
      <trkpt lat="48.8358" lon="1.90435">
        <ele>93.678552135825</ele>
        <time>2021-12-21T14:52:24Z</time>
      </trkpt>
      <trkpt lat="48.83579" lon="1.90432">
        <ele>93.426802571863</ele>
        <time>2021-12-21T14:52:27Z</time>
      </trkpt>
      <trkpt lat="48.83579" lon="1.90428">
        <ele>93.363702455536</ele>
        <time>2021-12-21T14:52:29Z</time>
      </trkpt>
      <trkpt lat="48.83578" lon="1.90426">
        <ele>93.606547063217</ele>
        <time>2021-12-21T14:52:31Z</time>
      </trkpt>
      <trkpt lat="48.83576" lon="1.90424">
        <ele>93.814428970218</ele>
        <time>2021-12-21T14:52:33Z</time>
      </trkpt>
      <trkpt lat="48.83573" lon="1.90422">
        <ele>94.139416174032</ele>
        <time>2021-12-21T14:52:35Z</time>
      </trkpt>
      <trkpt lat="48.83571" lon="1.90421">
        <ele>94.44660868682</ele>
        <time>2021-12-21T14:52:37Z</time>
      </trkpt>
      <trkpt lat="48.83568" lon="1.90419">
        <ele>94.749770600349</ele>
        <time>2021-12-21T14:52:39Z</time>
      </trkpt>
      <trkpt lat="48.83565" lon="1.90418">
        <ele>94.970141538419</ele>
        <time>2021-12-21T14:52:41Z</time>
      </trkpt>
      <trkpt lat="48.83563" lon="1.90417">
        <ele>95.007283310406</ele>
        <time>2021-12-21T14:52:43Z</time>
      </trkpt>
      <trkpt lat="48.83561" lon="1.90414">
        <ele>94.516692635603</ele>
        <time>2021-12-21T14:52:45Z</time>
      </trkpt>
      <trkpt lat="48.83559" lon="1.90412">
        <ele>94.573205793276</ele>
        <time>2021-12-21T14:52:47Z</time>
      </trkpt>
      <trkpt lat="48.83557" lon="1.90411">
        <ele>94.846969653852</ele>
        <time>2021-12-21T14:52:49Z</time>
      </trkpt>
      <trkpt lat="48.83555" lon="1.90409">
        <ele>95.041407231241</ele>
        <time>2021-12-21T14:52:51Z</time>
      </trkpt>
      <trkpt lat="48.83553" lon="1.90408">
        <ele>95.193662825041</ele>
        <time>2021-12-21T14:52:53Z</time>
      </trkpt>
      <trkpt lat="48.83551" lon="1.90406">
        <ele>95.441370578483</ele>
        <time>2021-12-21T14:52:55Z</time>
      </trkpt>
      <trkpt lat="48.83549" lon="1.90404">
        <ele>95.568396870047</ele>
        <time>2021-12-21T14:52:57Z</time>
      </trkpt>
      <trkpt lat="48.83547" lon="1.90402">
        <ele>95.722455235198</ele>
        <time>2021-12-21T14:52:59Z</time>
      </trkpt>
      <trkpt lat="48.83544" lon="1.904">
        <ele>95.931385880336</ele>
        <time>2021-12-21T14:53:01Z</time>
      </trkpt>
      <trkpt lat="48.83542" lon="1.90399">
        <ele>96.063941501081</ele>
        <time>2021-12-21T14:53:03Z</time>
      </trkpt>
      <trkpt lat="48.8354" lon="1.90398">
        <ele>96.262742153369</ele>
        <time>2021-12-21T14:53:05Z</time>
      </trkpt>
      <trkpt lat="48.83537" lon="1.90396">
        <ele>96.590369107202</ele>
        <time>2021-12-21T14:53:07Z</time>
      </trkpt>
      <trkpt lat="48.83535" lon="1.90395">
        <ele>96.954227677546</ele>
        <time>2021-12-21T14:53:09Z</time>
      </trkpt>
      <trkpt lat="48.83532" lon="1.90393">
        <ele>97.271783102304</ele>
        <time>2021-12-21T14:53:11Z</time>
      </trkpt>
      <trkpt lat="48.8353" lon="1.90391">
        <ele>97.272798481397</ele>
        <time>2021-12-21T14:53:13Z</time>
      </trkpt>
      <trkpt lat="48.83529" lon="1.90388">
        <ele>97.407452003099</ele>
        <time>2021-12-21T14:53:15Z</time>
      </trkpt>
      <trkpt lat="48.83526" lon="1.90387">
        <ele>97.745377983898</ele>
        <time>2021-12-21T14:53:17Z</time>
      </trkpt>
      <trkpt lat="48.83524" lon="1.90384">
        <ele>97.8172647506</ele>
        <time>2021-12-21T14:53:19Z</time>
      </trkpt>
      <trkpt lat="48.83523" lon="1.90381">
        <ele>97.251655552536</ele>
        <time>2021-12-21T14:53:21Z</time>
      </trkpt>
      <trkpt lat="48.83521" lon="1.90378">
        <ele>97.222984921187</ele>
        <time>2021-12-21T14:53:23Z</time>
      </trkpt>
      <trkpt lat="48.8352" lon="1.90374">
        <ele>97.097056943923</ele>
        <time>2021-12-21T14:53:25Z</time>
      </trkpt>
      <trkpt lat="48.83521" lon="1.90369">
        <ele>97.599381016567</ele>
        <time>2021-12-21T14:53:27Z</time>
      </trkpt>
      <trkpt lat="48.83522" lon="1.90365">
        <ele>97.747709424235</ele>
        <time>2021-12-21T14:53:29Z</time>
      </trkpt>
      <trkpt lat="48.83522" lon="1.9036">
        <ele>97.90883610677</ele>
        <time>2021-12-21T14:53:31Z</time>
      </trkpt>
      <trkpt lat="48.83521" lon="1.90356">
        <ele>97.727945591323</ele>
        <time>2021-12-21T14:53:33Z</time>
      </trkpt>
      <trkpt lat="48.83521" lon="1.90352">
        <ele>98.223910410888</ele>
        <time>2021-12-21T14:53:35Z</time>
      </trkpt>
      <trkpt lat="48.83522" lon="1.90346">
        <ele>98.252066054381</ele>
        <time>2021-12-21T14:53:37Z</time>
      </trkpt>
      <trkpt lat="48.83523" lon="1.90342">
        <ele>98.19516616594</ele>
        <time>2021-12-21T14:53:39Z</time>
      </trkpt>
      <trkpt lat="48.83524" lon="1.90337">
        <ele>98.137037442066</ele>
        <time>2021-12-21T14:53:41Z</time>
      </trkpt>
      <trkpt lat="48.83524" lon="1.90333">
        <ele>98.410338171758</ele>
        <time>2021-12-21T14:53:43Z</time>
      </trkpt>
      <trkpt lat="48.83525" lon="1.9033">
        <ele>98.507867188193</ele>
        <time>2021-12-21T14:53:45Z</time>
      </trkpt>
      <trkpt lat="48.83526" lon="1.90327">
        <ele>98.143137859181</ele>
        <time>2021-12-21T14:53:47Z</time>
      </trkpt>
      <trkpt lat="48.83527" lon="1.90324">
        <ele>98.34192860499</ele>
        <time>2021-12-21T14:53:49Z</time>
      </trkpt>
      <trkpt lat="48.83528" lon="1.90321">
        <ele>98.36565827392</ele>
        <time>2021-12-21T14:53:51Z</time>
      </trkpt>
      <trkpt lat="48.83529" lon="1.90317">
        <ele>98.211288374849</ele>
        <time>2021-12-21T14:53:53Z</time>
      </trkpt>
      <trkpt lat="48.83529" lon="1.90313">
        <ele>97.968070158735</ele>
        <time>2021-12-21T14:53:55Z</time>
      </trkpt>
      <trkpt lat="48.8353" lon="1.90309">
        <ele>98.260713699274</ele>
        <time>2021-12-21T14:53:57Z</time>
      </trkpt>
      <trkpt lat="48.83531" lon="1.90306">
        <ele>98.169182708487</ele>
        <time>2021-12-21T14:53:59Z</time>
      </trkpt>
      <trkpt lat="48.83531" lon="1.90302">
        <ele>98.156157691963</ele>
        <time>2021-12-21T14:54:01Z</time>
      </trkpt>
      <trkpt lat="48.83532" lon="1.90299">
        <ele>98.253360110335</ele>
        <time>2021-12-21T14:54:03Z</time>
      </trkpt>
      <trkpt lat="48.83533" lon="1.90296">
        <ele>98.762556764297</ele>
        <time>2021-12-21T14:54:05Z</time>
      </trkpt>
      <trkpt lat="48.83534" lon="1.90293">
        <ele>98.814925534651</ele>
        <time>2021-12-21T14:54:07Z</time>
      </trkpt>
      <trkpt lat="48.83536" lon="1.9029">
        <ele>98.496486365795</ele>
        <time>2021-12-21T14:54:09Z</time>
      </trkpt>
      <trkpt lat="48.83537" lon="1.90286">
        <ele>98.783485975116</ele>
        <time>2021-12-21T14:54:11Z</time>
      </trkpt>
      <trkpt lat="48.83537" lon="1.90281">
        <ele>98.002385148779</ele>
        <time>2021-12-21T14:54:14Z</time>
      </trkpt>
      <trkpt lat="48.83537" lon="1.90278">
        <ele>97.810226908885</ele>
        <time>2021-12-21T14:54:16Z</time>
      </trkpt>
      <trkpt lat="48.83538" lon="1.90275">
        <ele>98.051251048222</ele>
        <time>2021-12-21T14:54:18Z</time>
      </trkpt>
      <trkpt lat="48.83539" lon="1.90272">
        <ele>98.727372561581</ele>
        <time>2021-12-21T14:54:21Z</time>
      </trkpt>
      <trkpt lat="48.83539" lon="1.90269">
        <ele>99.039649480954</ele>
        <time>2021-12-21T14:54:23Z</time>
      </trkpt>
      <trkpt lat="48.8354" lon="1.90264">
        <ele>98.708470951766</ele>
        <time>2021-12-21T14:54:25Z</time>
      </trkpt>
      <trkpt lat="48.8354" lon="1.90261">
        <ele>98.80496847257</ele>
        <time>2021-12-21T14:54:27Z</time>
      </trkpt>
      <trkpt lat="48.8354" lon="1.90256">
        <ele>98.420300814323</ele>
        <time>2021-12-21T14:54:29Z</time>
      </trkpt>
      <trkpt lat="48.83539" lon="1.90252">
        <ele>98.285841001198</ele>
        <time>2021-12-21T14:54:32Z</time>
      </trkpt>
      <trkpt lat="48.83537" lon="1.90248">
        <ele>98.463840146549</ele>
        <time>2021-12-21T14:54:34Z</time>
      </trkpt>
      <trkpt lat="48.83535" lon="1.90246">
        <ele>99.119243418798</ele>
        <time>2021-12-21T14:54:36Z</time>
      </trkpt>
      <trkpt lat="48.83534" lon="1.90243">
        <ele>99.137815717608</ele>
        <time>2021-12-21T14:54:37Z</time>
      </trkpt>
      <trkpt lat="48.83533" lon="1.90242">
        <ele>99.080223402008</ele>
        <time>2021-12-21T14:54:39Z</time>
      </trkpt>
      <trkpt lat="48.83531" lon="1.90239">
        <ele>99.06779909879</ele>
        <time>2021-12-21T14:54:41Z</time>
      </trkpt>
      <trkpt lat="48.8353" lon="1.90236">
        <ele>98.596466518939</ele>
        <time>2021-12-21T14:54:42Z</time>
      </trkpt>
      <trkpt lat="48.83529" lon="1.90234">
        <ele>99.064812675118</ele>
        <time>2021-12-21T14:54:44Z</time>
      </trkpt>
      <trkpt lat="48.83527" lon="1.9023">
        <ele>99.791264522821</ele>
        <time>2021-12-21T14:54:47Z</time>
      </trkpt>
      <trkpt lat="48.83524" lon="1.90231">
        <ele>99.602220425382</ele>
        <time>2021-12-21T14:54:49Z</time>
      </trkpt>
      <trkpt lat="48.83522" lon="1.9023">
        <ele>99.920995353721</ele>
        <time>2021-12-21T14:54:51Z</time>
      </trkpt>
      <trkpt lat="48.83519" lon="1.90227">
        <ele>100.24748593196</ele>
        <time>2021-12-21T14:54:53Z</time>
      </trkpt>
      <trkpt lat="48.83518" lon="1.90224">
        <ele>100.33734434191</ele>
        <time>2021-12-21T14:54:55Z</time>
      </trkpt>
      <trkpt lat="48.83516" lon="1.90221">
        <ele>100.07164149079</ele>
        <time>2021-12-21T14:54:57Z</time>
      </trkpt>
      <trkpt lat="48.83514" lon="1.90219">
        <ele>100.41948256455</ele>
        <time>2021-12-21T14:54:59Z</time>
      </trkpt>
      <trkpt lat="48.83512" lon="1.90217">
        <ele>100.69357498921</ele>
        <time>2021-12-21T14:55:01Z</time>
      </trkpt>
      <trkpt lat="48.83509" lon="1.90216">
        <ele>100.66524623148</ele>
        <time>2021-12-21T14:55:04Z</time>
      </trkpt>
      <trkpt lat="48.83506" lon="1.90215">
        <ele>100.54980486352</ele>
        <time>2021-12-21T14:55:06Z</time>
      </trkpt>
      <trkpt lat="48.83504" lon="1.90213">
        <ele>100.54056980088</ele>
        <time>2021-12-21T14:55:08Z</time>
      </trkpt>
      <trkpt lat="48.83503" lon="1.90211">
        <ele>101.07391404919</ele>
        <time>2021-12-21T14:55:10Z</time>
      </trkpt>
      <trkpt lat="48.83501" lon="1.90208">
        <ele>101.17367721535</ele>
        <time>2021-12-21T14:55:13Z</time>
      </trkpt>
      <trkpt lat="48.83499" lon="1.90205">
        <ele>101.11522113252</ele>
        <time>2021-12-21T14:55:15Z</time>
      </trkpt>
      <trkpt lat="48.83497" lon="1.90202">
        <ele>101.81547241285</ele>
        <time>2021-12-21T14:55:18Z</time>
      </trkpt>
      <trkpt lat="48.83496" lon="1.90199">
        <ele>101.43383336533</ele>
        <time>2021-12-21T14:55:20Z</time>
      </trkpt>
      <trkpt lat="48.83494" lon="1.90196">
        <ele>101.31046370976</ele>
        <time>2021-12-21T14:55:22Z</time>
      </trkpt>
      <trkpt lat="48.83492" lon="1.90194">
        <ele>101.69419180043</ele>
        <time>2021-12-21T14:55:24Z</time>
      </trkpt>
      <trkpt lat="48.83492" lon="1.90189">
        <ele>101.3542967774</ele>
        <time>2021-12-21T14:55:26Z</time>
      </trkpt>
      <trkpt lat="48.8349" lon="1.90187">
        <ele>101.80407796241</ele>
        <time>2021-12-21T14:55:28Z</time>
      </trkpt>
      <trkpt lat="48.83489" lon="1.90183">
        <ele>101.08061231207</ele>
        <time>2021-12-21T14:55:30Z</time>
      </trkpt>
      <trkpt lat="48.83487" lon="1.90181">
        <ele>101.02931308746</ele>
        <time>2021-12-21T14:55:32Z</time>
      </trkpt>
      <trkpt lat="48.83484" lon="1.90179">
        <ele>101.5068246685</ele>
        <time>2021-12-21T14:55:34Z</time>
      </trkpt>
      <trkpt lat="48.83482" lon="1.90176">
        <ele>101.14768262859</ele>
        <time>2021-12-21T14:55:36Z</time>
      </trkpt>
      <trkpt lat="48.83481" lon="1.90173">
        <ele>101.78560153767</ele>
        <time>2021-12-21T14:55:38Z</time>
      </trkpt>
      <trkpt lat="48.83481" lon="1.9017">
        <ele>102.10707369167</ele>
        <time>2021-12-21T14:55:40Z</time>
      </trkpt>
      <trkpt lat="48.83479" lon="1.90168">
        <ele>102.35441606212</ele>
        <time>2021-12-21T14:55:42Z</time>
      </trkpt>
      <trkpt lat="48.83478" lon="1.90165">
        <ele>102.54551248625</ele>
        <time>2021-12-21T14:55:44Z</time>
      </trkpt>
      <trkpt lat="48.83477" lon="1.90161">
        <ele>102.75398178771</ele>
        <time>2021-12-21T14:55:46Z</time>
      </trkpt>
      <trkpt lat="48.83475" lon="1.90157">
        <ele>103.69997965544</ele>
        <time>2021-12-21T14:55:48Z</time>
      </trkpt>
      <trkpt lat="48.83474" lon="1.90155">
        <ele>103.83716123644</ele>
        <time>2021-12-21T14:55:50Z</time>
      </trkpt>
      <trkpt lat="48.83472" lon="1.90153">
        <ele>103.70156218205</ele>
        <time>2021-12-21T14:55:52Z</time>
      </trkpt>
      <trkpt lat="48.83471" lon="1.90152">
        <ele>103.23886744771</ele>
        <time>2021-12-21T14:55:54Z</time>
      </trkpt>
      <trkpt lat="48.83468" lon="1.90149">
        <ele>103.25571906194</ele>
        <time>2021-12-21T14:55:56Z</time>
      </trkpt>
      <trkpt lat="48.83467" lon="1.90146">
        <ele>103.29862619657</ele>
        <time>2021-12-21T14:55:58Z</time>
      </trkpt>
      <trkpt lat="48.83466" lon="1.90142">
        <ele>103.3251596652</ele>
        <time>2021-12-21T14:56:00Z</time>
      </trkpt>
      <trkpt lat="48.83465" lon="1.9014">
        <ele>103.08934131917</ele>
        <time>2021-12-21T14:56:02Z</time>
      </trkpt>
      <trkpt lat="48.83464" lon="1.90137">
        <ele>103.21194926649</ele>
        <time>2021-12-21T14:56:04Z</time>
      </trkpt>
      <trkpt lat="48.83462" lon="1.90134">
        <ele>102.79615666904</ele>
        <time>2021-12-21T14:56:06Z</time>
      </trkpt>
      <trkpt lat="48.83462" lon="1.90131">
        <ele>103.00928991474</ele>
        <time>2021-12-21T14:56:08Z</time>
      </trkpt>
      <trkpt lat="48.8346" lon="1.90127">
        <ele>103.22692698985</ele>
        <time>2021-12-21T14:56:10Z</time>
      </trkpt>
      <trkpt lat="48.8346" lon="1.90123">
        <ele>103.46952754725</ele>
        <time>2021-12-21T14:56:12Z</time>
      </trkpt>
      <trkpt lat="48.83457" lon="1.9012">
        <ele>103.55450100079</ele>
        <time>2021-12-21T14:56:14Z</time>
      </trkpt>
      <trkpt lat="48.83456" lon="1.90117">
        <ele>104.59415800869</ele>
        <time>2021-12-21T14:56:16Z</time>
      </trkpt>
      <trkpt lat="48.83455" lon="1.90114">
        <ele>104.51102484576</ele>
        <time>2021-12-21T14:56:18Z</time>
      </trkpt>
      <trkpt lat="48.83453" lon="1.90112">
        <ele>104.93219446391</ele>
        <time>2021-12-21T14:56:20Z</time>
      </trkpt>
      <trkpt lat="48.83451" lon="1.9011">
        <ele>105.35594417434</ele>
        <time>2021-12-21T14:56:22Z</time>
      </trkpt>
      <trkpt lat="48.8345" lon="1.90108">
        <ele>105.572754113</ele>
        <time>2021-12-21T14:56:24Z</time>
      </trkpt>
      <trkpt lat="48.83449" lon="1.90106">
        <ele>105.43405564688</ele>
        <time>2021-12-21T14:56:27Z</time>
      </trkpt>
      <trkpt lat="48.83446" lon="1.90105">
        <ele>105.68410717137</ele>
        <time>2021-12-21T14:56:28Z</time>
      </trkpt>
      <trkpt lat="48.83444" lon="1.90104">
        <ele>105.68533516023</ele>
        <time>2021-12-21T14:56:30Z</time>
      </trkpt>
      <trkpt lat="48.83441" lon="1.90103">
        <ele>106.34497596696</ele>
        <time>2021-12-21T14:56:32Z</time>
      </trkpt>
      <trkpt lat="48.83438" lon="1.90102">
        <ele>106.19325813185</ele>
        <time>2021-12-21T14:56:34Z</time>
      </trkpt>
      <trkpt lat="48.83435" lon="1.90102">
        <ele>106.7230514558</ele>
        <time>2021-12-21T14:56:36Z</time>
      </trkpt>
      <trkpt lat="48.83432" lon="1.90099">
        <ele>106.35373236798</ele>
        <time>2021-12-21T14:56:38Z</time>
      </trkpt>
      <trkpt lat="48.8343" lon="1.90099">
        <ele>106.36140263453</ele>
        <time>2021-12-21T14:56:40Z</time>
      </trkpt>
      <trkpt lat="48.83428" lon="1.90098">
        <ele>106.6980187688</ele>
        <time>2021-12-21T14:56:42Z</time>
      </trkpt>
      <trkpt lat="48.83426" lon="1.90097">
        <ele>107.00812709332</ele>
        <time>2021-12-21T14:56:44Z</time>
      </trkpt>
      <trkpt lat="48.83423" lon="1.90096">
        <ele>106.80112873483</ele>
        <time>2021-12-21T14:56:46Z</time>
      </trkpt>
      <trkpt lat="48.83421" lon="1.90095">
        <ele>107.08654290624</ele>
        <time>2021-12-21T14:56:48Z</time>
      </trkpt>
      <trkpt lat="48.83419" lon="1.90093">
        <ele>107.24174843822</ele>
        <time>2021-12-21T14:56:50Z</time>
      </trkpt>
      <trkpt lat="48.83417" lon="1.90093">
        <ele>107.01976880245</ele>
        <time>2021-12-21T14:56:52Z</time>
      </trkpt>
      <trkpt lat="48.83415" lon="1.90091">
        <ele>107.11176999845</ele>
        <time>2021-12-21T14:56:54Z</time>
      </trkpt>
      <trkpt lat="48.83414" lon="1.90088">
        <ele>107.25644870382</ele>
        <time>2021-12-21T14:56:56Z</time>
      </trkpt>
      <trkpt lat="48.83412" lon="1.90086">
        <ele>107.0547135435</ele>
        <time>2021-12-21T14:56:59Z</time>
      </trkpt>
      <trkpt lat="48.83412" lon="1.90082">
        <ele>107.24219443742</ele>
        <time>2021-12-21T14:57:01Z</time>
      </trkpt>
      <trkpt lat="48.83411" lon="1.90078">
        <ele>107.96337504033</ele>
        <time>2021-12-21T14:57:02Z</time>
      </trkpt>
      <trkpt lat="48.8341" lon="1.90075">
        <ele>108.42154104169</ele>
        <time>2021-12-21T14:57:04Z</time>
      </trkpt>
      <trkpt lat="48.8341" lon="1.90071">
        <ele>107.87281391583</ele>
        <time>2021-12-21T14:57:06Z</time>
      </trkpt>
      <trkpt lat="48.83411" lon="1.90068">
        <ele>107.44986257143</ele>
        <time>2021-12-21T14:57:08Z</time>
      </trkpt>
      <trkpt lat="48.83412" lon="1.90065">
        <ele>107.35675461963</ele>
        <time>2021-12-21T14:57:10Z</time>
      </trkpt>
      <trkpt lat="48.83412" lon="1.90062">
        <ele>107.29624532629</ele>
        <time>2021-12-21T14:57:12Z</time>
      </trkpt>
      <trkpt lat="48.83412" lon="1.90058">
        <ele>107.3289285209</ele>
        <time>2021-12-21T14:57:14Z</time>
      </trkpt>
      <trkpt lat="48.83414" lon="1.90055">
        <ele>107.99682780541</ele>
        <time>2021-12-21T14:57:16Z</time>
      </trkpt>
      <trkpt lat="48.83414" lon="1.90051">
        <ele>107.97423321661</ele>
        <time>2021-12-21T14:57:18Z</time>
      </trkpt>
      <trkpt lat="48.83414" lon="1.90048">
        <ele>107.91837909352</ele>
        <time>2021-12-21T14:57:19Z</time>
      </trkpt>
      <trkpt lat="48.83414" lon="1.90045">
        <ele>107.87679264229</ele>
        <time>2021-12-21T14:57:21Z</time>
      </trkpt>
      <trkpt lat="48.83415" lon="1.90042">
        <ele>107.83267268352</ele>
        <time>2021-12-21T14:57:23Z</time>
      </trkpt>
      <trkpt lat="48.83414" lon="1.90038">
        <ele>108.09139039181</ele>
        <time>2021-12-21T14:57:25Z</time>
      </trkpt>
      <trkpt lat="48.83415" lon="1.90036">
        <ele>108.68177234288</ele>
        <time>2021-12-21T14:57:27Z</time>
      </trkpt>
      <trkpt lat="48.83417" lon="1.90033">
        <ele>109.24358291738</ele>
        <time>2021-12-21T14:57:30Z</time>
      </trkpt>
      <trkpt lat="48.83418" lon="1.9003">
        <ele>109.11906650569</ele>
        <time>2021-12-21T14:57:32Z</time>
      </trkpt>
      <trkpt lat="48.83419" lon="1.90027">
        <ele>109.0556370113</ele>
        <time>2021-12-21T14:57:34Z</time>
      </trkpt>
      <trkpt lat="48.8342" lon="1.90025">
        <ele>108.96105363593</ele>
        <time>2021-12-21T14:57:36Z</time>
      </trkpt>
      <trkpt lat="48.8342" lon="1.90022">
        <ele>108.85303546395</ele>
        <time>2021-12-21T14:57:37Z</time>
      </trkpt>
      <trkpt lat="48.83422" lon="1.90019">
        <ele>108.8930070661</ele>
        <time>2021-12-21T14:57:39Z</time>
      </trkpt>
      <trkpt lat="48.83422" lon="1.90016">
        <ele>109.25833798014</ele>
        <time>2021-12-21T14:57:41Z</time>
      </trkpt>
      <trkpt lat="48.83424" lon="1.90012">
        <ele>109.49440976419</ele>
        <time>2021-12-21T14:57:43Z</time>
      </trkpt>
      <trkpt lat="48.83423" lon="1.90008">
        <ele>108.97740891576</ele>
        <time>2021-12-21T14:57:45Z</time>
      </trkpt>
      <trkpt lat="48.83423" lon="1.90004">
        <ele>108.98836922646</ele>
        <time>2021-12-21T14:57:47Z</time>
      </trkpt>
      <trkpt lat="48.83422" lon="1.9">
        <ele>109.3422100693</ele>
        <time>2021-12-21T14:57:49Z</time>
      </trkpt>
      <trkpt lat="48.8342" lon="1.89996">
        <ele>109.49782573618</ele>
        <time>2021-12-21T14:57:51Z</time>
      </trkpt>
      <trkpt lat="48.83419" lon="1.89992">
        <ele>109.07552397903</ele>
        <time>2021-12-21T14:57:53Z</time>
      </trkpt>
      <trkpt lat="48.83418" lon="1.8999">
        <ele>108.97558356263</ele>
        <time>2021-12-21T14:57:54Z</time>
      </trkpt>
      <trkpt lat="48.83417" lon="1.89987">
        <ele>109.11362351384</ele>
        <time>2021-12-21T14:57:56Z</time>
      </trkpt>
      <trkpt lat="48.83415" lon="1.89984">
        <ele>109.77843253966</ele>
        <time>2021-12-21T14:57:57Z</time>
      </trkpt>
      <trkpt lat="48.83414" lon="1.8998">
        <ele>109.70472598821</ele>
        <time>2021-12-21T14:57:59Z</time>
      </trkpt>
      <trkpt lat="48.83411" lon="1.89977">
        <ele>109.5621422315</ele>
        <time>2021-12-21T14:58:01Z</time>
      </trkpt>
      <trkpt lat="48.8341" lon="1.89975">
        <ele>109.68276397325</ele>
        <time>2021-12-21T14:58:03Z</time>
      </trkpt>
      <trkpt lat="48.83407" lon="1.89971">
        <ele>109.18796365429</ele>
        <time>2021-12-21T14:58:05Z</time>
      </trkpt>
      <trkpt lat="48.83407" lon="1.89967">
        <ele>109.91905981861</ele>
        <time>2021-12-21T14:58:09Z</time>
      </trkpt>
      <trkpt lat="48.83407" lon="1.89964">
        <ele>109.68543243874</ele>
        <time>2021-12-21T14:58:11Z</time>
      </trkpt>
      <trkpt lat="48.83406" lon="1.8996">
        <ele>109.4848059332</ele>
        <time>2021-12-21T14:58:13Z</time>
      </trkpt>
      <trkpt lat="48.83406" lon="1.89956">
        <ele>109.55068655126</ele>
        <time>2021-12-21T14:58:15Z</time>
      </trkpt>
      <trkpt lat="48.83406" lon="1.89953">
        <ele>109.72831661068</ele>
        <time>2021-12-21T14:58:17Z</time>
      </trkpt>
      <trkpt lat="48.83406" lon="1.89949">
        <ele>109.57336362917</ele>
        <time>2021-12-21T14:58:19Z</time>
      </trkpt>
      <trkpt lat="48.83404" lon="1.89946">
        <ele>109.24178813864</ele>
        <time>2021-12-21T14:58:21Z</time>
      </trkpt>
      <trkpt lat="48.83403" lon="1.89943">
        <ele>109.64748672489</ele>
        <time>2021-12-21T14:58:23Z</time>
      </trkpt>
      <trkpt lat="48.83403" lon="1.89939">
        <ele>109.68371461611</ele>
        <time>2021-12-21T14:58:25Z</time>
      </trkpt>
      <trkpt lat="48.83401" lon="1.89936">
        <ele>109.65800684225</ele>
        <time>2021-12-21T14:58:27Z</time>
      </trkpt>
      <trkpt lat="48.83399" lon="1.89934">
        <ele>110.36890595779</ele>
        <time>2021-12-21T14:58:29Z</time>
      </trkpt>
      <trkpt lat="48.83395" lon="1.89934">
        <ele>110.59411954042</ele>
        <time>2021-12-21T14:58:31Z</time>
      </trkpt>
      <trkpt lat="48.83393" lon="1.89935">
        <ele>110.5198563328</ele>
        <time>2021-12-21T14:58:32Z</time>
      </trkpt>
    </trkseg>
  </trk>
</gpx>